<?xml version="1.0" encoding="UTF-8" standalone="no" ?>
<gpx xmlns="http://www.topografix.com/GPX/1/1" xmlns:xsi="http://www.w3.org/2001/XMLSchema-instance" xsi:schemaLocation="http://www.topografix.com/GPX/1/1 http://www.topografix.com/GPX/1/1/gpx.xsd" version="1.1" creator="VisuGPX - https://www.visugpx.com">
  <metadata>
    <name>2009-11-14 La Voulte 35kms</name>
    <desc><![CDATA[Sur les traces de la rando des Collines de l'Eyrieux au départ de la Voulte.
Grand piste et enfilade de sentiers, remontées, chemins typiques ardéchois et depuis Ct Cierge un single de folie pour redescendre côté Eyrieux.]]></desc>
  </metadata>
  <trk>
    <name><![CDATA[2009-11-14 Ardbike-LaVoulte]]></name>
    <trkseg>
      <trkpt lat="44.8006" lon="4.7815">
        <ele>97</ele>
        <time>2009-03-29T05:59:04Z</time>
      </trkpt>
      <trkpt lat="44.80067" lon="4.78167">
        <ele>96</ele>
        <time>2009-03-29T05:59:12Z</time>
      </trkpt>
      <trkpt lat="44.80073" lon="4.78164">
        <ele>96</ele>
        <time>2009-03-29T05:59:17Z</time>
      </trkpt>
      <trkpt lat="44.80083" lon="4.7816">
        <ele>97</ele>
        <time>2009-03-29T05:59:21Z</time>
      </trkpt>
      <trkpt lat="44.80101" lon="4.78145">
        <ele>98</ele>
        <time>2009-03-29T05:59:28Z</time>
      </trkpt>
      <trkpt lat="44.80115" lon="4.78137">
        <ele>98</ele>
        <time>2009-03-29T05:59:33Z</time>
      </trkpt>
      <trkpt lat="44.80132" lon="4.7813">
        <ele>97</ele>
        <time>2009-03-29T05:59:39Z</time>
      </trkpt>
      <trkpt lat="44.80149" lon="4.78127">
        <ele>97</ele>
        <time>2009-03-29T05:59:44Z</time>
      </trkpt>
      <trkpt lat="44.80153" lon="4.78101">
        <ele>98</ele>
        <time>2009-03-29T05:59:50Z</time>
      </trkpt>
      <trkpt lat="44.80152" lon="4.78079">
        <ele>98</ele>
        <time>2009-03-29T05:59:55Z</time>
      </trkpt>
      <trkpt lat="44.80149" lon="4.78056">
        <ele>99</ele>
        <time>2009-03-29T05:59:59Z</time>
      </trkpt>
      <trkpt lat="44.80155" lon="4.78028">
        <ele>100</ele>
        <time>2009-03-29T06:00:04Z</time>
      </trkpt>
      <trkpt lat="44.80159" lon="4.7802">
        <ele>99</ele>
        <time>2009-03-29T06:00:06Z</time>
      </trkpt>
      <trkpt lat="44.80198" lon="4.77986">
        <ele>97</ele>
        <time>2009-03-29T06:00:17Z</time>
      </trkpt>
      <trkpt lat="44.8021" lon="4.77973">
        <ele>97</ele>
        <time>2009-03-29T06:00:21Z</time>
      </trkpt>
      <trkpt lat="44.80238" lon="4.77963">
        <ele>96</ele>
        <time>2009-03-29T06:00:28Z</time>
      </trkpt>
      <trkpt lat="44.80243" lon="4.77962">
        <ele>95</ele>
        <time>2009-03-29T06:00:29Z</time>
      </trkpt>
      <trkpt lat="44.80281" lon="4.77963">
        <ele>94</ele>
        <time>2009-03-29T06:00:37Z</time>
      </trkpt>
      <trkpt lat="44.80313" lon="4.77974">
        <ele>94</ele>
        <time>2009-03-29T06:00:45Z</time>
      </trkpt>
      <trkpt lat="44.80315" lon="4.77976">
        <ele>94</ele>
        <time>2009-03-29T06:00:49Z</time>
      </trkpt>
      <trkpt lat="44.80318" lon="4.77976">
        <ele>94</ele>
        <time>2009-03-29T06:01:06Z</time>
      </trkpt>
      <trkpt lat="44.80334" lon="4.77985">
        <ele>94</ele>
        <time>2009-03-29T06:01:10Z</time>
      </trkpt>
      <trkpt lat="44.80339" lon="4.77987">
        <ele>94</ele>
        <time>2009-03-29T06:01:11Z</time>
      </trkpt>
      <trkpt lat="44.80353" lon="4.77996">
        <ele>94</ele>
        <time>2009-03-29T06:01:14Z</time>
      </trkpt>
      <trkpt lat="44.80396" lon="4.78035">
        <ele>95</ele>
        <time>2009-03-29T06:01:23Z</time>
      </trkpt>
      <trkpt lat="44.80428" lon="4.78066">
        <ele>95</ele>
        <time>2009-03-29T06:01:31Z</time>
      </trkpt>
      <trkpt lat="44.80455" lon="4.78099">
        <ele>95</ele>
        <time>2009-03-29T06:01:38Z</time>
      </trkpt>
      <trkpt lat="44.80474" lon="4.78127">
        <ele>95</ele>
        <time>2009-03-29T06:01:43Z</time>
      </trkpt>
      <trkpt lat="44.80495" lon="4.78163">
        <ele>95</ele>
        <time>2009-03-29T06:01:50Z</time>
      </trkpt>
      <trkpt lat="44.80514" lon="4.78203">
        <ele>95</ele>
        <time>2009-03-29T06:01:58Z</time>
      </trkpt>
      <trkpt lat="44.80532" lon="4.78231">
        <ele>96</ele>
        <time>2009-03-29T06:02:05Z</time>
      </trkpt>
      <trkpt lat="44.80534" lon="4.78234">
        <ele>96</ele>
        <time>2009-03-29T06:02:06Z</time>
      </trkpt>
      <trkpt lat="44.80547" lon="4.78226">
        <ele>95</ele>
        <time>2009-03-29T06:02:11Z</time>
      </trkpt>
      <trkpt lat="44.80566" lon="4.78209">
        <ele>95</ele>
        <time>2009-03-29T06:02:17Z</time>
      </trkpt>
      <trkpt lat="44.80592" lon="4.78208">
        <ele>95</ele>
        <time>2009-03-29T06:02:23Z</time>
      </trkpt>
      <trkpt lat="44.80614" lon="4.78204">
        <ele>95</ele>
        <time>2009-03-29T06:02:29Z</time>
      </trkpt>
      <trkpt lat="44.80635" lon="4.78199">
        <ele>96</ele>
        <time>2009-03-29T06:02:34Z</time>
      </trkpt>
      <trkpt lat="44.80656" lon="4.78187">
        <ele>96</ele>
        <time>2009-03-29T06:02:40Z</time>
      </trkpt>
      <trkpt lat="44.80668" lon="4.78171">
        <ele>97</ele>
        <time>2009-03-29T06:02:45Z</time>
      </trkpt>
      <trkpt lat="44.80677" lon="4.78156">
        <ele>98</ele>
        <time>2009-03-29T06:02:50Z</time>
      </trkpt>
      <trkpt lat="44.80678" lon="4.78152">
        <ele>98</ele>
        <time>2009-03-29T06:02:52Z</time>
      </trkpt>
      <trkpt lat="44.80684" lon="4.78159">
        <ele>98</ele>
        <time>2009-03-29T06:02:57Z</time>
      </trkpt>
      <trkpt lat="44.8069" lon="4.78176">
        <ele>97</ele>
        <time>2009-03-29T06:03:02Z</time>
      </trkpt>
      <trkpt lat="44.80698" lon="4.78207">
        <ele>97</ele>
        <time>2009-03-29T06:03:09Z</time>
      </trkpt>
      <trkpt lat="44.80704" lon="4.78226">
        <ele>96</ele>
        <time>2009-03-29T06:03:14Z</time>
      </trkpt>
      <trkpt lat="44.80721" lon="4.7824">
        <ele>96</ele>
        <time>2009-03-29T06:03:20Z</time>
      </trkpt>
      <trkpt lat="44.80723" lon="4.78242">
        <ele>96</ele>
        <time>2009-03-29T06:03:21Z</time>
      </trkpt>
      <trkpt lat="44.80734" lon="4.78269">
        <ele>95</ele>
        <time>2009-03-29T06:03:26Z</time>
      </trkpt>
      <trkpt lat="44.80739" lon="4.78282">
        <ele>95</ele>
        <time>2009-03-29T06:03:28Z</time>
      </trkpt>
      <trkpt lat="44.80755" lon="4.7832">
        <ele>94</ele>
        <time>2009-03-29T06:03:35Z</time>
      </trkpt>
      <trkpt lat="44.80769" lon="4.7836">
        <ele>94</ele>
        <time>2009-03-29T06:03:43Z</time>
      </trkpt>
      <trkpt lat="44.80778" lon="4.7839">
        <ele>94</ele>
        <time>2009-03-29T06:03:50Z</time>
      </trkpt>
      <trkpt lat="44.80789" lon="4.78422">
        <ele>95</ele>
        <time>2009-03-29T06:03:57Z</time>
      </trkpt>
      <trkpt lat="44.80803" lon="4.78458">
        <ele>96</ele>
        <time>2009-03-29T06:04:05Z</time>
      </trkpt>
      <trkpt lat="44.80816" lon="4.78484">
        <ele>96</ele>
        <time>2009-03-29T06:04:12Z</time>
      </trkpt>
      <trkpt lat="44.80825" lon="4.78482">
        <ele>96</ele>
        <time>2009-03-29T06:04:16Z</time>
      </trkpt>
      <trkpt lat="44.80855" lon="4.78454">
        <ele>98</ele>
        <time>2009-03-29T06:04:27Z</time>
      </trkpt>
      <trkpt lat="44.80872" lon="4.7844">
        <ele>99</ele>
        <time>2009-03-29T06:04:33Z</time>
      </trkpt>
      <trkpt lat="44.8089" lon="4.7842">
        <ele>100</ele>
        <time>2009-03-29T06:04:40Z</time>
      </trkpt>
      <trkpt lat="44.80895" lon="4.78415">
        <ele>100</ele>
        <time>2009-03-29T06:04:43Z</time>
      </trkpt>
      <trkpt lat="44.80902" lon="4.78421">
        <ele>100</ele>
        <time>2009-03-29T06:04:47Z</time>
      </trkpt>
      <trkpt lat="44.80903" lon="4.78428">
        <ele>100</ele>
        <time>2009-03-29T06:04:49Z</time>
      </trkpt>
      <trkpt lat="44.80908" lon="4.78465">
        <ele>101</ele>
        <time>2009-03-29T06:04:58Z</time>
      </trkpt>
      <trkpt lat="44.80912" lon="4.78463">
        <ele>101</ele>
        <time>2009-03-29T06:05:02Z</time>
      </trkpt>
      <trkpt lat="44.80907" lon="4.78422">
        <ele>101</ele>
        <time>2009-03-29T06:05:10Z</time>
      </trkpt>
      <trkpt lat="44.80904" lon="4.78387">
        <ele>102</ele>
        <time>2009-03-29T06:05:17Z</time>
      </trkpt>
      <trkpt lat="44.80915" lon="4.78367">
        <ele>103</ele>
        <time>2009-03-29T06:05:23Z</time>
      </trkpt>
      <trkpt lat="44.80934" lon="4.78348">
        <ele>106</ele>
        <time>2009-03-29T06:05:31Z</time>
      </trkpt>
      <trkpt lat="44.80952" lon="4.78327">
        <ele>108</ele>
        <time>2009-03-29T06:05:40Z</time>
      </trkpt>
      <trkpt lat="44.80966" lon="4.7831">
        <ele>111</ele>
        <time>2009-03-29T06:05:48Z</time>
      </trkpt>
      <trkpt lat="44.80981" lon="4.7829">
        <ele>113</ele>
        <time>2009-03-29T06:05:57Z</time>
      </trkpt>
      <trkpt lat="44.80991" lon="4.78275">
        <ele>115</ele>
        <time>2009-03-29T06:06:03Z</time>
      </trkpt>
      <trkpt lat="44.80996" lon="4.78265">
        <ele>116</ele>
        <time>2009-03-29T06:06:07Z</time>
      </trkpt>
      <trkpt lat="44.81002" lon="4.78269">
        <ele>116</ele>
        <time>2009-03-29T06:06:11Z</time>
      </trkpt>
      <trkpt lat="44.81003" lon="4.78272">
        <ele>116</ele>
        <time>2009-03-29T06:06:12Z</time>
      </trkpt>
      <trkpt lat="44.81005" lon="4.78297">
        <ele>115</ele>
        <time>2009-03-29T06:06:20Z</time>
      </trkpt>
      <trkpt lat="44.81006" lon="4.78316">
        <ele>114</ele>
        <time>2009-03-29T06:06:27Z</time>
      </trkpt>
      <trkpt lat="44.8101" lon="4.78317">
        <ele>114</ele>
        <time>2009-03-29T06:06:32Z</time>
      </trkpt>
      <trkpt lat="44.8102" lon="4.78298">
        <ele>116</ele>
        <time>2009-03-29T06:06:43Z</time>
      </trkpt>
      <trkpt lat="44.81029" lon="4.78282">
        <ele>118</ele>
        <time>2009-03-29T06:06:52Z</time>
      </trkpt>
      <trkpt lat="44.81034" lon="4.78276">
        <ele>119</ele>
        <time>2009-03-29T06:06:56Z</time>
      </trkpt>
      <trkpt lat="44.81037" lon="4.78255">
        <ele>121</ele>
        <time>2009-03-29T06:07:05Z</time>
      </trkpt>
      <trkpt lat="44.81042" lon="4.7824">
        <ele>123</ele>
        <time>2009-03-29T06:07:12Z</time>
      </trkpt>
      <trkpt lat="44.81047" lon="4.78227">
        <ele>125</ele>
        <time>2009-03-29T06:07:19Z</time>
      </trkpt>
      <trkpt lat="44.8105" lon="4.78217">
        <ele>126</ele>
        <time>2009-03-29T06:07:24Z</time>
      </trkpt>
      <trkpt lat="44.81055" lon="4.78199">
        <ele>128</ele>
        <time>2009-03-29T06:07:31Z</time>
      </trkpt>
      <trkpt lat="44.81059" lon="4.78181">
        <ele>131</ele>
        <time>2009-03-29T06:07:39Z</time>
      </trkpt>
      <trkpt lat="44.8106" lon="4.78163">
        <ele>132</ele>
        <time>2009-03-29T06:07:46Z</time>
      </trkpt>
      <trkpt lat="44.81069" lon="4.78144">
        <ele>134</ele>
        <time>2009-03-29T06:07:55Z</time>
      </trkpt>
      <trkpt lat="44.81079" lon="4.78126">
        <ele>136</ele>
        <time>2009-03-29T06:08:04Z</time>
      </trkpt>
      <trkpt lat="44.81088" lon="4.78105">
        <ele>138</ele>
        <time>2009-03-29T06:08:14Z</time>
      </trkpt>
      <trkpt lat="44.81096" lon="4.78086">
        <ele>140</ele>
        <time>2009-03-29T06:08:23Z</time>
      </trkpt>
      <trkpt lat="44.81103" lon="4.78072">
        <ele>142</ele>
        <time>2009-03-29T06:08:30Z</time>
      </trkpt>
      <trkpt lat="44.81111" lon="4.78055">
        <ele>145</ele>
        <time>2009-03-29T06:08:38Z</time>
      </trkpt>
      <trkpt lat="44.81113" lon="4.78038">
        <ele>147</ele>
        <time>2009-03-29T06:08:45Z</time>
      </trkpt>
      <trkpt lat="44.8111" lon="4.78031">
        <ele>147</ele>
        <time>2009-03-29T06:08:48Z</time>
      </trkpt>
      <trkpt lat="44.81099" lon="4.78032">
        <ele>146</ele>
        <time>2009-03-29T06:08:55Z</time>
      </trkpt>
      <trkpt lat="44.81093" lon="4.78039">
        <ele>144</ele>
        <time>2009-03-29T06:08:58Z</time>
      </trkpt>
      <trkpt lat="44.81078" lon="4.78051">
        <ele>142</ele>
        <time>2009-03-29T06:09:06Z</time>
      </trkpt>
      <trkpt lat="44.81058" lon="4.7805">
        <ele>142</ele>
        <time>2009-03-29T06:09:14Z</time>
      </trkpt>
      <trkpt lat="44.81048" lon="4.7804">
        <ele>143</ele>
        <time>2009-03-29T06:09:20Z</time>
      </trkpt>
      <trkpt lat="44.81044" lon="4.78028">
        <ele>144</ele>
        <time>2009-03-29T06:09:26Z</time>
      </trkpt>
      <trkpt lat="44.81037" lon="4.78009">
        <ele>146</ele>
        <time>2009-03-29T06:09:36Z</time>
      </trkpt>
      <trkpt lat="44.8103" lon="4.77991">
        <ele>148</ele>
        <time>2009-03-29T06:09:45Z</time>
      </trkpt>
      <trkpt lat="44.81022" lon="4.77971">
        <ele>149</ele>
        <time>2009-03-29T06:09:55Z</time>
      </trkpt>
      <trkpt lat="44.81018" lon="4.77952">
        <ele>151</ele>
        <time>2009-03-29T06:10:04Z</time>
      </trkpt>
      <trkpt lat="44.81023" lon="4.77934">
        <ele>152</ele>
        <time>2009-03-29T06:10:13Z</time>
      </trkpt>
      <trkpt lat="44.81033" lon="4.77913">
        <ele>155</ele>
        <time>2009-03-29T06:10:24Z</time>
      </trkpt>
      <trkpt lat="44.81041" lon="4.77898">
        <ele>158</ele>
        <time>2009-03-29T06:10:33Z</time>
      </trkpt>
      <trkpt lat="44.8105" lon="4.77895">
        <ele>159</ele>
        <time>2009-03-29T06:10:39Z</time>
      </trkpt>
      <trkpt lat="44.81065" lon="4.77893">
        <ele>161</ele>
        <time>2009-03-29T06:10:49Z</time>
      </trkpt>
      <trkpt lat="44.81076" lon="4.77887">
        <ele>163</ele>
        <time>2009-03-29T06:10:57Z</time>
      </trkpt>
      <trkpt lat="44.81089" lon="4.77872">
        <ele>167</ele>
        <time>2009-03-29T06:11:08Z</time>
      </trkpt>
      <trkpt lat="44.81089" lon="4.7786">
        <ele>170</ele>
        <time>2009-03-29T06:11:14Z</time>
      </trkpt>
      <trkpt lat="44.81082" lon="4.77854">
        <ele>170</ele>
        <time>2009-03-29T06:11:20Z</time>
      </trkpt>
      <trkpt lat="44.81069" lon="4.77853">
        <ele>168</ele>
        <time>2009-03-29T06:11:29Z</time>
      </trkpt>
      <trkpt lat="44.81056" lon="4.77847">
        <ele>168</ele>
        <time>2009-03-29T06:11:38Z</time>
      </trkpt>
      <trkpt lat="44.81045" lon="4.77834">
        <ele>168</ele>
        <time>2009-03-29T06:11:47Z</time>
      </trkpt>
      <trkpt lat="44.81034" lon="4.77823">
        <ele>169</ele>
        <time>2009-03-29T06:11:56Z</time>
      </trkpt>
      <trkpt lat="44.81026" lon="4.77815">
        <ele>169</ele>
        <time>2009-03-29T06:12:03Z</time>
      </trkpt>
      <trkpt lat="44.8102" lon="4.77806">
        <ele>170</ele>
        <time>2009-03-29T06:12:09Z</time>
      </trkpt>
      <trkpt lat="44.81023" lon="4.77794">
        <ele>173</ele>
        <time>2009-03-29T06:12:16Z</time>
      </trkpt>
      <trkpt lat="44.81025" lon="4.77794">
        <ele>174</ele>
        <time>2009-03-29T06:12:17Z</time>
      </trkpt>
      <trkpt lat="44.81028" lon="4.77794">
        <ele>174</ele>
        <time>2009-03-29T06:12:19Z</time>
      </trkpt>
      <trkpt lat="44.81042" lon="4.77803">
        <ele>174</ele>
        <time>2009-03-29T06:12:29Z</time>
      </trkpt>
      <trkpt lat="44.81055" lon="4.77805">
        <ele>175</ele>
        <time>2009-03-29T06:12:38Z</time>
      </trkpt>
      <trkpt lat="44.81056" lon="4.77805">
        <ele>175</ele>
        <time>2009-03-29T06:12:39Z</time>
      </trkpt>
      <trkpt lat="44.81066" lon="4.77804">
        <ele>177</ele>
        <time>2009-03-29T06:12:46Z</time>
      </trkpt>
      <trkpt lat="44.81076" lon="4.77797">
        <ele>180</ele>
        <time>2009-03-29T06:12:53Z</time>
      </trkpt>
      <trkpt lat="44.81086" lon="4.77788">
        <ele>183</ele>
        <time>2009-03-29T06:13:01Z</time>
      </trkpt>
      <trkpt lat="44.81093" lon="4.77776">
        <ele>186</ele>
        <time>2009-03-29T06:13:08Z</time>
      </trkpt>
      <trkpt lat="44.81098" lon="4.77763">
        <ele>188</ele>
        <time>2009-03-29T06:13:15Z</time>
      </trkpt>
      <trkpt lat="44.81104" lon="4.77745">
        <ele>192</ele>
        <time>2009-03-29T06:13:24Z</time>
      </trkpt>
      <trkpt lat="44.81107" lon="4.77727">
        <ele>196</ele>
        <time>2009-03-29T06:13:32Z</time>
      </trkpt>
      <trkpt lat="44.81111" lon="4.77708">
        <ele>200</ele>
        <time>2009-03-29T06:13:41Z</time>
      </trkpt>
      <trkpt lat="44.81115" lon="4.77693">
        <ele>203</ele>
        <time>2009-03-29T06:13:48Z</time>
      </trkpt>
      <trkpt lat="44.81119" lon="4.77672">
        <ele>207</ele>
        <time>2009-03-29T06:13:57Z</time>
      </trkpt>
      <trkpt lat="44.81119" lon="4.7767">
        <ele>207</ele>
        <time>2009-03-29T06:13:58Z</time>
      </trkpt>
      <trkpt lat="44.81123" lon="4.77665">
        <ele>209</ele>
        <time>2009-03-29T06:14:02Z</time>
      </trkpt>
      <trkpt lat="44.81133" lon="4.77671">
        <ele>209</ele>
        <time>2009-03-29T06:14:08Z</time>
      </trkpt>
      <trkpt lat="44.81141" lon="4.77694">
        <ele>205</ele>
        <time>2009-03-29T06:14:18Z</time>
      </trkpt>
      <trkpt lat="44.81147" lon="4.77709">
        <ele>203</ele>
        <time>2009-03-29T06:14:25Z</time>
      </trkpt>
      <trkpt lat="44.81154" lon="4.77722">
        <ele>202</ele>
        <time>2009-03-29T06:14:32Z</time>
      </trkpt>
      <trkpt lat="44.81166" lon="4.77735">
        <ele>201</ele>
        <time>2009-03-29T06:14:41Z</time>
      </trkpt>
      <trkpt lat="44.81169" lon="4.77748">
        <ele>199</ele>
        <time>2009-03-29T06:14:47Z</time>
      </trkpt>
      <trkpt lat="44.8117" lon="4.77768">
        <ele>197</ele>
        <time>2009-03-29T06:14:56Z</time>
      </trkpt>
      <trkpt lat="44.81175" lon="4.77793">
        <ele>196</ele>
        <time>2009-03-29T06:15:07Z</time>
      </trkpt>
      <trkpt lat="44.81182" lon="4.77812">
        <ele>196</ele>
        <time>2009-03-29T06:15:16Z</time>
      </trkpt>
      <trkpt lat="44.81183" lon="4.77816">
        <ele>196</ele>
        <time>2009-03-29T06:15:18Z</time>
      </trkpt>
      <trkpt lat="44.81195" lon="4.77823">
        <ele>200</ele>
        <time>2009-03-29T06:15:27Z</time>
      </trkpt>
      <trkpt lat="44.81206" lon="4.77823">
        <ele>204</ele>
        <time>2009-03-29T06:15:34Z</time>
      </trkpt>
      <trkpt lat="44.81216" lon="4.77823">
        <ele>208</ele>
        <time>2009-03-29T06:15:41Z</time>
      </trkpt>
      <trkpt lat="44.81227" lon="4.77829">
        <ele>212</ele>
        <time>2009-03-29T06:15:49Z</time>
      </trkpt>
      <trkpt lat="44.81232" lon="4.77842">
        <ele>211</ele>
        <time>2009-03-29T06:15:56Z</time>
      </trkpt>
      <trkpt lat="44.81233" lon="4.77864">
        <ele>207</ele>
        <time>2009-03-29T06:16:06Z</time>
      </trkpt>
      <trkpt lat="44.81234" lon="4.77882">
        <ele>204</ele>
        <time>2009-03-29T06:16:14Z</time>
      </trkpt>
      <trkpt lat="44.81236" lon="4.77896">
        <ele>202</ele>
        <time>2009-03-29T06:16:21Z</time>
      </trkpt>
      <trkpt lat="44.81242" lon="4.77909">
        <ele>202</ele>
        <time>2009-03-29T06:16:29Z</time>
      </trkpt>
      <trkpt lat="44.81253" lon="4.77916">
        <ele>204</ele>
        <time>2009-03-29T06:16:38Z</time>
      </trkpt>
      <trkpt lat="44.81263" lon="4.7792">
        <ele>205</ele>
        <time>2009-03-29T06:16:45Z</time>
      </trkpt>
      <trkpt lat="44.81278" lon="4.77927">
        <ele>207</ele>
        <time>2009-03-29T06:16:55Z</time>
      </trkpt>
      <trkpt lat="44.81292" lon="4.77929">
        <ele>209</ele>
        <time>2009-03-29T06:17:03Z</time>
      </trkpt>
      <trkpt lat="44.81302" lon="4.77932">
        <ele>211</ele>
        <time>2009-03-29T06:17:10Z</time>
      </trkpt>
      <trkpt lat="44.81313" lon="4.77935">
        <ele>212</ele>
        <time>2009-03-29T06:17:17Z</time>
      </trkpt>
      <trkpt lat="44.8133" lon="4.77938">
        <ele>215</ele>
        <time>2009-03-29T06:17:27Z</time>
      </trkpt>
      <trkpt lat="44.81342" lon="4.77937">
        <ele>216</ele>
        <time>2009-03-29T06:17:35Z</time>
      </trkpt>
      <trkpt lat="44.81356" lon="4.77937">
        <ele>215</ele>
        <time>2009-03-29T06:17:43Z</time>
      </trkpt>
      <trkpt lat="44.81377" lon="4.77939">
        <ele>212</ele>
        <time>2009-03-29T06:17:53Z</time>
      </trkpt>
      <trkpt lat="44.81391" lon="4.77935">
        <ele>212</ele>
        <time>2009-03-29T06:18:00Z</time>
      </trkpt>
      <trkpt lat="44.81399" lon="4.77923">
        <ele>214</ele>
        <time>2009-03-29T06:18:06Z</time>
      </trkpt>
      <trkpt lat="44.81404" lon="4.77905">
        <ele>215</ele>
        <time>2009-03-29T06:18:13Z</time>
      </trkpt>
      <trkpt lat="44.81404" lon="4.77886">
        <ele>216</ele>
        <time>2009-03-29T06:18:21Z</time>
      </trkpt>
      <trkpt lat="44.81401" lon="4.77872">
        <ele>217</ele>
        <time>2009-03-29T06:18:28Z</time>
      </trkpt>
      <trkpt lat="44.81399" lon="4.77855">
        <ele>218</ele>
        <time>2009-03-29T06:18:36Z</time>
      </trkpt>
      <trkpt lat="44.81395" lon="4.7784">
        <ele>220</ele>
        <time>2009-03-29T06:18:43Z</time>
      </trkpt>
      <trkpt lat="44.81398" lon="4.77827">
        <ele>220</ele>
        <time>2009-03-29T06:18:49Z</time>
      </trkpt>
      <trkpt lat="44.81401" lon="4.77811">
        <ele>220</ele>
        <time>2009-03-29T06:18:56Z</time>
      </trkpt>
      <trkpt lat="44.81401" lon="4.77796">
        <ele>220</ele>
        <time>2009-03-29T06:19:03Z</time>
      </trkpt>
      <trkpt lat="44.81401" lon="4.7778">
        <ele>221</ele>
        <time>2009-03-29T06:19:11Z</time>
      </trkpt>
      <trkpt lat="44.81398" lon="4.77763">
        <ele>223</ele>
        <time>2009-03-29T06:19:20Z</time>
      </trkpt>
      <trkpt lat="44.81397" lon="4.77753">
        <ele>224</ele>
        <time>2009-03-29T06:19:26Z</time>
      </trkpt>
      <trkpt lat="44.81395" lon="4.77737">
        <ele>225</ele>
        <time>2009-03-29T06:19:33Z</time>
      </trkpt>
      <trkpt lat="44.81396" lon="4.77724">
        <ele>225</ele>
        <time>2009-03-29T06:19:39Z</time>
      </trkpt>
      <trkpt lat="44.81395" lon="4.77707">
        <ele>225</ele>
        <time>2009-03-29T06:19:47Z</time>
      </trkpt>
      <trkpt lat="44.81392" lon="4.777">
        <ele>227</ele>
        <time>2009-03-29T06:19:51Z</time>
      </trkpt>
      <trkpt lat="44.81387" lon="4.77683">
        <ele>230</ele>
        <time>2009-03-29T06:20:01Z</time>
      </trkpt>
      <trkpt lat="44.81383" lon="4.77673">
        <ele>232</ele>
        <time>2009-03-29T06:20:08Z</time>
      </trkpt>
      <trkpt lat="44.81378" lon="4.7766">
        <ele>234</ele>
        <time>2009-03-29T06:20:15Z</time>
      </trkpt>
      <trkpt lat="44.81373" lon="4.77648">
        <ele>236</ele>
        <time>2009-03-29T06:20:23Z</time>
      </trkpt>
      <trkpt lat="44.81366" lon="4.77635">
        <ele>239</ele>
        <time>2009-03-29T06:20:31Z</time>
      </trkpt>
      <trkpt lat="44.81355" lon="4.77616">
        <ele>243</ele>
        <time>2009-03-29T06:20:40Z</time>
      </trkpt>
      <trkpt lat="44.81343" lon="4.77597">
        <ele>247</ele>
        <time>2009-03-29T06:20:50Z</time>
      </trkpt>
      <trkpt lat="44.81335" lon="4.77581">
        <ele>250</ele>
        <time>2009-03-29T06:20:59Z</time>
      </trkpt>
      <trkpt lat="44.81331" lon="4.7757">
        <ele>251</ele>
        <time>2009-03-29T06:21:06Z</time>
      </trkpt>
      <trkpt lat="44.81327" lon="4.77557">
        <ele>252</ele>
        <time>2009-03-29T06:21:14Z</time>
      </trkpt>
      <trkpt lat="44.81323" lon="4.77544">
        <ele>252</ele>
        <time>2009-03-29T06:21:22Z</time>
      </trkpt>
      <trkpt lat="44.81319" lon="4.77528">
        <ele>253</ele>
        <time>2009-03-29T06:21:31Z</time>
      </trkpt>
      <trkpt lat="44.81316" lon="4.77516">
        <ele>254</ele>
        <time>2009-03-29T06:21:38Z</time>
      </trkpt>
      <trkpt lat="44.81311" lon="4.77501">
        <ele>256</ele>
        <time>2009-03-29T06:21:46Z</time>
      </trkpt>
      <trkpt lat="44.81308" lon="4.77488">
        <ele>257</ele>
        <time>2009-03-29T06:21:53Z</time>
      </trkpt>
      <trkpt lat="44.81307" lon="4.77483">
        <ele>257</ele>
        <time>2009-03-29T06:21:56Z</time>
      </trkpt>
      <trkpt lat="44.81301" lon="4.77461">
        <ele>259</ele>
        <time>2009-03-29T06:22:07Z</time>
      </trkpt>
      <trkpt lat="44.81298" lon="4.77447">
        <ele>261</ele>
        <time>2009-03-29T06:22:14Z</time>
      </trkpt>
      <trkpt lat="44.81296" lon="4.77433">
        <ele>262</ele>
        <time>2009-03-29T06:22:21Z</time>
      </trkpt>
      <trkpt lat="44.81296" lon="4.77418">
        <ele>263</ele>
        <time>2009-03-29T06:22:28Z</time>
      </trkpt>
      <trkpt lat="44.81297" lon="4.77402">
        <ele>265</ele>
        <time>2009-03-29T06:22:36Z</time>
      </trkpt>
      <trkpt lat="44.81299" lon="4.77383">
        <ele>267</ele>
        <time>2009-03-29T06:22:45Z</time>
      </trkpt>
      <trkpt lat="44.81301" lon="4.77367">
        <ele>269</ele>
        <time>2009-03-29T06:22:53Z</time>
      </trkpt>
      <trkpt lat="44.81303" lon="4.7735">
        <ele>270</ele>
        <time>2009-03-29T06:23:01Z</time>
      </trkpt>
      <trkpt lat="44.81306" lon="4.77329">
        <ele>272</ele>
        <time>2009-03-29T06:23:11Z</time>
      </trkpt>
      <trkpt lat="44.81308" lon="4.77309">
        <ele>273</ele>
        <time>2009-03-29T06:23:20Z</time>
      </trkpt>
      <trkpt lat="44.81308" lon="4.77294">
        <ele>274</ele>
        <time>2009-03-29T06:23:27Z</time>
      </trkpt>
      <trkpt lat="44.81306" lon="4.77278">
        <ele>277</ele>
        <time>2009-03-29T06:23:35Z</time>
      </trkpt>
      <trkpt lat="44.81302" lon="4.7726">
        <ele>280</ele>
        <time>2009-03-29T06:23:44Z</time>
      </trkpt>
      <trkpt lat="44.81297" lon="4.77242">
        <ele>285</ele>
        <time>2009-03-29T06:23:53Z</time>
      </trkpt>
      <trkpt lat="44.81293" lon="4.77226">
        <ele>289</ele>
        <time>2009-03-29T06:24:00Z</time>
      </trkpt>
      <trkpt lat="44.81292" lon="4.77209">
        <ele>291</ele>
        <time>2009-03-29T06:24:08Z</time>
      </trkpt>
      <trkpt lat="44.81299" lon="4.77193">
        <ele>291</ele>
        <time>2009-03-29T06:24:17Z</time>
      </trkpt>
      <trkpt lat="44.81311" lon="4.77187">
        <ele>286</ele>
        <time>2009-03-29T06:24:25Z</time>
      </trkpt>
      <trkpt lat="44.81322" lon="4.77179">
        <ele>283</ele>
        <time>2009-03-29T06:24:33Z</time>
      </trkpt>
      <trkpt lat="44.81325" lon="4.77166">
        <ele>284</ele>
        <time>2009-03-29T06:24:40Z</time>
      </trkpt>
      <trkpt lat="44.81326" lon="4.77151">
        <ele>287</ele>
        <time>2009-03-29T06:24:48Z</time>
      </trkpt>
      <trkpt lat="44.81327" lon="4.77134">
        <ele>289</ele>
        <time>2009-03-29T06:24:57Z</time>
      </trkpt>
      <trkpt lat="44.81327" lon="4.77119">
        <ele>292</ele>
        <time>2009-03-29T06:25:05Z</time>
      </trkpt>
      <trkpt lat="44.81328" lon="4.77101">
        <ele>295</ele>
        <time>2009-03-29T06:25:14Z</time>
      </trkpt>
      <trkpt lat="44.81332" lon="4.77084">
        <ele>296</ele>
        <time>2009-03-29T06:25:23Z</time>
      </trkpt>
      <trkpt lat="44.81336" lon="4.77066">
        <ele>297</ele>
        <time>2009-03-29T06:25:32Z</time>
      </trkpt>
      <trkpt lat="44.81338" lon="4.77049">
        <ele>297</ele>
        <time>2009-03-29T06:25:41Z</time>
      </trkpt>
      <trkpt lat="44.81339" lon="4.77034">
        <ele>298</ele>
        <time>2009-03-29T06:25:49Z</time>
      </trkpt>
      <trkpt lat="44.81339" lon="4.77023">
        <ele>300</ele>
        <time>2009-03-29T06:25:55Z</time>
      </trkpt>
      <trkpt lat="44.81336" lon="4.77004">
        <ele>302</ele>
        <time>2009-03-29T06:26:04Z</time>
      </trkpt>
      <trkpt lat="44.81333" lon="4.76985">
        <ele>305</ele>
        <time>2009-03-29T06:26:13Z</time>
      </trkpt>
      <trkpt lat="44.81326" lon="4.76975">
        <ele>308</ele>
        <time>2009-03-29T06:26:20Z</time>
      </trkpt>
      <trkpt lat="44.81319" lon="4.76964">
        <ele>311</ele>
        <time>2009-03-29T06:26:29Z</time>
      </trkpt>
      <trkpt lat="44.81319" lon="4.76962">
        <ele>312</ele>
        <time>2009-03-29T06:26:30Z</time>
      </trkpt>
      <trkpt lat="44.81324" lon="4.76947">
        <ele>312</ele>
        <time>2009-03-29T06:26:38Z</time>
      </trkpt>
      <trkpt lat="44.81332" lon="4.76936">
        <ele>310</ele>
        <time>2009-03-29T06:26:46Z</time>
      </trkpt>
      <trkpt lat="44.8134" lon="4.76923">
        <ele>310</ele>
        <time>2009-03-29T06:26:54Z</time>
      </trkpt>
      <trkpt lat="44.81343" lon="4.76911">
        <ele>310</ele>
        <time>2009-03-29T06:27:01Z</time>
      </trkpt>
      <trkpt lat="44.81343" lon="4.76895">
        <ele>311</ele>
        <time>2009-03-29T06:27:09Z</time>
      </trkpt>
      <trkpt lat="44.81343" lon="4.76877">
        <ele>312</ele>
        <time>2009-03-29T06:27:17Z</time>
      </trkpt>
      <trkpt lat="44.81343" lon="4.76865">
        <ele>313</ele>
        <time>2009-03-29T06:27:23Z</time>
      </trkpt>
      <trkpt lat="44.81339" lon="4.76852">
        <ele>314</ele>
        <time>2009-03-29T06:27:30Z</time>
      </trkpt>
      <trkpt lat="44.81338" lon="4.76837">
        <ele>315</ele>
        <time>2009-03-29T06:27:37Z</time>
      </trkpt>
      <trkpt lat="44.81335" lon="4.76823">
        <ele>317</ele>
        <time>2009-03-29T06:27:44Z</time>
      </trkpt>
      <trkpt lat="44.81332" lon="4.76805">
        <ele>318</ele>
        <time>2009-03-29T06:27:53Z</time>
      </trkpt>
      <trkpt lat="44.81331" lon="4.7679">
        <ele>319</ele>
        <time>2009-03-29T06:28:00Z</time>
      </trkpt>
      <trkpt lat="44.8133" lon="4.76774">
        <ele>320</ele>
        <time>2009-03-29T06:28:08Z</time>
      </trkpt>
      <trkpt lat="44.81328" lon="4.76763">
        <ele>321</ele>
        <time>2009-03-29T06:28:13Z</time>
      </trkpt>
      <trkpt lat="44.81327" lon="4.76745">
        <ele>323</ele>
        <time>2009-03-29T06:28:22Z</time>
      </trkpt>
      <trkpt lat="44.81323" lon="4.76733">
        <ele>324</ele>
        <time>2009-03-29T06:28:29Z</time>
      </trkpt>
      <trkpt lat="44.81313" lon="4.76726">
        <ele>326</ele>
        <time>2009-03-29T06:28:36Z</time>
      </trkpt>
      <trkpt lat="44.81303" lon="4.76726">
        <ele>328</ele>
        <time>2009-03-29T06:28:42Z</time>
      </trkpt>
      <trkpt lat="44.81293" lon="4.76728">
        <ele>330</ele>
        <time>2009-03-29T06:28:48Z</time>
      </trkpt>
      <trkpt lat="44.81284" lon="4.7673">
        <ele>332</ele>
        <time>2009-03-29T06:28:55Z</time>
      </trkpt>
      <trkpt lat="44.81274" lon="4.7673">
        <ele>334</ele>
        <time>2009-03-29T06:29:03Z</time>
      </trkpt>
      <trkpt lat="44.81267" lon="4.76734">
        <ele>336</ele>
        <time>2009-03-29T06:29:09Z</time>
      </trkpt>
      <trkpt lat="44.81269" lon="4.7674">
        <ele>335</ele>
        <time>2009-03-29T06:29:13Z</time>
      </trkpt>
      <trkpt lat="44.81278" lon="4.76746">
        <ele>333</ele>
        <time>2009-03-29T06:29:20Z</time>
      </trkpt>
      <trkpt lat="44.81283" lon="4.76756">
        <ele>332</ele>
        <time>2009-03-29T06:29:26Z</time>
      </trkpt>
      <trkpt lat="44.81284" lon="4.76773">
        <ele>331</ele>
        <time>2009-03-29T06:29:34Z</time>
      </trkpt>
      <trkpt lat="44.81274" lon="4.76785">
        <ele>333</ele>
        <time>2009-03-29T06:29:43Z</time>
      </trkpt>
      <trkpt lat="44.8126" lon="4.76796">
        <ele>337</ele>
        <time>2009-03-29T06:29:53Z</time>
      </trkpt>
      <trkpt lat="44.81248" lon="4.76809">
        <ele>340</ele>
        <time>2009-03-29T06:30:03Z</time>
      </trkpt>
      <trkpt lat="44.81241" lon="4.76816">
        <ele>341</ele>
        <time>2009-03-29T06:30:09Z</time>
      </trkpt>
      <trkpt lat="44.81232" lon="4.76824">
        <ele>341</ele>
        <time>2009-03-29T06:30:16Z</time>
      </trkpt>
      <trkpt lat="44.81224" lon="4.76834">
        <ele>342</ele>
        <time>2009-03-29T06:30:23Z</time>
      </trkpt>
      <trkpt lat="44.8122" lon="4.76837">
        <ele>342</ele>
        <time>2009-03-29T06:30:26Z</time>
      </trkpt>
      <trkpt lat="44.81215" lon="4.76843">
        <ele>342</ele>
        <time>2009-03-29T06:30:30Z</time>
      </trkpt>
      <trkpt lat="44.81206" lon="4.76851">
        <ele>343</ele>
        <time>2009-03-29T06:30:37Z</time>
      </trkpt>
      <trkpt lat="44.81199" lon="4.76859">
        <ele>343</ele>
        <time>2009-03-29T06:30:43Z</time>
      </trkpt>
      <trkpt lat="44.81189" lon="4.76871">
        <ele>343</ele>
        <time>2009-03-29T06:30:50Z</time>
      </trkpt>
      <trkpt lat="44.81176" lon="4.76886">
        <ele>344</ele>
        <time>2009-03-29T06:30:56Z</time>
      </trkpt>
      <trkpt lat="44.81157" lon="4.76901">
        <ele>343</ele>
        <time>2009-03-29T06:31:03Z</time>
      </trkpt>
      <trkpt lat="44.81144" lon="4.76904">
        <ele>342</ele>
        <time>2009-03-29T06:31:08Z</time>
      </trkpt>
      <trkpt lat="44.81129" lon="4.76898">
        <ele>342</ele>
        <time>2009-03-29T06:31:14Z</time>
      </trkpt>
      <trkpt lat="44.81121" lon="4.76883">
        <ele>342</ele>
        <time>2009-03-29T06:31:19Z</time>
      </trkpt>
      <trkpt lat="44.81121" lon="4.76864">
        <ele>342</ele>
        <time>2009-03-29T06:31:24Z</time>
      </trkpt>
      <trkpt lat="44.81121" lon="4.76841">
        <ele>342</ele>
        <time>2009-03-29T06:31:30Z</time>
      </trkpt>
      <trkpt lat="44.81127" lon="4.76826">
        <ele>343</ele>
        <time>2009-03-29T06:31:36Z</time>
      </trkpt>
      <trkpt lat="44.81139" lon="4.76805">
        <ele>345</ele>
        <time>2009-03-29T06:31:45Z</time>
      </trkpt>
      <trkpt lat="44.81145" lon="4.76785">
        <ele>346</ele>
        <time>2009-03-29T06:31:52Z</time>
      </trkpt>
      <trkpt lat="44.81144" lon="4.76767">
        <ele>346</ele>
        <time>2009-03-29T06:31:58Z</time>
      </trkpt>
      <trkpt lat="44.81136" lon="4.76736">
        <ele>348</ele>
        <time>2009-03-29T06:32:07Z</time>
      </trkpt>
      <trkpt lat="44.81127" lon="4.76713">
        <ele>349</ele>
        <time>2009-03-29T06:32:15Z</time>
      </trkpt>
      <trkpt lat="44.81124" lon="4.76701">
        <ele>350</ele>
        <time>2009-03-29T06:32:20Z</time>
      </trkpt>
      <trkpt lat="44.81124" lon="4.76684">
        <ele>352</ele>
        <time>2009-03-29T06:32:26Z</time>
      </trkpt>
      <trkpt lat="44.81119" lon="4.76664">
        <ele>353</ele>
        <time>2009-03-29T06:32:34Z</time>
      </trkpt>
      <trkpt lat="44.81113" lon="4.76642">
        <ele>356</ele>
        <time>2009-03-29T06:32:44Z</time>
      </trkpt>
      <trkpt lat="44.81108" lon="4.76627">
        <ele>357</ele>
        <time>2009-03-29T06:32:51Z</time>
      </trkpt>
      <trkpt lat="44.81104" lon="4.76614">
        <ele>359</ele>
        <time>2009-03-29T06:32:57Z</time>
      </trkpt>
      <trkpt lat="44.81097" lon="4.76593">
        <ele>361</ele>
        <time>2009-03-29T06:33:05Z</time>
      </trkpt>
      <trkpt lat="44.81091" lon="4.76576">
        <ele>363</ele>
        <time>2009-03-29T06:33:12Z</time>
      </trkpt>
      <trkpt lat="44.81082" lon="4.76558">
        <ele>363</ele>
        <time>2009-03-29T06:33:21Z</time>
      </trkpt>
      <trkpt lat="44.81071" lon="4.76538">
        <ele>363</ele>
        <time>2009-03-29T06:33:31Z</time>
      </trkpt>
      <trkpt lat="44.81059" lon="4.76517">
        <ele>364</ele>
        <time>2009-03-29T06:33:41Z</time>
      </trkpt>
      <trkpt lat="44.8105" lon="4.76506">
        <ele>364</ele>
        <time>2009-03-29T06:33:47Z</time>
      </trkpt>
      <trkpt lat="44.81034" lon="4.76485">
        <ele>364</ele>
        <time>2009-03-29T06:33:56Z</time>
      </trkpt>
      <trkpt lat="44.81012" lon="4.76456">
        <ele>365</ele>
        <time>2009-03-29T06:34:07Z</time>
      </trkpt>
      <trkpt lat="44.80993" lon="4.76427">
        <ele>367</ele>
        <time>2009-03-29T06:34:17Z</time>
      </trkpt>
      <trkpt lat="44.80981" lon="4.76406">
        <ele>369</ele>
        <time>2009-03-29T06:34:25Z</time>
      </trkpt>
      <trkpt lat="44.80969" lon="4.76371">
        <ele>373</ele>
        <time>2009-03-29T06:34:38Z</time>
      </trkpt>
      <trkpt lat="44.80972" lon="4.76347">
        <ele>375</ele>
        <time>2009-03-29T06:34:47Z</time>
      </trkpt>
      <trkpt lat="44.80972" lon="4.76321">
        <ele>378</ele>
        <time>2009-03-29T06:34:57Z</time>
      </trkpt>
      <trkpt lat="44.80975" lon="4.76301">
        <ele>379</ele>
        <time>2009-03-29T06:35:05Z</time>
      </trkpt>
      <trkpt lat="44.80977" lon="4.76279">
        <ele>380</ele>
        <time>2009-03-29T06:35:13Z</time>
      </trkpt>
      <trkpt lat="44.80977" lon="4.76251">
        <ele>382</ele>
        <time>2009-03-29T06:35:23Z</time>
      </trkpt>
      <trkpt lat="44.80972" lon="4.76231">
        <ele>383</ele>
        <time>2009-03-29T06:35:30Z</time>
      </trkpt>
      <trkpt lat="44.80963" lon="4.76207">
        <ele>384</ele>
        <time>2009-03-29T06:35:39Z</time>
      </trkpt>
      <trkpt lat="44.80955" lon="4.76182">
        <ele>384</ele>
        <time>2009-03-29T06:35:48Z</time>
      </trkpt>
      <trkpt lat="44.80948" lon="4.76165">
        <ele>384</ele>
        <time>2009-03-29T06:35:55Z</time>
      </trkpt>
      <trkpt lat="44.80935" lon="4.76149">
        <ele>385</ele>
        <time>2009-03-29T06:36:03Z</time>
      </trkpt>
      <trkpt lat="44.80917" lon="4.76141">
        <ele>386</ele>
        <time>2009-03-29T06:36:11Z</time>
      </trkpt>
      <trkpt lat="44.80898" lon="4.76137">
        <ele>387</ele>
        <time>2009-03-29T06:36:18Z</time>
      </trkpt>
      <trkpt lat="44.80884" lon="4.76136">
        <ele>388</ele>
        <time>2009-03-29T06:36:24Z</time>
      </trkpt>
      <trkpt lat="44.80859" lon="4.76136">
        <ele>391</ele>
        <time>2009-03-29T06:36:34Z</time>
      </trkpt>
      <trkpt lat="44.80843" lon="4.76133">
        <ele>392</ele>
        <time>2009-03-29T06:36:41Z</time>
      </trkpt>
      <trkpt lat="44.80828" lon="4.76123">
        <ele>393</ele>
        <time>2009-03-29T06:36:49Z</time>
      </trkpt>
      <trkpt lat="44.80812" lon="4.76112">
        <ele>393</ele>
        <time>2009-03-29T06:36:57Z</time>
      </trkpt>
      <trkpt lat="44.80799" lon="4.76104">
        <ele>394</ele>
        <time>2009-03-29T06:37:04Z</time>
      </trkpt>
      <trkpt lat="44.80783" lon="4.76092">
        <ele>394</ele>
        <time>2009-03-29T06:37:13Z</time>
      </trkpt>
      <trkpt lat="44.80767" lon="4.76081">
        <ele>396</ele>
        <time>2009-03-29T06:37:22Z</time>
      </trkpt>
      <trkpt lat="44.80753" lon="4.7606">
        <ele>398</ele>
        <time>2009-03-29T06:37:31Z</time>
      </trkpt>
      <trkpt lat="44.8074" lon="4.76043">
        <ele>400</ele>
        <time>2009-03-29T06:37:40Z</time>
      </trkpt>
      <trkpt lat="44.8073" lon="4.7602">
        <ele>402</ele>
        <time>2009-03-29T06:37:50Z</time>
      </trkpt>
      <trkpt lat="44.80725" lon="4.76">
        <ele>403</ele>
        <time>2009-03-29T06:37:58Z</time>
      </trkpt>
      <trkpt lat="44.80715" lon="4.75974">
        <ele>403</ele>
        <time>2009-03-29T06:38:09Z</time>
      </trkpt>
      <trkpt lat="44.80709" lon="4.75951">
        <ele>403</ele>
        <time>2009-03-29T06:38:18Z</time>
      </trkpt>
      <trkpt lat="44.80704" lon="4.75928">
        <ele>402</ele>
        <time>2009-03-29T06:38:26Z</time>
      </trkpt>
      <trkpt lat="44.807" lon="4.75905">
        <ele>401</ele>
        <time>2009-03-29T06:38:33Z</time>
      </trkpt>
      <trkpt lat="44.80692" lon="4.75868">
        <ele>400</ele>
        <time>2009-03-29T06:38:42Z</time>
      </trkpt>
      <trkpt lat="44.80692" lon="4.75857">
        <ele>399</ele>
        <time>2009-03-29T06:38:44Z</time>
      </trkpt>
      <trkpt lat="44.80695" lon="4.75808">
        <ele>400</ele>
        <time>2009-03-29T06:38:51Z</time>
      </trkpt>
      <trkpt lat="44.80692" lon="4.75767">
        <ele>402</ele>
        <time>2009-03-29T06:38:58Z</time>
      </trkpt>
      <trkpt lat="44.80687" lon="4.75743">
        <ele>404</ele>
        <time>2009-03-29T06:39:04Z</time>
      </trkpt>
      <trkpt lat="44.80679" lon="4.75714">
        <ele>406</ele>
        <time>2009-03-29T06:39:12Z</time>
      </trkpt>
      <trkpt lat="44.80671" lon="4.75689">
        <ele>408</ele>
        <time>2009-03-29T06:39:20Z</time>
      </trkpt>
      <trkpt lat="44.80666" lon="4.7566">
        <ele>410</ele>
        <time>2009-03-29T06:39:29Z</time>
      </trkpt>
      <trkpt lat="44.80665" lon="4.75631">
        <ele>411</ele>
        <time>2009-03-29T06:39:38Z</time>
      </trkpt>
      <trkpt lat="44.80663" lon="4.75601">
        <ele>412</ele>
        <time>2009-03-29T06:39:47Z</time>
      </trkpt>
      <trkpt lat="44.80662" lon="4.7558">
        <ele>413</ele>
        <time>2009-03-29T06:39:53Z</time>
      </trkpt>
      <trkpt lat="44.80666" lon="4.75556">
        <ele>413</ele>
        <time>2009-03-29T06:39:58Z</time>
      </trkpt>
      <trkpt lat="44.80667" lon="4.7555">
        <ele>413</ele>
        <time>2009-03-29T06:39:59Z</time>
      </trkpt>
      <trkpt lat="44.80669" lon="4.755">
        <ele>413</ele>
        <time>2009-03-29T06:40:07Z</time>
      </trkpt>
      <trkpt lat="44.80671" lon="4.7546">
        <ele>411</ele>
        <time>2009-03-29T06:40:13Z</time>
      </trkpt>
      <trkpt lat="44.80671" lon="4.75445">
        <ele>410</ele>
        <time>2009-03-29T06:40:15Z</time>
      </trkpt>
      <trkpt lat="44.80669" lon="4.7543">
        <ele>410</ele>
        <time>2009-03-29T06:40:17Z</time>
      </trkpt>
      <trkpt lat="44.80656" lon="4.75385">
        <ele>409</ele>
        <time>2009-03-29T06:40:23Z</time>
      </trkpt>
      <trkpt lat="44.80654" lon="4.75378">
        <ele>408</ele>
        <time>2009-03-29T06:40:24Z</time>
      </trkpt>
      <trkpt lat="44.80649" lon="4.75343">
        <ele>407</ele>
        <time>2009-03-29T06:40:29Z</time>
      </trkpt>
      <trkpt lat="44.80642" lon="4.75335">
        <ele>406</ele>
        <time>2009-03-29T06:40:32Z</time>
      </trkpt>
      <trkpt lat="44.8064" lon="4.75334">
        <ele>406</ele>
        <time>2009-03-29T06:40:33Z</time>
      </trkpt>
      <trkpt lat="44.80622" lon="4.75317">
        <ele>405</ele>
        <time>2009-03-29T06:40:40Z</time>
      </trkpt>
      <trkpt lat="44.80616" lon="4.75312">
        <ele>404</ele>
        <time>2009-03-29T06:40:42Z</time>
      </trkpt>
      <trkpt lat="44.80604" lon="4.75303">
        <ele>403</ele>
        <time>2009-03-29T06:40:46Z</time>
      </trkpt>
      <trkpt lat="44.80602" lon="4.75301">
        <ele>403</ele>
        <time>2009-03-29T06:40:47Z</time>
      </trkpt>
      <trkpt lat="44.80598" lon="4.75281">
        <ele>400</ele>
        <time>2009-03-29T06:40:52Z</time>
      </trkpt>
      <trkpt lat="44.80603" lon="4.75268">
        <ele>399</ele>
        <time>2009-03-29T06:40:54Z</time>
      </trkpt>
      <trkpt lat="44.80609" lon="4.75232">
        <ele>396</ele>
        <time>2009-03-29T06:40:59Z</time>
      </trkpt>
      <trkpt lat="44.80614" lon="4.75208">
        <ele>394</ele>
        <time>2009-03-29T06:41:02Z</time>
      </trkpt>
      <trkpt lat="44.80616" lon="4.75173">
        <ele>390</ele>
        <time>2009-03-29T06:41:06Z</time>
      </trkpt>
      <trkpt lat="44.80616" lon="4.7515">
        <ele>388</ele>
        <time>2009-03-29T06:41:09Z</time>
      </trkpt>
      <trkpt lat="44.80609" lon="4.75131">
        <ele>386</ele>
        <time>2009-03-29T06:41:13Z</time>
      </trkpt>
      <trkpt lat="44.80604" lon="4.75107">
        <ele>384</ele>
        <time>2009-03-29T06:41:16Z</time>
      </trkpt>
      <trkpt lat="44.80606" lon="4.75097">
        <ele>384</ele>
        <time>2009-03-29T06:41:17Z</time>
      </trkpt>
      <trkpt lat="44.80611" lon="4.75078">
        <ele>383</ele>
        <time>2009-03-29T06:41:19Z</time>
      </trkpt>
      <trkpt lat="44.80617" lon="4.75033">
        <ele>381</ele>
        <time>2009-03-29T06:41:23Z</time>
      </trkpt>
      <trkpt lat="44.80618" lon="4.74994">
        <ele>380</ele>
        <time>2009-03-29T06:41:27Z</time>
      </trkpt>
      <trkpt lat="44.8062" lon="4.74961">
        <ele>379</ele>
        <time>2009-03-29T06:41:32Z</time>
      </trkpt>
      <trkpt lat="44.80622" lon="4.74933">
        <ele>378</ele>
        <time>2009-03-29T06:41:38Z</time>
      </trkpt>
      <trkpt lat="44.80629" lon="4.74891">
        <ele>379</ele>
        <time>2009-03-29T06:41:46Z</time>
      </trkpt>
      <trkpt lat="44.80631" lon="4.74855">
        <ele>381</ele>
        <time>2009-03-29T06:41:53Z</time>
      </trkpt>
      <trkpt lat="44.80632" lon="4.74801">
        <ele>385</ele>
        <time>2009-03-29T06:42:04Z</time>
      </trkpt>
      <trkpt lat="44.80627" lon="4.74773">
        <ele>388</ele>
        <time>2009-03-29T06:42:11Z</time>
      </trkpt>
      <trkpt lat="44.80618" lon="4.74745">
        <ele>390</ele>
        <time>2009-03-29T06:42:19Z</time>
      </trkpt>
      <trkpt lat="44.80609" lon="4.7472">
        <ele>389</ele>
        <time>2009-03-29T06:42:27Z</time>
      </trkpt>
      <trkpt lat="44.80591" lon="4.74696">
        <ele>388</ele>
        <time>2009-03-29T06:42:35Z</time>
      </trkpt>
      <trkpt lat="44.80559" lon="4.74675">
        <ele>387</ele>
        <time>2009-03-29T06:42:42Z</time>
      </trkpt>
      <trkpt lat="44.80518" lon="4.74658">
        <ele>386</ele>
        <time>2009-03-29T06:42:51Z</time>
      </trkpt>
      <trkpt lat="44.80509" lon="4.74655">
        <ele>386</ele>
        <time>2009-03-29T06:42:53Z</time>
      </trkpt>
      <trkpt lat="44.80473" lon="4.74644">
        <ele>385</ele>
        <time>2009-03-29T06:43:02Z</time>
      </trkpt>
      <trkpt lat="44.80439" lon="4.74629">
        <ele>385</ele>
        <time>2009-03-29T06:43:10Z</time>
      </trkpt>
      <trkpt lat="44.80423" lon="4.74626">
        <ele>385</ele>
        <time>2009-03-29T06:43:15Z</time>
      </trkpt>
      <trkpt lat="44.80419" lon="4.74624">
        <ele>385</ele>
        <time>2009-03-29T06:43:18Z</time>
      </trkpt>
      <trkpt lat="44.80405" lon="4.74625">
        <ele>386</ele>
        <time>2009-03-29T06:43:24Z</time>
      </trkpt>
      <trkpt lat="44.80391" lon="4.74621">
        <ele>386</ele>
        <time>2009-03-29T06:43:31Z</time>
      </trkpt>
      <trkpt lat="44.8039" lon="4.7462">
        <ele>386</ele>
        <time>2009-03-29T06:43:35Z</time>
      </trkpt>
      <trkpt lat="44.80391" lon="4.74617">
        <ele>386</ele>
        <time>2009-03-29T06:44:19Z</time>
      </trkpt>
      <trkpt lat="44.8039" lon="4.74618">
        <ele>386</ele>
        <time>2009-03-29T06:44:35Z</time>
      </trkpt>
      <trkpt lat="44.80391" lon="4.74619">
        <ele>386</ele>
        <time>2009-03-29T06:45:01Z</time>
      </trkpt>
      <trkpt lat="44.8039" lon="4.74621">
        <ele>386</ele>
        <time>2009-03-29T06:45:36Z</time>
      </trkpt>
      <trkpt lat="44.80388" lon="4.74621">
        <ele>386</ele>
        <time>2009-03-29T06:46:01Z</time>
      </trkpt>
      <trkpt lat="44.80389" lon="4.74621">
        <ele>386</ele>
        <time>2009-03-29T06:46:27Z</time>
      </trkpt>
      <trkpt lat="44.80387" lon="4.7462">
        <ele>386</ele>
        <time>2009-03-29T06:46:52Z</time>
      </trkpt>
      <trkpt lat="44.80387" lon="4.7462">
        <ele>386</ele>
        <time>2009-03-29T06:47:00Z</time>
      </trkpt>
      <trkpt lat="44.8038" lon="4.74619">
        <ele>387</ele>
        <time>2009-03-29T06:47:04Z</time>
      </trkpt>
      <trkpt lat="44.80362" lon="4.74615">
        <ele>387</ele>
        <time>2009-03-29T06:47:13Z</time>
      </trkpt>
      <trkpt lat="44.80342" lon="4.74611">
        <ele>388</ele>
        <time>2009-03-29T06:47:22Z</time>
      </trkpt>
      <trkpt lat="44.80325" lon="4.74608">
        <ele>389</ele>
        <time>2009-03-29T06:47:29Z</time>
      </trkpt>
      <trkpt lat="44.80302" lon="4.746">
        <ele>389</ele>
        <time>2009-03-29T06:47:38Z</time>
      </trkpt>
      <trkpt lat="44.80282" lon="4.74587">
        <ele>391</ele>
        <time>2009-03-29T06:47:46Z</time>
      </trkpt>
      <trkpt lat="44.80263" lon="4.74566">
        <ele>392</ele>
        <time>2009-03-29T06:47:54Z</time>
      </trkpt>
      <trkpt lat="44.80246" lon="4.74549">
        <ele>393</ele>
        <time>2009-03-29T06:48:01Z</time>
      </trkpt>
      <trkpt lat="44.80231" lon="4.74533">
        <ele>396</ele>
        <time>2009-03-29T06:48:09Z</time>
      </trkpt>
      <trkpt lat="44.80214" lon="4.74513">
        <ele>398</ele>
        <time>2009-03-29T06:48:19Z</time>
      </trkpt>
      <trkpt lat="44.802" lon="4.745">
        <ele>400</ele>
        <time>2009-03-29T06:48:27Z</time>
      </trkpt>
      <trkpt lat="44.80182" lon="4.74483">
        <ele>403</ele>
        <time>2009-03-29T06:48:38Z</time>
      </trkpt>
      <trkpt lat="44.8017" lon="4.74471">
        <ele>405</ele>
        <time>2009-03-29T06:48:45Z</time>
      </trkpt>
      <trkpt lat="44.80158" lon="4.74462">
        <ele>406</ele>
        <time>2009-03-29T06:48:52Z</time>
      </trkpt>
      <trkpt lat="44.80145" lon="4.7445">
        <ele>406</ele>
        <time>2009-03-29T06:48:59Z</time>
      </trkpt>
      <trkpt lat="44.80132" lon="4.7444">
        <ele>406</ele>
        <time>2009-03-29T06:49:04Z</time>
      </trkpt>
      <trkpt lat="44.80114" lon="4.74425">
        <ele>407</ele>
        <time>2009-03-29T06:49:11Z</time>
      </trkpt>
      <trkpt lat="44.8009" lon="4.74411">
        <ele>406</ele>
        <time>2009-03-29T06:49:20Z</time>
      </trkpt>
      <trkpt lat="44.80079" lon="4.74405">
        <ele>404</ele>
        <time>2009-03-29T06:49:24Z</time>
      </trkpt>
      <trkpt lat="44.80067" lon="4.74401">
        <ele>402</ele>
        <time>2009-03-29T06:49:27Z</time>
      </trkpt>
      <trkpt lat="44.80045" lon="4.74388">
        <ele>397</ele>
        <time>2009-03-29T06:49:31Z</time>
      </trkpt>
      <trkpt lat="44.80006" lon="4.74372">
        <ele>391</ele>
        <time>2009-03-29T06:49:36Z</time>
      </trkpt>
      <trkpt lat="44.79985" lon="4.74367">
        <ele>388</ele>
        <time>2009-03-29T06:49:38Z</time>
      </trkpt>
      <trkpt lat="44.79954" lon="4.74358">
        <ele>383</ele>
        <time>2009-03-29T06:49:41Z</time>
      </trkpt>
      <trkpt lat="44.79912" lon="4.7436">
        <ele>376</ele>
        <time>2009-03-29T06:49:46Z</time>
      </trkpt>
      <trkpt lat="44.79876" lon="4.74366">
        <ele>371</ele>
        <time>2009-03-29T06:49:52Z</time>
      </trkpt>
      <trkpt lat="44.79855" lon="4.74373">
        <ele>368</ele>
        <time>2009-03-29T06:49:57Z</time>
      </trkpt>
      <trkpt lat="44.7985" lon="4.74375">
        <ele>368</ele>
        <time>2009-03-29T06:49:59Z</time>
      </trkpt>
      <trkpt lat="44.79833" lon="4.74359">
        <ele>368</ele>
        <time>2009-03-29T06:50:04Z</time>
      </trkpt>
      <trkpt lat="44.79825" lon="4.74337">
        <ele>367</ele>
        <time>2009-03-29T06:50:09Z</time>
      </trkpt>
      <trkpt lat="44.79824" lon="4.74326">
        <ele>366</ele>
        <time>2009-03-29T06:50:11Z</time>
      </trkpt>
      <trkpt lat="44.79814" lon="4.74308">
        <ele>360</ele>
        <time>2009-03-29T06:50:16Z</time>
      </trkpt>
      <trkpt lat="44.79804" lon="4.74309">
        <ele>357</ele>
        <time>2009-03-29T06:50:18Z</time>
      </trkpt>
      <trkpt lat="44.79797" lon="4.74315">
        <ele>355</ele>
        <time>2009-03-29T06:50:20Z</time>
      </trkpt>
      <trkpt lat="44.79795" lon="4.74349">
        <ele>354</ele>
        <time>2009-03-29T06:50:27Z</time>
      </trkpt>
      <trkpt lat="44.79792" lon="4.74375">
        <ele>351</ele>
        <time>2009-03-29T06:50:32Z</time>
      </trkpt>
      <trkpt lat="44.7979" lon="4.74401">
        <ele>348</ele>
        <time>2009-03-29T06:50:37Z</time>
      </trkpt>
      <trkpt lat="44.79784" lon="4.74427">
        <ele>343</ele>
        <time>2009-03-29T06:50:42Z</time>
      </trkpt>
      <trkpt lat="44.79774" lon="4.74453">
        <ele>338</ele>
        <time>2009-03-29T06:50:48Z</time>
      </trkpt>
      <trkpt lat="44.79771" lon="4.74472">
        <ele>336</ele>
        <time>2009-03-29T06:50:52Z</time>
      </trkpt>
      <trkpt lat="44.79778" lon="4.74483">
        <ele>335</ele>
        <time>2009-03-29T06:50:56Z</time>
      </trkpt>
      <trkpt lat="44.79779" lon="4.74484">
        <ele>335</ele>
        <time>2009-03-29T06:50:57Z</time>
      </trkpt>
      <trkpt lat="44.79778" lon="4.74494">
        <ele>334</ele>
        <time>2009-03-29T06:51:01Z</time>
      </trkpt>
      <trkpt lat="44.79773" lon="4.74498">
        <ele>333</ele>
        <time>2009-03-29T06:51:03Z</time>
      </trkpt>
      <trkpt lat="44.79755" lon="4.74509">
        <ele>332</ele>
        <time>2009-03-29T06:51:09Z</time>
      </trkpt>
      <trkpt lat="44.79749" lon="4.74514">
        <ele>331</ele>
        <time>2009-03-29T06:51:11Z</time>
      </trkpt>
      <trkpt lat="44.79744" lon="4.74537">
        <ele>326</ele>
        <time>2009-03-29T06:51:16Z</time>
      </trkpt>
      <trkpt lat="44.79736" lon="4.74543">
        <ele>323</ele>
        <time>2009-03-29T06:51:19Z</time>
      </trkpt>
      <trkpt lat="44.79731" lon="4.74538">
        <ele>322</ele>
        <time>2009-03-29T06:51:22Z</time>
      </trkpt>
      <trkpt lat="44.79729" lon="4.74535">
        <ele>322</ele>
        <time>2009-03-29T06:51:23Z</time>
      </trkpt>
      <trkpt lat="44.79722" lon="4.74514">
        <ele>322</ele>
        <time>2009-03-29T06:51:28Z</time>
      </trkpt>
      <trkpt lat="44.79713" lon="4.74518">
        <ele>319</ele>
        <time>2009-03-29T06:51:32Z</time>
      </trkpt>
      <trkpt lat="44.79708" lon="4.74529">
        <ele>316</ele>
        <time>2009-03-29T06:51:34Z</time>
      </trkpt>
      <trkpt lat="44.79704" lon="4.74539">
        <ele>314</ele>
        <time>2009-03-29T06:51:36Z</time>
      </trkpt>
      <trkpt lat="44.7971" lon="4.74563">
        <ele>313</ele>
        <time>2009-03-29T06:51:40Z</time>
      </trkpt>
      <trkpt lat="44.7972" lon="4.74593">
        <ele>311</ele>
        <time>2009-03-29T06:51:46Z</time>
      </trkpt>
      <trkpt lat="44.79725" lon="4.74605">
        <ele>309</ele>
        <time>2009-03-29T06:51:50Z</time>
      </trkpt>
      <trkpt lat="44.79733" lon="4.74628">
        <ele>305</ele>
        <time>2009-03-29T06:51:57Z</time>
      </trkpt>
      <trkpt lat="44.7973" lon="4.7464">
        <ele>302</ele>
        <time>2009-03-29T06:52:01Z</time>
      </trkpt>
      <trkpt lat="44.79719" lon="4.74658">
        <ele>295</ele>
        <time>2009-03-29T06:52:06Z</time>
      </trkpt>
      <trkpt lat="44.79706" lon="4.74682">
        <ele>289</ele>
        <time>2009-03-29T06:52:11Z</time>
      </trkpt>
      <trkpt lat="44.79704" lon="4.74686">
        <ele>288</ele>
        <time>2009-03-29T06:52:12Z</time>
      </trkpt>
      <trkpt lat="44.79694" lon="4.74714">
        <ele>283</ele>
        <time>2009-03-29T06:52:18Z</time>
      </trkpt>
      <trkpt lat="44.79691" lon="4.74727">
        <ele>281</ele>
        <time>2009-03-29T06:52:21Z</time>
      </trkpt>
      <trkpt lat="44.79676" lon="4.74755">
        <ele>278</ele>
        <time>2009-03-29T06:52:26Z</time>
      </trkpt>
      <trkpt lat="44.79682" lon="4.74772">
        <ele>274</ele>
        <time>2009-03-29T06:52:30Z</time>
      </trkpt>
      <trkpt lat="44.79688" lon="4.74786">
        <ele>271</ele>
        <time>2009-03-29T06:52:34Z</time>
      </trkpt>
      <trkpt lat="44.79689" lon="4.74789">
        <ele>270</ele>
        <time>2009-03-29T06:52:35Z</time>
      </trkpt>
      <trkpt lat="44.79683" lon="4.74802">
        <ele>268</ele>
        <time>2009-03-29T06:52:40Z</time>
      </trkpt>
      <trkpt lat="44.79681" lon="4.74802">
        <ele>268</ele>
        <time>2009-03-29T06:52:41Z</time>
      </trkpt>
      <trkpt lat="44.79668" lon="4.74802">
        <ele>269</ele>
        <time>2009-03-29T06:52:45Z</time>
      </trkpt>
      <trkpt lat="44.79656" lon="4.74799">
        <ele>267</ele>
        <time>2009-03-29T06:52:50Z</time>
      </trkpt>
      <trkpt lat="44.79647" lon="4.74793">
        <ele>266</ele>
        <time>2009-03-29T06:52:54Z</time>
      </trkpt>
      <trkpt lat="44.79639" lon="4.74787">
        <ele>265</ele>
        <time>2009-03-29T06:52:57Z</time>
      </trkpt>
      <trkpt lat="44.79626" lon="4.74779">
        <ele>263</ele>
        <time>2009-03-29T06:53:02Z</time>
      </trkpt>
      <trkpt lat="44.79618" lon="4.7477">
        <ele>262</ele>
        <time>2009-03-29T06:53:06Z</time>
      </trkpt>
      <trkpt lat="44.79613" lon="4.74767">
        <ele>261</ele>
        <time>2009-03-29T06:53:09Z</time>
      </trkpt>
      <trkpt lat="44.79604" lon="4.74775">
        <ele>257</ele>
        <time>2009-03-29T06:53:13Z</time>
      </trkpt>
      <trkpt lat="44.7959" lon="4.74785">
        <ele>252</ele>
        <time>2009-03-29T06:53:19Z</time>
      </trkpt>
      <trkpt lat="44.79579" lon="4.7479">
        <ele>249</ele>
        <time>2009-03-29T06:53:24Z</time>
      </trkpt>
      <trkpt lat="44.79572" lon="4.74793">
        <ele>247</ele>
        <time>2009-03-29T06:53:28Z</time>
      </trkpt>
      <trkpt lat="44.79568" lon="4.74801">
        <ele>245</ele>
        <time>2009-03-29T06:53:31Z</time>
      </trkpt>
      <trkpt lat="44.79559" lon="4.74808">
        <ele>242</ele>
        <time>2009-03-29T06:53:34Z</time>
      </trkpt>
      <trkpt lat="44.79555" lon="4.74808">
        <ele>241</ele>
        <time>2009-03-29T06:53:35Z</time>
      </trkpt>
      <trkpt lat="44.79547" lon="4.74808">
        <ele>239</ele>
        <time>2009-03-29T06:53:39Z</time>
      </trkpt>
      <trkpt lat="44.79547" lon="4.74802">
        <ele>240</ele>
        <time>2009-03-29T06:53:47Z</time>
      </trkpt>
      <trkpt lat="44.79546" lon="4.74798">
        <ele>240</ele>
        <time>2009-03-29T06:54:05Z</time>
      </trkpt>
      <trkpt lat="44.79542" lon="4.748">
        <ele>239</ele>
        <time>2009-03-29T06:55:05Z</time>
      </trkpt>
      <trkpt lat="44.79542" lon="4.74799">
        <ele>239</ele>
        <time>2009-03-29T06:55:07Z</time>
      </trkpt>
      <trkpt lat="44.7954" lon="4.74797">
        <ele>239</ele>
        <time>2009-03-29T06:55:10Z</time>
      </trkpt>
      <trkpt lat="44.79535" lon="4.74794">
        <ele>238</ele>
        <time>2009-03-29T06:55:15Z</time>
      </trkpt>
      <trkpt lat="44.79523" lon="4.74798">
        <ele>235</ele>
        <time>2009-03-29T06:55:20Z</time>
      </trkpt>
      <trkpt lat="44.79508" lon="4.74806">
        <ele>231</ele>
        <time>2009-03-29T06:55:25Z</time>
      </trkpt>
      <trkpt lat="44.79495" lon="4.74801">
        <ele>228</ele>
        <time>2009-03-29T06:55:29Z</time>
      </trkpt>
      <trkpt lat="44.79475" lon="4.74789">
        <ele>223</ele>
        <time>2009-03-29T06:55:34Z</time>
      </trkpt>
      <trkpt lat="44.79464" lon="4.74786">
        <ele>220</ele>
        <time>2009-03-29T06:55:36Z</time>
      </trkpt>
      <trkpt lat="44.79449" lon="4.74786">
        <ele>216</ele>
        <time>2009-03-29T06:55:39Z</time>
      </trkpt>
      <trkpt lat="44.79431" lon="4.7478">
        <ele>212</ele>
        <time>2009-03-29T06:55:43Z</time>
      </trkpt>
      <trkpt lat="44.79428" lon="4.74759">
        <ele>213</ele>
        <time>2009-03-29T06:55:46Z</time>
      </trkpt>
      <trkpt lat="44.79432" lon="4.74739">
        <ele>214</ele>
        <time>2009-03-29T06:55:52Z</time>
      </trkpt>
      <trkpt lat="44.79428" lon="4.74734">
        <ele>213</ele>
        <time>2009-03-29T06:55:54Z</time>
      </trkpt>
      <trkpt lat="44.79417" lon="4.74728">
        <ele>210</ele>
        <time>2009-03-29T06:55:57Z</time>
      </trkpt>
      <trkpt lat="44.79396" lon="4.74723">
        <ele>203</ele>
        <time>2009-03-29T06:56:02Z</time>
      </trkpt>
      <trkpt lat="44.79389" lon="4.74716">
        <ele>201</ele>
        <time>2009-03-29T06:56:05Z</time>
      </trkpt>
      <trkpt lat="44.79394" lon="4.74699">
        <ele>201</ele>
        <time>2009-03-29T06:56:08Z</time>
      </trkpt>
      <trkpt lat="44.79405" lon="4.74694">
        <ele>204</ele>
        <time>2009-03-29T06:56:11Z</time>
      </trkpt>
      <trkpt lat="44.79407" lon="4.74689">
        <ele>205</ele>
        <time>2009-03-29T06:56:16Z</time>
      </trkpt>
      <trkpt lat="44.79403" lon="4.74686">
        <ele>204</ele>
        <time>2009-03-29T06:56:17Z</time>
      </trkpt>
      <trkpt lat="44.79387" lon="4.74677">
        <ele>199</ele>
        <time>2009-03-29T06:56:20Z</time>
      </trkpt>
      <trkpt lat="44.79363" lon="4.74672">
        <ele>192</ele>
        <time>2009-03-29T06:56:24Z</time>
      </trkpt>
      <trkpt lat="44.79351" lon="4.74675">
        <ele>189</ele>
        <time>2009-03-29T06:56:27Z</time>
      </trkpt>
      <trkpt lat="44.79346" lon="4.74663">
        <ele>187</ele>
        <time>2009-03-29T06:56:30Z</time>
      </trkpt>
      <trkpt lat="44.7934" lon="4.7466">
        <ele>185</ele>
        <time>2009-03-29T06:56:32Z</time>
      </trkpt>
      <trkpt lat="44.7933" lon="4.74673">
        <ele>183</ele>
        <time>2009-03-29T06:56:35Z</time>
      </trkpt>
      <trkpt lat="44.79317" lon="4.74679">
        <ele>180</ele>
        <time>2009-03-29T06:56:38Z</time>
      </trkpt>
      <trkpt lat="44.79313" lon="4.74668">
        <ele>179</ele>
        <time>2009-03-29T06:56:41Z</time>
      </trkpt>
      <trkpt lat="44.79317" lon="4.74632">
        <ele>177</ele>
        <time>2009-03-29T06:56:49Z</time>
      </trkpt>
      <trkpt lat="44.79319" lon="4.74622">
        <ele>177</ele>
        <time>2009-03-29T06:56:55Z</time>
      </trkpt>
      <trkpt lat="44.79325" lon="4.74609">
        <ele>176</ele>
        <time>2009-03-29T06:57:03Z</time>
      </trkpt>
      <trkpt lat="44.79326" lon="4.74608">
        <ele>177</ele>
        <time>2009-03-29T06:57:43Z</time>
      </trkpt>
      <trkpt lat="44.79328" lon="4.74606">
        <ele>177</ele>
        <time>2009-03-29T06:58:44Z</time>
      </trkpt>
      <trkpt lat="44.79337" lon="4.74589">
        <ele>177</ele>
        <time>2009-03-29T06:58:48Z</time>
      </trkpt>
      <trkpt lat="44.79353" lon="4.74577">
        <ele>183</ele>
        <time>2009-03-29T06:58:52Z</time>
      </trkpt>
      <trkpt lat="44.79363" lon="4.74565">
        <ele>186</ele>
        <time>2009-03-29T06:58:55Z</time>
      </trkpt>
      <trkpt lat="44.79368" lon="4.74554">
        <ele>188</ele>
        <time>2009-03-29T06:58:58Z</time>
      </trkpt>
      <trkpt lat="44.79376" lon="4.74533">
        <ele>190</ele>
        <time>2009-03-29T06:59:05Z</time>
      </trkpt>
      <trkpt lat="44.79385" lon="4.74515">
        <ele>192</ele>
        <time>2009-03-29T06:59:12Z</time>
      </trkpt>
      <trkpt lat="44.79393" lon="4.74497">
        <ele>193</ele>
        <time>2009-03-29T06:59:18Z</time>
      </trkpt>
      <trkpt lat="44.79401" lon="4.74483">
        <ele>195</ele>
        <time>2009-03-29T06:59:24Z</time>
      </trkpt>
      <trkpt lat="44.79411" lon="4.74465">
        <ele>197</ele>
        <time>2009-03-29T06:59:32Z</time>
      </trkpt>
      <trkpt lat="44.79418" lon="4.74454">
        <ele>198</ele>
        <time>2009-03-29T06:59:37Z</time>
      </trkpt>
      <trkpt lat="44.7942" lon="4.74452">
        <ele>198</ele>
        <time>2009-03-29T06:59:38Z</time>
      </trkpt>
      <trkpt lat="44.79427" lon="4.74436">
        <ele>200</ele>
        <time>2009-03-29T06:59:45Z</time>
      </trkpt>
      <trkpt lat="44.79429" lon="4.74422">
        <ele>201</ele>
        <time>2009-03-29T06:59:52Z</time>
      </trkpt>
      <trkpt lat="44.7943" lon="4.7442">
        <ele>201</ele>
        <time>2009-03-29T06:59:53Z</time>
      </trkpt>
      <trkpt lat="44.79442" lon="4.74406">
        <ele>205</ele>
        <time>2009-03-29T07:00:03Z</time>
      </trkpt>
      <trkpt lat="44.79451" lon="4.74396">
        <ele>208</ele>
        <time>2009-03-29T07:00:10Z</time>
      </trkpt>
      <trkpt lat="44.79458" lon="4.74384">
        <ele>209</ele>
        <time>2009-03-29T07:00:17Z</time>
      </trkpt>
      <trkpt lat="44.79464" lon="4.74375">
        <ele>210</ele>
        <time>2009-03-29T07:00:24Z</time>
      </trkpt>
      <trkpt lat="44.7947" lon="4.74365">
        <ele>210</ele>
        <time>2009-03-29T07:00:31Z</time>
      </trkpt>
      <trkpt lat="44.79474" lon="4.74353">
        <ele>209</ele>
        <time>2009-03-29T07:00:38Z</time>
      </trkpt>
      <trkpt lat="44.79474" lon="4.7435">
        <ele>209</ele>
        <time>2009-03-29T07:00:40Z</time>
      </trkpt>
      <trkpt lat="44.79484" lon="4.74337">
        <ele>208</ele>
        <time>2009-03-29T07:00:48Z</time>
      </trkpt>
      <trkpt lat="44.79495" lon="4.74329">
        <ele>207</ele>
        <time>2009-03-29T07:00:53Z</time>
      </trkpt>
      <trkpt lat="44.79498" lon="4.7431">
        <ele>208</ele>
        <time>2009-03-29T07:00:59Z</time>
      </trkpt>
      <trkpt lat="44.79505" lon="4.74292">
        <ele>212</ele>
        <time>2009-03-29T07:01:05Z</time>
      </trkpt>
      <trkpt lat="44.79512" lon="4.74275">
        <ele>216</ele>
        <time>2009-03-29T07:01:11Z</time>
      </trkpt>
      <trkpt lat="44.79516" lon="4.74256">
        <ele>218</ele>
        <time>2009-03-29T07:01:16Z</time>
      </trkpt>
      <trkpt lat="44.79502" lon="4.74243">
        <ele>214</ele>
        <time>2009-03-29T07:01:20Z</time>
      </trkpt>
      <trkpt lat="44.79498" lon="4.7424">
        <ele>214</ele>
        <time>2009-03-29T07:01:21Z</time>
      </trkpt>
      <trkpt lat="44.79488" lon="4.74243">
        <ele>216</ele>
        <time>2009-03-29T07:01:25Z</time>
      </trkpt>
      <trkpt lat="44.79485" lon="4.7426">
        <ele>214</ele>
        <time>2009-03-29T07:01:30Z</time>
      </trkpt>
      <trkpt lat="44.79469" lon="4.74284">
        <ele>214</ele>
        <time>2009-03-29T07:01:36Z</time>
      </trkpt>
      <trkpt lat="44.79447" lon="4.74305">
        <ele>213</ele>
        <time>2009-03-29T07:01:41Z</time>
      </trkpt>
      <trkpt lat="44.79441" lon="4.74317">
        <ele>211</ele>
        <time>2009-03-29T07:01:43Z</time>
      </trkpt>
      <trkpt lat="44.79436" lon="4.74332">
        <ele>208</ele>
        <time>2009-03-29T07:01:46Z</time>
      </trkpt>
      <trkpt lat="44.79428" lon="4.74362">
        <ele>205</ele>
        <time>2009-03-29T07:01:51Z</time>
      </trkpt>
      <trkpt lat="44.79405" lon="4.74398">
        <ele>202</ele>
        <time>2009-03-29T07:01:57Z</time>
      </trkpt>
      <trkpt lat="44.79387" lon="4.74426">
        <ele>200</ele>
        <time>2009-03-29T07:02:01Z</time>
      </trkpt>
      <trkpt lat="44.79374" lon="4.74462">
        <ele>195</ele>
        <time>2009-03-29T07:02:05Z</time>
      </trkpt>
      <trkpt lat="44.79362" lon="4.74481">
        <ele>191</ele>
        <time>2009-03-29T07:02:09Z</time>
      </trkpt>
      <trkpt lat="44.79359" lon="4.74476">
        <ele>192</ele>
        <time>2009-03-29T07:02:12Z</time>
      </trkpt>
      <trkpt lat="44.79358" lon="4.74475">
        <ele>192</ele>
        <time>2009-03-29T07:02:13Z</time>
      </trkpt>
      <trkpt lat="44.79353" lon="4.74479">
        <ele>191</ele>
        <time>2009-03-29T07:02:19Z</time>
      </trkpt>
      <trkpt lat="44.79351" lon="4.74479">
        <ele>190</ele>
        <time>2009-03-29T07:02:25Z</time>
      </trkpt>
      <trkpt lat="44.79346" lon="4.74478">
        <ele>190</ele>
        <time>2009-03-29T07:02:33Z</time>
      </trkpt>
      <trkpt lat="44.79339" lon="4.7448">
        <ele>189</ele>
        <time>2009-03-29T07:02:40Z</time>
      </trkpt>
      <trkpt lat="44.79337" lon="4.74475">
        <ele>190</ele>
        <time>2009-03-29T07:02:46Z</time>
      </trkpt>
      <trkpt lat="44.79327" lon="4.74478">
        <ele>189</ele>
        <time>2009-03-29T07:02:53Z</time>
      </trkpt>
      <trkpt lat="44.79321" lon="4.74477">
        <ele>189</ele>
        <time>2009-03-29T07:02:58Z</time>
      </trkpt>
      <trkpt lat="44.79313" lon="4.74477">
        <ele>189</ele>
        <time>2009-03-29T07:03:05Z</time>
      </trkpt>
      <trkpt lat="44.79304" lon="4.74475">
        <ele>189</ele>
        <time>2009-03-29T07:03:12Z</time>
      </trkpt>
      <trkpt lat="44.79293" lon="4.74475">
        <ele>189</ele>
        <time>2009-03-29T07:03:20Z</time>
      </trkpt>
      <trkpt lat="44.79284" lon="4.74472">
        <ele>190</ele>
        <time>2009-03-29T07:03:28Z</time>
      </trkpt>
      <trkpt lat="44.79278" lon="4.74466">
        <ele>192</ele>
        <time>2009-03-29T07:03:34Z</time>
      </trkpt>
      <trkpt lat="44.7927" lon="4.74458">
        <ele>194</ele>
        <time>2009-03-29T07:03:42Z</time>
      </trkpt>
      <trkpt lat="44.79263" lon="4.74454">
        <ele>195</ele>
        <time>2009-03-29T07:03:48Z</time>
      </trkpt>
      <trkpt lat="44.79259" lon="4.74446">
        <ele>197</ele>
        <time>2009-03-29T07:03:54Z</time>
      </trkpt>
      <trkpt lat="44.79254" lon="4.74439">
        <ele>199</ele>
        <time>2009-03-29T07:04:00Z</time>
      </trkpt>
      <trkpt lat="44.79249" lon="4.74429">
        <ele>202</ele>
        <time>2009-03-29T07:04:07Z</time>
      </trkpt>
      <trkpt lat="44.79245" lon="4.74419">
        <ele>204</ele>
        <time>2009-03-29T07:04:13Z</time>
      </trkpt>
      <trkpt lat="44.79242" lon="4.7441">
        <ele>205</ele>
        <time>2009-03-29T07:04:19Z</time>
      </trkpt>
      <trkpt lat="44.7924" lon="4.744">
        <ele>207</ele>
        <time>2009-03-29T07:04:26Z</time>
      </trkpt>
      <trkpt lat="44.79236" lon="4.74387">
        <ele>209</ele>
        <time>2009-03-29T07:04:35Z</time>
      </trkpt>
      <trkpt lat="44.79234" lon="4.74378">
        <ele>210</ele>
        <time>2009-03-29T07:04:42Z</time>
      </trkpt>
      <trkpt lat="44.79232" lon="4.74372">
        <ele>210</ele>
        <time>2009-03-29T07:04:49Z</time>
      </trkpt>
      <trkpt lat="44.79228" lon="4.74367">
        <ele>210</ele>
        <time>2009-03-29T07:05:02Z</time>
      </trkpt>
      <trkpt lat="44.79224" lon="4.74356">
        <ele>211</ele>
        <time>2009-03-29T07:05:06Z</time>
      </trkpt>
      <trkpt lat="44.79211" lon="4.74338">
        <ele>210</ele>
        <time>2009-03-29T07:05:11Z</time>
      </trkpt>
      <trkpt lat="44.7919" lon="4.74325">
        <ele>204</ele>
        <time>2009-03-29T07:05:16Z</time>
      </trkpt>
      <trkpt lat="44.79176" lon="4.74312">
        <ele>200</ele>
        <time>2009-03-29T07:05:21Z</time>
      </trkpt>
      <trkpt lat="44.79169" lon="4.743">
        <ele>199</ele>
        <time>2009-03-29T07:05:24Z</time>
      </trkpt>
      <trkpt lat="44.79157" lon="4.74274">
        <ele>199</ele>
        <time>2009-03-29T07:05:30Z</time>
      </trkpt>
      <trkpt lat="44.79156" lon="4.74272">
        <ele>199</ele>
        <time>2009-03-29T07:05:31Z</time>
      </trkpt>
      <trkpt lat="44.79148" lon="4.74259">
        <ele>198</ele>
        <time>2009-03-29T07:05:36Z</time>
      </trkpt>
      <trkpt lat="44.79139" lon="4.74244">
        <ele>197</ele>
        <time>2009-03-29T07:05:40Z</time>
      </trkpt>
      <trkpt lat="44.79135" lon="4.74234">
        <ele>196</ele>
        <time>2009-03-29T07:05:42Z</time>
      </trkpt>
      <trkpt lat="44.79128" lon="4.74211">
        <ele>194</ele>
        <time>2009-03-29T07:05:46Z</time>
      </trkpt>
      <trkpt lat="44.79125" lon="4.74189">
        <ele>193</ele>
        <time>2009-03-29T07:05:51Z</time>
      </trkpt>
      <trkpt lat="44.79128" lon="4.74169">
        <ele>194</ele>
        <time>2009-03-29T07:05:58Z</time>
      </trkpt>
      <trkpt lat="44.79134" lon="4.74156">
        <ele>196</ele>
        <time>2009-03-29T07:06:03Z</time>
      </trkpt>
      <trkpt lat="44.79137" lon="4.74147">
        <ele>197</ele>
        <time>2009-03-29T07:06:05Z</time>
      </trkpt>
      <trkpt lat="44.79134" lon="4.74126">
        <ele>196</ele>
        <time>2009-03-29T07:06:10Z</time>
      </trkpt>
      <trkpt lat="44.79134" lon="4.74107">
        <ele>196</ele>
        <time>2009-03-29T07:06:15Z</time>
      </trkpt>
      <trkpt lat="44.79142" lon="4.74084">
        <ele>198</ele>
        <time>2009-03-29T07:06:21Z</time>
      </trkpt>
      <trkpt lat="44.79146" lon="4.74068">
        <ele>198</ele>
        <time>2009-03-29T07:06:24Z</time>
      </trkpt>
      <trkpt lat="44.79153" lon="4.74045">
        <ele>199</ele>
        <time>2009-03-29T07:06:28Z</time>
      </trkpt>
      <trkpt lat="44.79161" lon="4.74027">
        <ele>199</ele>
        <time>2009-03-29T07:06:33Z</time>
      </trkpt>
      <trkpt lat="44.79166" lon="4.7402">
        <ele>199</ele>
        <time>2009-03-29T07:06:39Z</time>
      </trkpt>
      <trkpt lat="44.79169" lon="4.74018">
        <ele>200</ele>
        <time>2009-03-29T07:06:43Z</time>
      </trkpt>
      <trkpt lat="44.79171" lon="4.74016">
        <ele>201</ele>
        <time>2009-03-29T07:06:50Z</time>
      </trkpt>
      <trkpt lat="44.79171" lon="4.74018">
        <ele>201</ele>
        <time>2009-03-29T07:06:55Z</time>
      </trkpt>
      <trkpt lat="44.79174" lon="4.74016">
        <ele>202</ele>
        <time>2009-03-29T07:07:02Z</time>
      </trkpt>
      <trkpt lat="44.79175" lon="4.74016">
        <ele>202</ele>
        <time>2009-03-29T07:07:11Z</time>
      </trkpt>
      <trkpt lat="44.79176" lon="4.74016">
        <ele>203</ele>
        <time>2009-03-29T07:07:24Z</time>
      </trkpt>
      <trkpt lat="44.79177" lon="4.74015">
        <ele>203</ele>
        <time>2009-03-29T07:07:25Z</time>
      </trkpt>
      <trkpt lat="44.79183" lon="4.74007">
        <ele>204</ele>
        <time>2009-03-29T07:07:32Z</time>
      </trkpt>
      <trkpt lat="44.79185" lon="4.74003">
        <ele>205</ele>
        <time>2009-03-29T07:07:37Z</time>
      </trkpt>
      <trkpt lat="44.79187" lon="4.73998">
        <ele>205</ele>
        <time>2009-03-29T07:07:44Z</time>
      </trkpt>
      <trkpt lat="44.7919" lon="4.73992">
        <ele>206</ele>
        <time>2009-03-29T07:07:51Z</time>
      </trkpt>
      <trkpt lat="44.79196" lon="4.73987">
        <ele>208</ele>
        <time>2009-03-29T07:08:00Z</time>
      </trkpt>
      <trkpt lat="44.792" lon="4.73982">
        <ele>210</ele>
        <time>2009-03-29T07:08:08Z</time>
      </trkpt>
      <trkpt lat="44.79202" lon="4.73981">
        <ele>210</ele>
        <time>2009-03-29T07:08:21Z</time>
      </trkpt>
      <trkpt lat="44.79205" lon="4.73979">
        <ele>211</ele>
        <time>2009-03-29T07:08:26Z</time>
      </trkpt>
      <trkpt lat="44.79212" lon="4.73974">
        <ele>213</ele>
        <time>2009-03-29T07:08:30Z</time>
      </trkpt>
      <trkpt lat="44.79217" lon="4.73966">
        <ele>214</ele>
        <time>2009-03-29T07:08:36Z</time>
      </trkpt>
      <trkpt lat="44.79218" lon="4.73964">
        <ele>214</ele>
        <time>2009-03-29T07:08:42Z</time>
      </trkpt>
      <trkpt lat="44.7922" lon="4.73961">
        <ele>215</ele>
        <time>2009-03-29T07:08:48Z</time>
      </trkpt>
      <trkpt lat="44.79222" lon="4.73958">
        <ele>215</ele>
        <time>2009-03-29T07:08:57Z</time>
      </trkpt>
      <trkpt lat="44.79221" lon="4.73955">
        <ele>214</ele>
        <time>2009-03-29T07:09:01Z</time>
      </trkpt>
      <trkpt lat="44.79221" lon="4.7395">
        <ele>214</ele>
        <time>2009-03-29T07:09:03Z</time>
      </trkpt>
      <trkpt lat="44.79222" lon="4.73939">
        <ele>214</ele>
        <time>2009-03-29T07:09:09Z</time>
      </trkpt>
      <trkpt lat="44.79221" lon="4.73932">
        <ele>213</ele>
        <time>2009-03-29T07:09:14Z</time>
      </trkpt>
      <trkpt lat="44.79218" lon="4.73928">
        <ele>212</ele>
        <time>2009-03-29T07:09:30Z</time>
      </trkpt>
      <trkpt lat="44.79216" lon="4.73924">
        <ele>212</ele>
        <time>2009-03-29T07:09:58Z</time>
      </trkpt>
      <trkpt lat="44.79216" lon="4.73914">
        <ele>212</ele>
        <time>2009-03-29T07:10:07Z</time>
      </trkpt>
      <trkpt lat="44.79215" lon="4.73913">
        <ele>212</ele>
        <time>2009-03-29T07:10:10Z</time>
      </trkpt>
      <trkpt lat="44.79212" lon="4.73914">
        <ele>212</ele>
        <time>2009-03-29T07:10:16Z</time>
      </trkpt>
      <trkpt lat="44.79212" lon="4.73915">
        <ele>211</ele>
        <time>2009-03-29T07:10:20Z</time>
      </trkpt>
      <trkpt lat="44.79207" lon="4.73919">
        <ele>210</ele>
        <time>2009-03-29T07:10:28Z</time>
      </trkpt>
      <trkpt lat="44.79205" lon="4.73923">
        <ele>210</ele>
        <time>2009-03-29T07:10:34Z</time>
      </trkpt>
      <trkpt lat="44.79202" lon="4.73927">
        <ele>210</ele>
        <time>2009-03-29T07:10:39Z</time>
      </trkpt>
      <trkpt lat="44.79198" lon="4.73927">
        <ele>209</ele>
        <time>2009-03-29T07:10:44Z</time>
      </trkpt>
      <trkpt lat="44.79192" lon="4.73929">
        <ele>208</ele>
        <time>2009-03-29T07:10:51Z</time>
      </trkpt>
      <trkpt lat="44.79187" lon="4.73928">
        <ele>207</ele>
        <time>2009-03-29T07:10:56Z</time>
      </trkpt>
      <trkpt lat="44.79182" lon="4.7393">
        <ele>207</ele>
        <time>2009-03-29T07:11:02Z</time>
      </trkpt>
      <trkpt lat="44.7918" lon="4.73931">
        <ele>206</ele>
        <time>2009-03-29T07:11:08Z</time>
      </trkpt>
      <trkpt lat="44.79176" lon="4.73938">
        <ele>205</ele>
        <time>2009-03-29T07:11:17Z</time>
      </trkpt>
      <trkpt lat="44.79161" lon="4.73945">
        <ele>203</ele>
        <time>2009-03-29T07:11:22Z</time>
      </trkpt>
      <trkpt lat="44.79157" lon="4.73947">
        <ele>203</ele>
        <time>2009-03-29T07:11:23Z</time>
      </trkpt>
      <trkpt lat="44.79134" lon="4.73952">
        <ele>202</ele>
        <time>2009-03-29T07:11:27Z</time>
      </trkpt>
      <trkpt lat="44.79113" lon="4.73965">
        <ele>200</ele>
        <time>2009-03-29T07:11:31Z</time>
      </trkpt>
      <trkpt lat="44.79103" lon="4.73971">
        <ele>199</ele>
        <time>2009-03-29T07:11:33Z</time>
      </trkpt>
      <trkpt lat="44.7908" lon="4.7398">
        <ele>196</ele>
        <time>2009-03-29T07:11:37Z</time>
      </trkpt>
      <trkpt lat="44.7906" lon="4.73984">
        <ele>193</ele>
        <time>2009-03-29T07:11:41Z</time>
      </trkpt>
      <trkpt lat="44.7903" lon="4.73971">
        <ele>193</ele>
        <time>2009-03-29T07:11:47Z</time>
      </trkpt>
      <trkpt lat="44.79022" lon="4.73964">
        <ele>193</ele>
        <time>2009-03-29T07:11:49Z</time>
      </trkpt>
      <trkpt lat="44.79007" lon="4.73949">
        <ele>195</ele>
        <time>2009-03-29T07:11:53Z</time>
      </trkpt>
      <trkpt lat="44.78991" lon="4.73937">
        <ele>195</ele>
        <time>2009-03-29T07:11:56Z</time>
      </trkpt>
      <trkpt lat="44.7897" lon="4.73922">
        <ele>195</ele>
        <time>2009-03-29T07:12:00Z</time>
      </trkpt>
      <trkpt lat="44.78938" lon="4.73903">
        <ele>192</ele>
        <time>2009-03-29T07:12:07Z</time>
      </trkpt>
      <trkpt lat="44.78922" lon="4.7389">
        <ele>192</ele>
        <time>2009-03-29T07:12:12Z</time>
      </trkpt>
      <trkpt lat="44.78909" lon="4.7387">
        <ele>193</ele>
        <time>2009-03-29T07:12:19Z</time>
      </trkpt>
      <trkpt lat="44.78899" lon="4.73845">
        <ele>195</ele>
        <time>2009-03-29T07:12:26Z</time>
      </trkpt>
      <trkpt lat="44.78894" lon="4.73818">
        <ele>197</ele>
        <time>2009-03-29T07:12:33Z</time>
      </trkpt>
      <trkpt lat="44.78894" lon="4.73777">
        <ele>201</ele>
        <time>2009-03-29T07:12:42Z</time>
      </trkpt>
      <trkpt lat="44.78892" lon="4.73741">
        <ele>204</ele>
        <time>2009-03-29T07:12:50Z</time>
      </trkpt>
      <trkpt lat="44.78888" lon="4.7372">
        <ele>205</ele>
        <time>2009-03-29T07:12:57Z</time>
      </trkpt>
      <trkpt lat="44.78887" lon="4.73715">
        <ele>206</ele>
        <time>2009-03-29T07:12:59Z</time>
      </trkpt>
      <trkpt lat="44.78894" lon="4.73701">
        <ele>209</ele>
        <time>2009-03-29T07:13:06Z</time>
      </trkpt>
      <trkpt lat="44.78894" lon="4.73699">
        <ele>209</ele>
        <time>2009-03-29T07:13:07Z</time>
      </trkpt>
      <trkpt lat="44.78892" lon="4.73683">
        <ele>210</ele>
        <time>2009-03-29T07:13:15Z</time>
      </trkpt>
      <trkpt lat="44.78889" lon="4.73674">
        <ele>210</ele>
        <time>2009-03-29T07:13:20Z</time>
      </trkpt>
      <trkpt lat="44.78885" lon="4.73659">
        <ele>212</ele>
        <time>2009-03-29T07:13:29Z</time>
      </trkpt>
      <trkpt lat="44.78885" lon="4.73657">
        <ele>212</ele>
        <time>2009-03-29T07:13:30Z</time>
      </trkpt>
      <trkpt lat="44.78883" lon="4.73654">
        <ele>212</ele>
        <time>2009-03-29T07:13:32Z</time>
      </trkpt>
      <trkpt lat="44.78876" lon="4.73645">
        <ele>212</ele>
        <time>2009-03-29T07:13:40Z</time>
      </trkpt>
      <trkpt lat="44.78875" lon="4.73644">
        <ele>212</ele>
        <time>2009-03-29T07:13:41Z</time>
      </trkpt>
      <trkpt lat="44.78869" lon="4.73635">
        <ele>211</ele>
        <time>2009-03-29T07:13:48Z</time>
      </trkpt>
      <trkpt lat="44.78861" lon="4.73627">
        <ele>210</ele>
        <time>2009-03-29T07:13:56Z</time>
      </trkpt>
      <trkpt lat="44.78857" lon="4.73619">
        <ele>210</ele>
        <time>2009-03-29T07:14:03Z</time>
      </trkpt>
      <trkpt lat="44.78851" lon="4.7361">
        <ele>210</ele>
        <time>2009-03-29T07:14:10Z</time>
      </trkpt>
      <trkpt lat="44.78848" lon="4.73598">
        <ele>210</ele>
        <time>2009-03-29T07:14:15Z</time>
      </trkpt>
      <trkpt lat="44.78852" lon="4.73594">
        <ele>212</ele>
        <time>2009-03-29T07:14:21Z</time>
      </trkpt>
      <trkpt lat="44.78852" lon="4.73595">
        <ele>213</ele>
        <time>2009-03-29T07:14:22Z</time>
      </trkpt>
      <trkpt lat="44.78861" lon="4.73601">
        <ele>215</ele>
        <time>2009-03-29T07:14:31Z</time>
      </trkpt>
      <trkpt lat="44.78868" lon="4.73604">
        <ele>217</ele>
        <time>2009-03-29T07:14:38Z</time>
      </trkpt>
      <trkpt lat="44.78876" lon="4.73605">
        <ele>220</ele>
        <time>2009-03-29T07:14:45Z</time>
      </trkpt>
      <trkpt lat="44.78878" lon="4.73605">
        <ele>220</ele>
        <time>2009-03-29T07:14:46Z</time>
      </trkpt>
      <trkpt lat="44.78879" lon="4.73598">
        <ele>222</ele>
        <time>2009-03-29T07:14:52Z</time>
      </trkpt>
      <trkpt lat="44.78875" lon="4.73593">
        <ele>222</ele>
        <time>2009-03-29T07:14:59Z</time>
      </trkpt>
      <trkpt lat="44.7887" lon="4.73585">
        <ele>221</ele>
        <time>2009-03-29T07:15:06Z</time>
      </trkpt>
      <trkpt lat="44.78867" lon="4.73575">
        <ele>221</ele>
        <time>2009-03-29T07:15:13Z</time>
      </trkpt>
      <trkpt lat="44.78867" lon="4.73568">
        <ele>221</ele>
        <time>2009-03-29T07:15:16Z</time>
      </trkpt>
      <trkpt lat="44.7887" lon="4.73553">
        <ele>224</ele>
        <time>2009-03-29T07:15:25Z</time>
      </trkpt>
      <trkpt lat="44.78873" lon="4.73542">
        <ele>226</ele>
        <time>2009-03-29T07:15:31Z</time>
      </trkpt>
      <trkpt lat="44.78873" lon="4.73527">
        <ele>227</ele>
        <time>2009-03-29T07:15:39Z</time>
      </trkpt>
      <trkpt lat="44.78868" lon="4.73515">
        <ele>226</ele>
        <time>2009-03-29T07:15:45Z</time>
      </trkpt>
      <trkpt lat="44.78867" lon="4.73506">
        <ele>226</ele>
        <time>2009-03-29T07:15:48Z</time>
      </trkpt>
      <trkpt lat="44.78865" lon="4.73503">
        <ele>225</ele>
        <time>2009-03-29T07:15:50Z</time>
      </trkpt>
      <trkpt lat="44.78862" lon="4.7351">
        <ele>223</ele>
        <time>2009-03-29T07:15:56Z</time>
      </trkpt>
      <trkpt lat="44.78862" lon="4.73511">
        <ele>223</ele>
        <time>2009-03-29T07:15:57Z</time>
      </trkpt>
      <trkpt lat="44.7886" lon="4.73512">
        <ele>222</ele>
        <time>2009-03-29T07:16:00Z</time>
      </trkpt>
      <trkpt lat="44.78856" lon="4.73502">
        <ele>221</ele>
        <time>2009-03-29T07:16:06Z</time>
      </trkpt>
      <trkpt lat="44.78856" lon="4.73495">
        <ele>221</ele>
        <time>2009-03-29T07:16:09Z</time>
      </trkpt>
      <trkpt lat="44.78856" lon="4.73488">
        <ele>220</ele>
        <time>2009-03-29T07:16:12Z</time>
      </trkpt>
      <trkpt lat="44.78854" lon="4.73478">
        <ele>219</ele>
        <time>2009-03-29T07:16:17Z</time>
      </trkpt>
      <trkpt lat="44.78852" lon="4.73475">
        <ele>218</ele>
        <time>2009-03-29T07:16:22Z</time>
      </trkpt>
      <trkpt lat="44.78852" lon="4.73472">
        <ele>217</ele>
        <time>2009-03-29T07:16:30Z</time>
      </trkpt>
      <trkpt lat="44.78852" lon="4.73472">
        <ele>217</ele>
        <time>2009-03-29T07:16:32Z</time>
      </trkpt>
      <trkpt lat="44.78849" lon="4.73469">
        <ele>216</ele>
        <time>2009-03-29T07:16:38Z</time>
      </trkpt>
      <trkpt lat="44.78849" lon="4.7347">
        <ele>216</ele>
        <time>2009-03-29T07:16:47Z</time>
      </trkpt>
      <trkpt lat="44.78846" lon="4.73468">
        <ele>215</ele>
        <time>2009-03-29T07:16:55Z</time>
      </trkpt>
      <trkpt lat="44.78844" lon="4.73468">
        <ele>214</ele>
        <time>2009-03-29T07:17:02Z</time>
      </trkpt>
      <trkpt lat="44.78842" lon="4.73467">
        <ele>213</ele>
        <time>2009-03-29T07:17:07Z</time>
      </trkpt>
      <trkpt lat="44.78839" lon="4.73462">
        <ele>212</ele>
        <time>2009-03-29T07:17:15Z</time>
      </trkpt>
      <trkpt lat="44.78839" lon="4.73461">
        <ele>211</ele>
        <time>2009-03-29T07:17:16Z</time>
      </trkpt>
      <trkpt lat="44.78837" lon="4.7345">
        <ele>210</ele>
        <time>2009-03-29T07:17:20Z</time>
      </trkpt>
      <trkpt lat="44.78841" lon="4.73417">
        <ele>210</ele>
        <time>2009-03-29T07:17:27Z</time>
      </trkpt>
      <trkpt lat="44.78843" lon="4.73402">
        <ele>210</ele>
        <time>2009-03-29T07:17:31Z</time>
      </trkpt>
      <trkpt lat="44.78846" lon="4.73388">
        <ele>210</ele>
        <time>2009-03-29T07:17:35Z</time>
      </trkpt>
      <trkpt lat="44.78847" lon="4.73382">
        <ele>210</ele>
        <time>2009-03-29T07:17:37Z</time>
      </trkpt>
      <trkpt lat="44.78843" lon="4.73368">
        <ele>208</ele>
        <time>2009-03-29T07:17:42Z</time>
      </trkpt>
      <trkpt lat="44.78836" lon="4.73363">
        <ele>206</ele>
        <time>2009-03-29T07:17:46Z</time>
      </trkpt>
      <trkpt lat="44.78835" lon="4.73359">
        <ele>206</ele>
        <time>2009-03-29T07:17:47Z</time>
      </trkpt>
      <trkpt lat="44.78836" lon="4.73352">
        <ele>206</ele>
        <time>2009-03-29T07:17:49Z</time>
      </trkpt>
      <trkpt lat="44.78835" lon="4.73338">
        <ele>205</ele>
        <time>2009-03-29T07:17:55Z</time>
      </trkpt>
      <trkpt lat="44.7883" lon="4.73339">
        <ele>204</ele>
        <time>2009-03-29T07:17:58Z</time>
      </trkpt>
      <trkpt lat="44.78825" lon="4.7334">
        <ele>205</ele>
        <time>2009-03-29T07:18:02Z</time>
      </trkpt>
      <trkpt lat="44.78824" lon="4.73341">
        <ele>205</ele>
        <time>2009-03-29T07:18:08Z</time>
      </trkpt>
      <trkpt lat="44.78819" lon="4.73348">
        <ele>205</ele>
        <time>2009-03-29T07:18:25Z</time>
      </trkpt>
      <trkpt lat="44.78814" lon="4.73353">
        <ele>206</ele>
        <time>2009-03-29T07:18:30Z</time>
      </trkpt>
      <trkpt lat="44.78806" lon="4.73361">
        <ele>206</ele>
        <time>2009-03-29T07:18:36Z</time>
      </trkpt>
      <trkpt lat="44.78793" lon="4.73368">
        <ele>205</ele>
        <time>2009-03-29T07:18:43Z</time>
      </trkpt>
      <trkpt lat="44.78784" lon="4.73375">
        <ele>205</ele>
        <time>2009-03-29T07:18:48Z</time>
      </trkpt>
      <trkpt lat="44.78772" lon="4.73396">
        <ele>202</ele>
        <time>2009-03-29T07:18:56Z</time>
      </trkpt>
      <trkpt lat="44.78759" lon="4.73414">
        <ele>198</ele>
        <time>2009-03-29T07:19:02Z</time>
      </trkpt>
      <trkpt lat="44.78748" lon="4.73423">
        <ele>195</ele>
        <time>2009-03-29T07:19:06Z</time>
      </trkpt>
      <trkpt lat="44.78731" lon="4.73426">
        <ele>194</ele>
        <time>2009-03-29T07:19:13Z</time>
      </trkpt>
      <trkpt lat="44.78722" lon="4.73416">
        <ele>195</ele>
        <time>2009-03-29T07:19:17Z</time>
      </trkpt>
      <trkpt lat="44.78717" lon="4.73401">
        <ele>198</ele>
        <time>2009-03-29T07:19:22Z</time>
      </trkpt>
      <trkpt lat="44.78711" lon="4.73389">
        <ele>199</ele>
        <time>2009-03-29T07:19:26Z</time>
      </trkpt>
      <trkpt lat="44.78706" lon="4.73378">
        <ele>201</ele>
        <time>2009-03-29T07:19:30Z</time>
      </trkpt>
      <trkpt lat="44.78694" lon="4.73376">
        <ele>201</ele>
        <time>2009-03-29T07:19:37Z</time>
      </trkpt>
      <trkpt lat="44.7869" lon="4.73376">
        <ele>201</ele>
        <time>2009-03-29T07:19:39Z</time>
      </trkpt>
      <trkpt lat="44.78679" lon="4.73369">
        <ele>201</ele>
        <time>2009-03-29T07:19:47Z</time>
      </trkpt>
      <trkpt lat="44.78669" lon="4.73359">
        <ele>202</ele>
        <time>2009-03-29T07:19:54Z</time>
      </trkpt>
      <trkpt lat="44.78662" lon="4.73345">
        <ele>204</ele>
        <time>2009-03-29T07:20:02Z</time>
      </trkpt>
      <trkpt lat="44.78656" lon="4.73329">
        <ele>205</ele>
        <time>2009-03-29T07:20:11Z</time>
      </trkpt>
      <trkpt lat="44.7865" lon="4.73316">
        <ele>206</ele>
        <time>2009-03-29T07:20:19Z</time>
      </trkpt>
      <trkpt lat="44.78645" lon="4.733">
        <ele>207</ele>
        <time>2009-03-29T07:20:27Z</time>
      </trkpt>
      <trkpt lat="44.78638" lon="4.73284">
        <ele>208</ele>
        <time>2009-03-29T07:20:35Z</time>
      </trkpt>
      <trkpt lat="44.78632" lon="4.73271">
        <ele>208</ele>
        <time>2009-03-29T07:20:42Z</time>
      </trkpt>
      <trkpt lat="44.78628" lon="4.73259">
        <ele>209</ele>
        <time>2009-03-29T07:20:48Z</time>
      </trkpt>
      <trkpt lat="44.78626" lon="4.73245">
        <ele>211</ele>
        <time>2009-03-29T07:20:54Z</time>
      </trkpt>
      <trkpt lat="44.78621" lon="4.73228">
        <ele>213</ele>
        <time>2009-03-29T07:21:01Z</time>
      </trkpt>
      <trkpt lat="44.78614" lon="4.7321">
        <ele>215</ele>
        <time>2009-03-29T07:21:09Z</time>
      </trkpt>
      <trkpt lat="44.78605" lon="4.73199">
        <ele>215</ele>
        <time>2009-03-29T07:21:16Z</time>
      </trkpt>
      <trkpt lat="44.78598" lon="4.73188">
        <ele>215</ele>
        <time>2009-03-29T07:21:22Z</time>
      </trkpt>
      <trkpt lat="44.78587" lon="4.73173">
        <ele>215</ele>
        <time>2009-03-29T07:21:29Z</time>
      </trkpt>
      <trkpt lat="44.78581" lon="4.7316">
        <ele>216</ele>
        <time>2009-03-29T07:21:36Z</time>
      </trkpt>
      <trkpt lat="44.78577" lon="4.73148">
        <ele>218</ele>
        <time>2009-03-29T07:21:43Z</time>
      </trkpt>
      <trkpt lat="44.78574" lon="4.73138">
        <ele>219</ele>
        <time>2009-03-29T07:21:50Z</time>
      </trkpt>
      <trkpt lat="44.78574" lon="4.73127">
        <ele>222</ele>
        <time>2009-03-29T07:21:55Z</time>
      </trkpt>
      <trkpt lat="44.7857" lon="4.73118">
        <ele>223</ele>
        <time>2009-03-29T07:22:00Z</time>
      </trkpt>
      <trkpt lat="44.78557" lon="4.73106">
        <ele>222</ele>
        <time>2009-03-29T07:22:08Z</time>
      </trkpt>
      <trkpt lat="44.78548" lon="4.73092">
        <ele>222</ele>
        <time>2009-03-29T07:22:15Z</time>
      </trkpt>
      <trkpt lat="44.78537" lon="4.73081">
        <ele>222</ele>
        <time>2009-03-29T07:22:20Z</time>
      </trkpt>
      <trkpt lat="44.78522" lon="4.73066">
        <ele>220</ele>
        <time>2009-03-29T07:22:25Z</time>
      </trkpt>
      <trkpt lat="44.78512" lon="4.73041">
        <ele>222</ele>
        <time>2009-03-29T07:22:31Z</time>
      </trkpt>
      <trkpt lat="44.78511" lon="4.7303">
        <ele>223</ele>
        <time>2009-03-29T07:22:33Z</time>
      </trkpt>
      <trkpt lat="44.785" lon="4.73003">
        <ele>224</ele>
        <time>2009-03-29T07:22:38Z</time>
      </trkpt>
      <trkpt lat="44.7849" lon="4.72993">
        <ele>223</ele>
        <time>2009-03-29T07:22:41Z</time>
      </trkpt>
      <trkpt lat="44.7847" lon="4.72974">
        <ele>220</ele>
        <time>2009-03-29T07:22:47Z</time>
      </trkpt>
      <trkpt lat="44.78461" lon="4.72962">
        <ele>219</ele>
        <time>2009-03-29T07:22:53Z</time>
      </trkpt>
      <trkpt lat="44.78452" lon="4.72948">
        <ele>218</ele>
        <time>2009-03-29T07:23:00Z</time>
      </trkpt>
      <trkpt lat="44.78449" lon="4.72936">
        <ele>218</ele>
        <time>2009-03-29T07:23:05Z</time>
      </trkpt>
      <trkpt lat="44.78455" lon="4.72927">
        <ele>220</ele>
        <time>2009-03-29T07:23:10Z</time>
      </trkpt>
      <trkpt lat="44.78456" lon="4.72924">
        <ele>220</ele>
        <time>2009-03-29T07:23:11Z</time>
      </trkpt>
      <trkpt lat="44.78463" lon="4.72912">
        <ele>223</ele>
        <time>2009-03-29T07:23:15Z</time>
      </trkpt>
      <trkpt lat="44.78473" lon="4.72883">
        <ele>227</ele>
        <time>2009-03-29T07:23:20Z</time>
      </trkpt>
      <trkpt lat="44.78469" lon="4.72877">
        <ele>226</ele>
        <time>2009-03-29T07:23:22Z</time>
      </trkpt>
      <trkpt lat="44.78466" lon="4.72874">
        <ele>226</ele>
        <time>2009-03-29T07:23:23Z</time>
      </trkpt>
      <trkpt lat="44.78456" lon="4.72864">
        <ele>224</ele>
        <time>2009-03-29T07:23:28Z</time>
      </trkpt>
      <trkpt lat="44.78448" lon="4.72857">
        <ele>223</ele>
        <time>2009-03-29T07:23:34Z</time>
      </trkpt>
      <trkpt lat="44.78442" lon="4.7285">
        <ele>222</ele>
        <time>2009-03-29T07:23:39Z</time>
      </trkpt>
      <trkpt lat="44.78437" lon="4.72843">
        <ele>222</ele>
        <time>2009-03-29T07:23:45Z</time>
      </trkpt>
      <trkpt lat="44.78434" lon="4.72837">
        <ele>221</ele>
        <time>2009-03-29T07:23:50Z</time>
      </trkpt>
      <trkpt lat="44.78432" lon="4.72833">
        <ele>221</ele>
        <time>2009-03-29T07:23:58Z</time>
      </trkpt>
      <trkpt lat="44.78427" lon="4.72826">
        <ele>221</ele>
        <time>2009-03-29T07:24:03Z</time>
      </trkpt>
      <trkpt lat="44.78422" lon="4.72815">
        <ele>223</ele>
        <time>2009-03-29T07:24:09Z</time>
      </trkpt>
      <trkpt lat="44.78419" lon="4.728">
        <ele>225</ele>
        <time>2009-03-29T07:24:17Z</time>
      </trkpt>
      <trkpt lat="44.78418" lon="4.72798">
        <ele>226</ele>
        <time>2009-03-29T07:24:18Z</time>
      </trkpt>
      <trkpt lat="44.78418" lon="4.72792">
        <ele>227</ele>
        <time>2009-03-29T07:24:21Z</time>
      </trkpt>
      <trkpt lat="44.78416" lon="4.72777">
        <ele>229</ele>
        <time>2009-03-29T07:24:27Z</time>
      </trkpt>
      <trkpt lat="44.78416" lon="4.72763">
        <ele>232</ele>
        <time>2009-03-29T07:24:34Z</time>
      </trkpt>
      <trkpt lat="44.78415" lon="4.72756">
        <ele>233</ele>
        <time>2009-03-29T07:24:43Z</time>
      </trkpt>
      <trkpt lat="44.78415" lon="4.72755">
        <ele>233</ele>
        <time>2009-03-29T07:24:44Z</time>
      </trkpt>
      <trkpt lat="44.78416" lon="4.72743">
        <ele>236</ele>
        <time>2009-03-29T07:24:51Z</time>
      </trkpt>
      <trkpt lat="44.78418" lon="4.72727">
        <ele>239</ele>
        <time>2009-03-29T07:24:59Z</time>
      </trkpt>
      <trkpt lat="44.78418" lon="4.72723">
        <ele>239</ele>
        <time>2009-03-29T07:25:01Z</time>
      </trkpt>
      <trkpt lat="44.78418" lon="4.72718">
        <ele>240</ele>
        <time>2009-03-29T07:25:06Z</time>
      </trkpt>
      <trkpt lat="44.78417" lon="4.72713">
        <ele>241</ele>
        <time>2009-03-29T07:25:12Z</time>
      </trkpt>
      <trkpt lat="44.78416" lon="4.72708">
        <ele>241</ele>
        <time>2009-03-29T07:25:19Z</time>
      </trkpt>
      <trkpt lat="44.78416" lon="4.727">
        <ele>243</ele>
        <time>2009-03-29T07:25:28Z</time>
      </trkpt>
      <trkpt lat="44.78416" lon="4.72694">
        <ele>244</ele>
        <time>2009-03-29T07:25:34Z</time>
      </trkpt>
      <trkpt lat="44.78416" lon="4.72686">
        <ele>244</ele>
        <time>2009-03-29T07:25:42Z</time>
      </trkpt>
      <trkpt lat="44.78414" lon="4.72681">
        <ele>244</ele>
        <time>2009-03-29T07:25:50Z</time>
      </trkpt>
      <trkpt lat="44.78411" lon="4.72673">
        <ele>244</ele>
        <time>2009-03-29T07:25:57Z</time>
      </trkpt>
      <trkpt lat="44.7841" lon="4.72668">
        <ele>244</ele>
        <time>2009-03-29T07:26:04Z</time>
      </trkpt>
      <trkpt lat="44.7841" lon="4.72668">
        <ele>244</ele>
        <time>2009-03-29T07:26:05Z</time>
      </trkpt>
      <trkpt lat="44.78406" lon="4.72646">
        <ele>245</ele>
        <time>2009-03-29T07:26:14Z</time>
      </trkpt>
      <trkpt lat="44.78402" lon="4.72619">
        <ele>247</ele>
        <time>2009-03-29T07:26:22Z</time>
      </trkpt>
      <trkpt lat="44.78396" lon="4.72596">
        <ele>247</ele>
        <time>2009-03-29T07:26:30Z</time>
      </trkpt>
      <trkpt lat="44.78396" lon="4.7258">
        <ele>249</ele>
        <time>2009-03-29T07:26:36Z</time>
      </trkpt>
      <trkpt lat="44.78397" lon="4.72566">
        <ele>251</ele>
        <time>2009-03-29T07:26:42Z</time>
      </trkpt>
      <trkpt lat="44.78399" lon="4.72549">
        <ele>254</ele>
        <time>2009-03-29T07:26:50Z</time>
      </trkpt>
      <trkpt lat="44.78399" lon="4.72543">
        <ele>255</ele>
        <time>2009-03-29T07:26:53Z</time>
      </trkpt>
      <trkpt lat="44.78392" lon="4.72533">
        <ele>252</ele>
        <time>2009-03-29T07:26:58Z</time>
      </trkpt>
      <trkpt lat="44.78378" lon="4.72517">
        <ele>247</ele>
        <time>2009-03-29T07:27:03Z</time>
      </trkpt>
      <trkpt lat="44.78371" lon="4.72493">
        <ele>245</ele>
        <time>2009-03-29T07:27:07Z</time>
      </trkpt>
      <trkpt lat="44.78372" lon="4.72489">
        <ele>245</ele>
        <time>2009-03-29T07:27:08Z</time>
      </trkpt>
      <trkpt lat="44.78382" lon="4.72463">
        <ele>247</ele>
        <time>2009-03-29T07:27:16Z</time>
      </trkpt>
      <trkpt lat="44.7839" lon="4.72449">
        <ele>249</ele>
        <time>2009-03-29T07:27:22Z</time>
      </trkpt>
      <trkpt lat="44.78401" lon="4.72433">
        <ele>251</ele>
        <time>2009-03-29T07:27:29Z</time>
      </trkpt>
      <trkpt lat="44.78409" lon="4.7242">
        <ele>252</ele>
        <time>2009-03-29T07:27:34Z</time>
      </trkpt>
      <trkpt lat="44.7842" lon="4.72411">
        <ele>254</ele>
        <time>2009-03-29T07:27:40Z</time>
      </trkpt>
      <trkpt lat="44.78426" lon="4.72405">
        <ele>255</ele>
        <time>2009-03-29T07:27:46Z</time>
      </trkpt>
      <trkpt lat="44.78426" lon="4.72404">
        <ele>254</ele>
        <time>2009-03-29T07:27:54Z</time>
      </trkpt>
      <trkpt lat="44.78428" lon="4.72397">
        <ele>253</ele>
        <time>2009-03-29T07:28:16Z</time>
      </trkpt>
      <trkpt lat="44.78439" lon="4.72389">
        <ele>255</ele>
        <time>2009-03-29T07:28:23Z</time>
      </trkpt>
      <trkpt lat="44.7844" lon="4.72386">
        <ele>255</ele>
        <time>2009-03-29T07:28:28Z</time>
      </trkpt>
      <trkpt lat="44.7844" lon="4.72383">
        <ele>254</ele>
        <time>2009-03-29T07:28:34Z</time>
      </trkpt>
      <trkpt lat="44.78443" lon="4.7238">
        <ele>254</ele>
        <time>2009-03-29T07:28:39Z</time>
      </trkpt>
      <trkpt lat="44.78443" lon="4.7238">
        <ele>254</ele>
        <time>2009-03-29T07:28:40Z</time>
      </trkpt>
      <trkpt lat="44.78449" lon="4.72371">
        <ele>254</ele>
        <time>2009-03-29T07:28:45Z</time>
      </trkpt>
      <trkpt lat="44.78461" lon="4.72351">
        <ele>253</ele>
        <time>2009-03-29T07:28:51Z</time>
      </trkpt>
      <trkpt lat="44.78466" lon="4.72343">
        <ele>253</ele>
        <time>2009-03-29T07:28:54Z</time>
      </trkpt>
      <trkpt lat="44.78469" lon="4.72326">
        <ele>252</ele>
        <time>2009-03-29T07:28:58Z</time>
      </trkpt>
      <trkpt lat="44.78469" lon="4.72312">
        <ele>251</ele>
        <time>2009-03-29T07:29:01Z</time>
      </trkpt>
      <trkpt lat="44.78474" lon="4.72298">
        <ele>253</ele>
        <time>2009-03-29T07:29:07Z</time>
      </trkpt>
      <trkpt lat="44.78475" lon="4.72296">
        <ele>254</ele>
        <time>2009-03-29T07:29:08Z</time>
      </trkpt>
      <trkpt lat="44.78485" lon="4.72287">
        <ele>257</ele>
        <time>2009-03-29T07:29:15Z</time>
      </trkpt>
      <trkpt lat="44.78485" lon="4.72285">
        <ele>257</ele>
        <time>2009-03-29T07:29:20Z</time>
      </trkpt>
      <trkpt lat="44.78486" lon="4.72281">
        <ele>257</ele>
        <time>2009-03-29T07:29:25Z</time>
      </trkpt>
      <trkpt lat="44.78487" lon="4.72277">
        <ele>257</ele>
        <time>2009-03-29T07:29:30Z</time>
      </trkpt>
      <trkpt lat="44.78483" lon="4.72276">
        <ele>256</ele>
        <time>2009-03-29T07:29:38Z</time>
      </trkpt>
      <trkpt lat="44.78478" lon="4.72276">
        <ele>254</ele>
        <time>2009-03-29T07:29:45Z</time>
      </trkpt>
      <trkpt lat="44.78474" lon="4.72275">
        <ele>253</ele>
        <time>2009-03-29T07:29:51Z</time>
      </trkpt>
      <trkpt lat="44.78469" lon="4.72273">
        <ele>252</ele>
        <time>2009-03-29T07:29:59Z</time>
      </trkpt>
      <trkpt lat="44.78466" lon="4.72267">
        <ele>251</ele>
        <time>2009-03-29T07:30:07Z</time>
      </trkpt>
      <trkpt lat="44.78465" lon="4.7226">
        <ele>251</ele>
        <time>2009-03-29T07:30:16Z</time>
      </trkpt>
      <trkpt lat="44.78463" lon="4.72255">
        <ele>251</ele>
        <time>2009-03-29T07:30:23Z</time>
      </trkpt>
      <trkpt lat="44.78462" lon="4.72251">
        <ele>250</ele>
        <time>2009-03-29T07:30:29Z</time>
      </trkpt>
      <trkpt lat="44.7846" lon="4.72245">
        <ele>251</ele>
        <time>2009-03-29T07:30:35Z</time>
      </trkpt>
      <trkpt lat="44.78459" lon="4.72243">
        <ele>251</ele>
        <time>2009-03-29T07:30:38Z</time>
      </trkpt>
      <trkpt lat="44.78458" lon="4.72235">
        <ele>253</ele>
        <time>2009-03-29T07:30:43Z</time>
      </trkpt>
      <trkpt lat="44.78459" lon="4.72222">
        <ele>255</ele>
        <time>2009-03-29T07:30:51Z</time>
      </trkpt>
      <trkpt lat="44.78461" lon="4.72217">
        <ele>257</ele>
        <time>2009-03-29T07:30:57Z</time>
      </trkpt>
      <trkpt lat="44.78463" lon="4.72207">
        <ele>259</ele>
        <time>2009-03-29T07:31:04Z</time>
      </trkpt>
      <trkpt lat="44.78463" lon="4.72205">
        <ele>259</ele>
        <time>2009-03-29T07:31:10Z</time>
      </trkpt>
      <trkpt lat="44.78465" lon="4.72202">
        <ele>260</ele>
        <time>2009-03-29T07:31:23Z</time>
      </trkpt>
      <trkpt lat="44.78468" lon="4.72196">
        <ele>262</ele>
        <time>2009-03-29T07:31:30Z</time>
      </trkpt>
      <trkpt lat="44.78469" lon="4.72189">
        <ele>263</ele>
        <time>2009-03-29T07:31:35Z</time>
      </trkpt>
      <trkpt lat="44.7847" lon="4.7218">
        <ele>265</ele>
        <time>2009-03-29T07:31:41Z</time>
      </trkpt>
      <trkpt lat="44.78472" lon="4.72172">
        <ele>267</ele>
        <time>2009-03-29T07:31:49Z</time>
      </trkpt>
      <trkpt lat="44.78473" lon="4.72168">
        <ele>268</ele>
        <time>2009-03-29T07:31:55Z</time>
      </trkpt>
      <trkpt lat="44.78474" lon="4.72163">
        <ele>269</ele>
        <time>2009-03-29T07:32:03Z</time>
      </trkpt>
      <trkpt lat="44.78474" lon="4.72159">
        <ele>269</ele>
        <time>2009-03-29T07:32:09Z</time>
      </trkpt>
      <trkpt lat="44.7847" lon="4.72152">
        <ele>269</ele>
        <time>2009-03-29T07:32:17Z</time>
      </trkpt>
      <trkpt lat="44.78471" lon="4.72144">
        <ele>270</ele>
        <time>2009-03-29T07:32:24Z</time>
      </trkpt>
      <trkpt lat="44.78474" lon="4.72136">
        <ele>271</ele>
        <time>2009-03-29T07:32:30Z</time>
      </trkpt>
      <trkpt lat="44.7848" lon="4.7212">
        <ele>272</ele>
        <time>2009-03-29T07:32:36Z</time>
      </trkpt>
      <trkpt lat="44.78486" lon="4.72109">
        <ele>272</ele>
        <time>2009-03-29T07:32:40Z</time>
      </trkpt>
      <trkpt lat="44.78487" lon="4.72105">
        <ele>272</ele>
        <time>2009-03-29T07:32:43Z</time>
      </trkpt>
      <trkpt lat="44.78489" lon="4.72099">
        <ele>272</ele>
        <time>2009-03-29T07:32:48Z</time>
      </trkpt>
      <trkpt lat="44.7849" lon="4.7209">
        <ele>272</ele>
        <time>2009-03-29T07:32:55Z</time>
      </trkpt>
      <trkpt lat="44.78492" lon="4.72084">
        <ele>272</ele>
        <time>2009-03-29T07:33:02Z</time>
      </trkpt>
      <trkpt lat="44.78493" lon="4.72078">
        <ele>272</ele>
        <time>2009-03-29T07:33:08Z</time>
      </trkpt>
      <trkpt lat="44.78495" lon="4.7207">
        <ele>272</ele>
        <time>2009-03-29T07:33:15Z</time>
      </trkpt>
      <trkpt lat="44.78498" lon="4.72061">
        <ele>272</ele>
        <time>2009-03-29T07:33:22Z</time>
      </trkpt>
      <trkpt lat="44.78499" lon="4.72058">
        <ele>272</ele>
        <time>2009-03-29T07:33:30Z</time>
      </trkpt>
      <trkpt lat="44.785" lon="4.72058">
        <ele>272</ele>
        <time>2009-03-29T07:33:31Z</time>
      </trkpt>
      <trkpt lat="44.78502" lon="4.72051">
        <ele>273</ele>
        <time>2009-03-29T07:33:37Z</time>
      </trkpt>
      <trkpt lat="44.78503" lon="4.72043">
        <ele>273</ele>
        <time>2009-03-29T07:33:43Z</time>
      </trkpt>
      <trkpt lat="44.78499" lon="4.72036">
        <ele>273</ele>
        <time>2009-03-29T07:33:49Z</time>
      </trkpt>
      <trkpt lat="44.78498" lon="4.72033">
        <ele>274</ele>
        <time>2009-03-29T07:33:57Z</time>
      </trkpt>
      <trkpt lat="44.78495" lon="4.7203">
        <ele>275</ele>
        <time>2009-03-29T07:34:05Z</time>
      </trkpt>
      <trkpt lat="44.78495" lon="4.72029">
        <ele>275</ele>
        <time>2009-03-29T07:34:14Z</time>
      </trkpt>
      <trkpt lat="44.78497" lon="4.72026">
        <ele>275</ele>
        <time>2009-03-29T07:34:21Z</time>
      </trkpt>
      <trkpt lat="44.78497" lon="4.72023">
        <ele>275</ele>
        <time>2009-03-29T07:34:27Z</time>
      </trkpt>
      <trkpt lat="44.78499" lon="4.72018">
        <ele>274</ele>
        <time>2009-03-29T07:34:32Z</time>
      </trkpt>
      <trkpt lat="44.78502" lon="4.72016">
        <ele>275</ele>
        <time>2009-03-29T07:34:41Z</time>
      </trkpt>
      <trkpt lat="44.78506" lon="4.72008">
        <ele>276</ele>
        <time>2009-03-29T07:34:53Z</time>
      </trkpt>
      <trkpt lat="44.78506" lon="4.72003">
        <ele>276</ele>
        <time>2009-03-29T07:34:59Z</time>
      </trkpt>
      <trkpt lat="44.78503" lon="4.72001">
        <ele>275</ele>
        <time>2009-03-29T07:35:05Z</time>
      </trkpt>
      <trkpt lat="44.78502" lon="4.71999">
        <ele>275</ele>
        <time>2009-03-29T07:35:12Z</time>
      </trkpt>
      <trkpt lat="44.78501" lon="4.72001">
        <ele>275</ele>
        <time>2009-03-29T07:35:18Z</time>
      </trkpt>
      <trkpt lat="44.78495" lon="4.72011">
        <ele>276</ele>
        <time>2009-03-29T07:35:24Z</time>
      </trkpt>
      <trkpt lat="44.78487" lon="4.72023">
        <ele>279</ele>
        <time>2009-03-29T07:35:30Z</time>
      </trkpt>
      <trkpt lat="44.78482" lon="4.72031">
        <ele>279</ele>
        <time>2009-03-29T07:35:35Z</time>
      </trkpt>
      <trkpt lat="44.78476" lon="4.72044">
        <ele>280</ele>
        <time>2009-03-29T07:35:41Z</time>
      </trkpt>
      <trkpt lat="44.7847" lon="4.7206">
        <ele>279</ele>
        <time>2009-03-29T07:35:47Z</time>
      </trkpt>
      <trkpt lat="44.78465" lon="4.72076">
        <ele>278</ele>
        <time>2009-03-29T07:35:53Z</time>
      </trkpt>
      <trkpt lat="44.78464" lon="4.72079">
        <ele>278</ele>
        <time>2009-03-29T07:35:54Z</time>
      </trkpt>
      <trkpt lat="44.7845" lon="4.72096">
        <ele>277</ele>
        <time>2009-03-29T07:36:00Z</time>
      </trkpt>
      <trkpt lat="44.78428" lon="4.7211">
        <ele>277</ele>
        <time>2009-03-29T07:36:06Z</time>
      </trkpt>
      <trkpt lat="44.78416" lon="4.72126">
        <ele>273</ele>
        <time>2009-03-29T07:36:11Z</time>
      </trkpt>
      <trkpt lat="44.78405" lon="4.72139">
        <ele>274</ele>
        <time>2009-03-29T07:36:16Z</time>
      </trkpt>
      <trkpt lat="44.78403" lon="4.72142">
        <ele>274</ele>
        <time>2009-03-29T07:36:17Z</time>
      </trkpt>
      <trkpt lat="44.78398" lon="4.72165">
        <ele>270</ele>
        <time>2009-03-29T07:36:24Z</time>
      </trkpt>
      <trkpt lat="44.78394" lon="4.7218">
        <ele>268</ele>
        <time>2009-03-29T07:36:29Z</time>
      </trkpt>
      <trkpt lat="44.78393" lon="4.72194">
        <ele>264</ele>
        <time>2009-03-29T07:36:33Z</time>
      </trkpt>
      <trkpt lat="44.78392" lon="4.72207">
        <ele>260</ele>
        <time>2009-03-29T07:36:37Z</time>
      </trkpt>
      <trkpt lat="44.78388" lon="4.7223">
        <ele>255</ele>
        <time>2009-03-29T07:36:44Z</time>
      </trkpt>
      <trkpt lat="44.78381" lon="4.72245">
        <ele>253</ele>
        <time>2009-03-29T07:36:49Z</time>
      </trkpt>
      <trkpt lat="44.78366" lon="4.7225">
        <ele>257</ele>
        <time>2009-03-29T07:36:55Z</time>
      </trkpt>
      <trkpt lat="44.78346" lon="4.72251">
        <ele>263</ele>
        <time>2009-03-29T07:37:02Z</time>
      </trkpt>
      <trkpt lat="44.78342" lon="4.72252">
        <ele>263</ele>
        <time>2009-03-29T07:37:04Z</time>
      </trkpt>
      <trkpt lat="44.78335" lon="4.72264">
        <ele>262</ele>
        <time>2009-03-29T07:37:09Z</time>
      </trkpt>
      <trkpt lat="44.7832" lon="4.72279">
        <ele>264</ele>
        <time>2009-03-29T07:37:16Z</time>
      </trkpt>
      <trkpt lat="44.78316" lon="4.72282">
        <ele>265</ele>
        <time>2009-03-29T07:37:18Z</time>
      </trkpt>
      <trkpt lat="44.78313" lon="4.72287">
        <ele>265</ele>
        <time>2009-03-29T07:37:24Z</time>
      </trkpt>
      <trkpt lat="44.78309" lon="4.72292">
        <ele>265</ele>
        <time>2009-03-29T07:37:30Z</time>
      </trkpt>
      <trkpt lat="44.78307" lon="4.72296">
        <ele>264</ele>
        <time>2009-03-29T07:37:37Z</time>
      </trkpt>
      <trkpt lat="44.783" lon="4.72302">
        <ele>266</ele>
        <time>2009-03-29T07:37:42Z</time>
      </trkpt>
      <trkpt lat="44.7829" lon="4.72312">
        <ele>267</ele>
        <time>2009-03-29T07:37:48Z</time>
      </trkpt>
      <trkpt lat="44.78281" lon="4.72322">
        <ele>268</ele>
        <time>2009-03-29T07:37:54Z</time>
      </trkpt>
      <trkpt lat="44.78277" lon="4.72325">
        <ele>269</ele>
        <time>2009-03-29T07:37:57Z</time>
      </trkpt>
      <trkpt lat="44.78268" lon="4.72336">
        <ele>270</ele>
        <time>2009-03-29T07:38:03Z</time>
      </trkpt>
      <trkpt lat="44.78261" lon="4.72352">
        <ele>268</ele>
        <time>2009-03-29T07:38:09Z</time>
      </trkpt>
      <trkpt lat="44.78253" lon="4.72367">
        <ele>266</ele>
        <time>2009-03-29T07:38:15Z</time>
      </trkpt>
      <trkpt lat="44.78241" lon="4.72377">
        <ele>264</ele>
        <time>2009-03-29T07:38:21Z</time>
      </trkpt>
      <trkpt lat="44.78226" lon="4.72389">
        <ele>262</ele>
        <time>2009-03-29T07:38:29Z</time>
      </trkpt>
      <trkpt lat="44.78217" lon="4.724">
        <ele>259</ele>
        <time>2009-03-29T07:38:35Z</time>
      </trkpt>
      <trkpt lat="44.78213" lon="4.72406">
        <ele>257</ele>
        <time>2009-03-29T07:38:38Z</time>
      </trkpt>
      <trkpt lat="44.78204" lon="4.72406">
        <ele>258</ele>
        <time>2009-03-29T07:38:44Z</time>
      </trkpt>
      <trkpt lat="44.7819" lon="4.724">
        <ele>263</ele>
        <time>2009-03-29T07:38:52Z</time>
      </trkpt>
      <trkpt lat="44.78173" lon="4.72394">
        <ele>268</ele>
        <time>2009-03-29T07:39:01Z</time>
      </trkpt>
      <trkpt lat="44.7817" lon="4.72391">
        <ele>269</ele>
        <time>2009-03-29T07:39:07Z</time>
      </trkpt>
      <trkpt lat="44.78172" lon="4.72388">
        <ele>270</ele>
        <time>2009-03-29T07:39:12Z</time>
      </trkpt>
      <trkpt lat="44.7817" lon="4.72382">
        <ele>272</ele>
        <time>2009-03-29T07:39:18Z</time>
      </trkpt>
      <trkpt lat="44.7817" lon="4.72378">
        <ele>273</ele>
        <time>2009-03-29T07:39:25Z</time>
      </trkpt>
      <trkpt lat="44.7817" lon="4.72375">
        <ele>274</ele>
        <time>2009-03-29T07:39:33Z</time>
      </trkpt>
      <trkpt lat="44.78168" lon="4.7237">
        <ele>277</ele>
        <time>2009-03-29T07:39:39Z</time>
      </trkpt>
      <trkpt lat="44.78166" lon="4.72366">
        <ele>278</ele>
        <time>2009-03-29T07:39:47Z</time>
      </trkpt>
      <trkpt lat="44.78166" lon="4.72364">
        <ele>279</ele>
        <time>2009-03-29T07:39:52Z</time>
      </trkpt>
      <trkpt lat="44.78167" lon="4.7236">
        <ele>280</ele>
        <time>2009-03-29T07:39:59Z</time>
      </trkpt>
      <trkpt lat="44.78168" lon="4.72356">
        <ele>282</ele>
        <time>2009-03-29T07:40:05Z</time>
      </trkpt>
      <trkpt lat="44.78167" lon="4.72352">
        <ele>283</ele>
        <time>2009-03-29T07:40:12Z</time>
      </trkpt>
      <trkpt lat="44.78165" lon="4.72349">
        <ele>284</ele>
        <time>2009-03-29T07:40:17Z</time>
      </trkpt>
      <trkpt lat="44.78164" lon="4.72339">
        <ele>287</ele>
        <time>2009-03-29T07:40:28Z</time>
      </trkpt>
      <trkpt lat="44.78162" lon="4.72334">
        <ele>288</ele>
        <time>2009-03-29T07:40:35Z</time>
      </trkpt>
      <trkpt lat="44.78159" lon="4.72326">
        <ele>290</ele>
        <time>2009-03-29T07:40:44Z</time>
      </trkpt>
      <trkpt lat="44.78157" lon="4.72317">
        <ele>292</ele>
        <time>2009-03-29T07:40:53Z</time>
      </trkpt>
      <trkpt lat="44.78158" lon="4.72315">
        <ele>293</ele>
        <time>2009-03-29T07:40:58Z</time>
      </trkpt>
      <trkpt lat="44.7816" lon="4.72313">
        <ele>294</ele>
        <time>2009-03-29T07:41:03Z</time>
      </trkpt>
      <trkpt lat="44.78162" lon="4.72313">
        <ele>295</ele>
        <time>2009-03-29T07:41:09Z</time>
      </trkpt>
      <trkpt lat="44.78164" lon="4.72314">
        <ele>295</ele>
        <time>2009-03-29T07:41:15Z</time>
      </trkpt>
      <trkpt lat="44.7817" lon="4.72319">
        <ele>294</ele>
        <time>2009-03-29T07:41:20Z</time>
      </trkpt>
      <trkpt lat="44.78183" lon="4.72324">
        <ele>291</ele>
        <time>2009-03-29T07:41:29Z</time>
      </trkpt>
      <trkpt lat="44.78194" lon="4.72321">
        <ele>291</ele>
        <time>2009-03-29T07:41:38Z</time>
      </trkpt>
      <trkpt lat="44.78195" lon="4.7232">
        <ele>291</ele>
        <time>2009-03-29T07:41:39Z</time>
      </trkpt>
      <trkpt lat="44.78202" lon="4.72318">
        <ele>291</ele>
        <time>2009-03-29T07:41:46Z</time>
      </trkpt>
      <trkpt lat="44.7821" lon="4.72312">
        <ele>292</ele>
        <time>2009-03-29T07:41:53Z</time>
      </trkpt>
      <trkpt lat="44.78215" lon="4.72307">
        <ele>294</ele>
        <time>2009-03-29T07:41:57Z</time>
      </trkpt>
      <trkpt lat="44.78221" lon="4.72296">
        <ele>297</ele>
        <time>2009-03-29T07:42:05Z</time>
      </trkpt>
      <trkpt lat="44.78227" lon="4.72287">
        <ele>300</ele>
        <time>2009-03-29T07:42:12Z</time>
      </trkpt>
      <trkpt lat="44.78231" lon="4.72278">
        <ele>303</ele>
        <time>2009-03-29T07:42:18Z</time>
      </trkpt>
      <trkpt lat="44.78232" lon="4.72276">
        <ele>303</ele>
        <time>2009-03-29T07:42:19Z</time>
      </trkpt>
      <trkpt lat="44.78237" lon="4.72268">
        <ele>306</ele>
        <time>2009-03-29T07:42:24Z</time>
      </trkpt>
      <trkpt lat="44.78244" lon="4.7226">
        <ele>309</ele>
        <time>2009-03-29T07:42:32Z</time>
      </trkpt>
      <trkpt lat="44.78253" lon="4.72249">
        <ele>311</ele>
        <time>2009-03-29T07:42:40Z</time>
      </trkpt>
      <trkpt lat="44.7826" lon="4.72239">
        <ele>310</ele>
        <time>2009-03-29T07:42:47Z</time>
      </trkpt>
      <trkpt lat="44.78261" lon="4.72237">
        <ele>311</ele>
        <time>2009-03-29T07:42:48Z</time>
      </trkpt>
      <trkpt lat="44.78265" lon="4.72229">
        <ele>311</ele>
        <time>2009-03-29T07:42:53Z</time>
      </trkpt>
      <trkpt lat="44.78273" lon="4.72217">
        <ele>312</ele>
        <time>2009-03-29T07:43:02Z</time>
      </trkpt>
      <trkpt lat="44.78278" lon="4.72203">
        <ele>314</ele>
        <time>2009-03-29T07:43:10Z</time>
      </trkpt>
      <trkpt lat="44.78278" lon="4.72202">
        <ele>314</ele>
        <time>2009-03-29T07:43:11Z</time>
      </trkpt>
      <trkpt lat="44.7828" lon="4.72199">
        <ele>314</ele>
        <time>2009-03-29T07:43:14Z</time>
      </trkpt>
      <trkpt lat="44.78284" lon="4.72185">
        <ele>318</ele>
        <time>2009-03-29T07:43:21Z</time>
      </trkpt>
      <trkpt lat="44.78291" lon="4.72174">
        <ele>319</ele>
        <time>2009-03-29T07:43:29Z</time>
      </trkpt>
      <trkpt lat="44.78299" lon="4.72167">
        <ele>318</ele>
        <time>2009-03-29T07:43:36Z</time>
      </trkpt>
      <trkpt lat="44.78313" lon="4.72151">
        <ele>315</ele>
        <time>2009-03-29T07:43:46Z</time>
      </trkpt>
      <trkpt lat="44.7832" lon="4.7214">
        <ele>315</ele>
        <time>2009-03-29T07:43:53Z</time>
      </trkpt>
      <trkpt lat="44.78324" lon="4.72124">
        <ele>317</ele>
        <time>2009-03-29T07:44:00Z</time>
      </trkpt>
      <trkpt lat="44.78328" lon="4.72108">
        <ele>320</ele>
        <time>2009-03-29T07:44:07Z</time>
      </trkpt>
      <trkpt lat="44.78329" lon="4.72097">
        <ele>322</ele>
        <time>2009-03-29T07:44:12Z</time>
      </trkpt>
      <trkpt lat="44.78328" lon="4.7208">
        <ele>327</ele>
        <time>2009-03-29T07:44:20Z</time>
      </trkpt>
      <trkpt lat="44.78329" lon="4.7207">
        <ele>330</ele>
        <time>2009-03-29T07:44:24Z</time>
      </trkpt>
      <trkpt lat="44.78335" lon="4.72057">
        <ele>331</ele>
        <time>2009-03-29T07:44:30Z</time>
      </trkpt>
      <trkpt lat="44.78347" lon="4.72047">
        <ele>329</ele>
        <time>2009-03-29T07:44:37Z</time>
      </trkpt>
      <trkpt lat="44.7836" lon="4.72036">
        <ele>326</ele>
        <time>2009-03-29T07:44:45Z</time>
      </trkpt>
      <trkpt lat="44.78371" lon="4.72024">
        <ele>325</ele>
        <time>2009-03-29T07:44:53Z</time>
      </trkpt>
      <trkpt lat="44.78383" lon="4.72008">
        <ele>325</ele>
        <time>2009-03-29T07:45:02Z</time>
      </trkpt>
      <trkpt lat="44.78392" lon="4.71994">
        <ele>325</ele>
        <time>2009-03-29T07:45:10Z</time>
      </trkpt>
      <trkpt lat="44.784" lon="4.7198">
        <ele>323</ele>
        <time>2009-03-29T07:45:17Z</time>
      </trkpt>
      <trkpt lat="44.78406" lon="4.71962">
        <ele>322</ele>
        <time>2009-03-29T07:45:24Z</time>
      </trkpt>
      <trkpt lat="44.78406" lon="4.71943">
        <ele>325</ele>
        <time>2009-03-29T07:45:31Z</time>
      </trkpt>
      <trkpt lat="44.78396" lon="4.7192">
        <ele>333</ele>
        <time>2009-03-29T07:45:41Z</time>
      </trkpt>
      <trkpt lat="44.78388" lon="4.71905">
        <ele>338</ele>
        <time>2009-03-29T07:45:48Z</time>
      </trkpt>
      <trkpt lat="44.78384" lon="4.71888">
        <ele>341</ele>
        <time>2009-03-29T07:45:56Z</time>
      </trkpt>
      <trkpt lat="44.78384" lon="4.71873">
        <ele>341</ele>
        <time>2009-03-29T07:46:03Z</time>
      </trkpt>
      <trkpt lat="44.78384" lon="4.71847">
        <ele>341</ele>
        <time>2009-03-29T07:46:13Z</time>
      </trkpt>
      <trkpt lat="44.78383" lon="4.7182">
        <ele>342</ele>
        <time>2009-03-29T07:46:23Z</time>
      </trkpt>
      <trkpt lat="44.78381" lon="4.71794">
        <ele>345</ele>
        <time>2009-03-29T07:46:33Z</time>
      </trkpt>
      <trkpt lat="44.78379" lon="4.71772">
        <ele>347</ele>
        <time>2009-03-29T07:46:42Z</time>
      </trkpt>
      <trkpt lat="44.78378" lon="4.7175">
        <ele>349</ele>
        <time>2009-03-29T07:46:51Z</time>
      </trkpt>
      <trkpt lat="44.78382" lon="4.71725">
        <ele>349</ele>
        <time>2009-03-29T07:47:01Z</time>
      </trkpt>
      <trkpt lat="44.78387" lon="4.71709">
        <ele>348</ele>
        <time>2009-03-29T07:47:08Z</time>
      </trkpt>
      <trkpt lat="44.78387" lon="4.71691">
        <ele>350</ele>
        <time>2009-03-29T07:47:15Z</time>
      </trkpt>
      <trkpt lat="44.78385" lon="4.71677">
        <ele>352</ele>
        <time>2009-03-29T07:47:21Z</time>
      </trkpt>
      <trkpt lat="44.7838" lon="4.71663">
        <ele>356</ele>
        <time>2009-03-29T07:47:27Z</time>
      </trkpt>
      <trkpt lat="44.78374" lon="4.71649">
        <ele>361</ele>
        <time>2009-03-29T07:47:34Z</time>
      </trkpt>
      <trkpt lat="44.78373" lon="4.71633">
        <ele>365</ele>
        <time>2009-03-29T07:47:41Z</time>
      </trkpt>
      <trkpt lat="44.78373" lon="4.71631">
        <ele>365</ele>
        <time>2009-03-29T07:47:42Z</time>
      </trkpt>
      <trkpt lat="44.78374" lon="4.71623">
        <ele>366</ele>
        <time>2009-03-29T07:47:46Z</time>
      </trkpt>
      <trkpt lat="44.78391" lon="4.71614">
        <ele>362</ele>
        <time>2009-03-29T07:47:56Z</time>
      </trkpt>
      <trkpt lat="44.78407" lon="4.71606">
        <ele>358</ele>
        <time>2009-03-29T07:48:06Z</time>
      </trkpt>
      <trkpt lat="44.78424" lon="4.71599">
        <ele>355</ele>
        <time>2009-03-29T07:48:16Z</time>
      </trkpt>
      <trkpt lat="44.78436" lon="4.71594">
        <ele>353</ele>
        <time>2009-03-29T07:48:23Z</time>
      </trkpt>
      <trkpt lat="44.78452" lon="4.71586">
        <ele>350</ele>
        <time>2009-03-29T07:48:33Z</time>
      </trkpt>
      <trkpt lat="44.78463" lon="4.71575">
        <ele>349</ele>
        <time>2009-03-29T07:48:41Z</time>
      </trkpt>
      <trkpt lat="44.78464" lon="4.71569">
        <ele>349</ele>
        <time>2009-03-29T07:48:44Z</time>
      </trkpt>
      <trkpt lat="44.78459" lon="4.71559">
        <ele>351</ele>
        <time>2009-03-29T07:48:50Z</time>
      </trkpt>
      <trkpt lat="44.78457" lon="4.71558">
        <ele>352</ele>
        <time>2009-03-29T07:48:51Z</time>
      </trkpt>
      <trkpt lat="44.7845" lon="4.7154">
        <ele>356</ele>
        <time>2009-03-29T07:49:01Z</time>
      </trkpt>
      <trkpt lat="44.78446" lon="4.71528">
        <ele>359</ele>
        <time>2009-03-29T07:49:07Z</time>
      </trkpt>
      <trkpt lat="44.78443" lon="4.71514">
        <ele>362</ele>
        <time>2009-03-29T07:49:14Z</time>
      </trkpt>
      <trkpt lat="44.78441" lon="4.715">
        <ele>364</ele>
        <time>2009-03-29T07:49:20Z</time>
      </trkpt>
      <trkpt lat="44.78439" lon="4.71481">
        <ele>366</ele>
        <time>2009-03-29T07:49:28Z</time>
      </trkpt>
      <trkpt lat="44.78435" lon="4.71466">
        <ele>369</ele>
        <time>2009-03-29T07:49:35Z</time>
      </trkpt>
      <trkpt lat="44.78428" lon="4.71451">
        <ele>372</ele>
        <time>2009-03-29T07:49:42Z</time>
      </trkpt>
      <trkpt lat="44.78423" lon="4.71439">
        <ele>374</ele>
        <time>2009-03-29T07:49:48Z</time>
      </trkpt>
      <trkpt lat="44.78429" lon="4.71423">
        <ele>374</ele>
        <time>2009-03-29T07:49:56Z</time>
      </trkpt>
      <trkpt lat="44.78443" lon="4.71411">
        <ele>372</ele>
        <time>2009-03-29T07:50:05Z</time>
      </trkpt>
      <trkpt lat="44.78449" lon="4.71398">
        <ele>373</ele>
        <time>2009-03-29T07:50:12Z</time>
      </trkpt>
      <trkpt lat="44.78452" lon="4.71385">
        <ele>375</ele>
        <time>2009-03-29T07:50:18Z</time>
      </trkpt>
      <trkpt lat="44.78459" lon="4.71376">
        <ele>375</ele>
        <time>2009-03-29T07:50:24Z</time>
      </trkpt>
      <trkpt lat="44.78469" lon="4.71367">
        <ele>374</ele>
        <time>2009-03-29T07:50:31Z</time>
      </trkpt>
      <trkpt lat="44.78477" lon="4.71357">
        <ele>373</ele>
        <time>2009-03-29T07:50:38Z</time>
      </trkpt>
      <trkpt lat="44.78485" lon="4.71343">
        <ele>373</ele>
        <time>2009-03-29T07:50:45Z</time>
      </trkpt>
      <trkpt lat="44.78492" lon="4.71323">
        <ele>376</ele>
        <time>2009-03-29T07:50:54Z</time>
      </trkpt>
      <trkpt lat="44.78502" lon="4.71309">
        <ele>376</ele>
        <time>2009-03-29T07:51:02Z</time>
      </trkpt>
      <trkpt lat="44.7851" lon="4.71295">
        <ele>379</ele>
        <time>2009-03-29T07:51:10Z</time>
      </trkpt>
      <trkpt lat="44.78514" lon="4.71281">
        <ele>381</ele>
        <time>2009-03-29T07:51:17Z</time>
      </trkpt>
      <trkpt lat="44.78519" lon="4.71268">
        <ele>383</ele>
        <time>2009-03-29T07:51:23Z</time>
      </trkpt>
      <trkpt lat="44.78525" lon="4.71252">
        <ele>385</ele>
        <time>2009-03-29T07:51:31Z</time>
      </trkpt>
      <trkpt lat="44.78529" lon="4.71238">
        <ele>387</ele>
        <time>2009-03-29T07:51:38Z</time>
      </trkpt>
      <trkpt lat="44.78534" lon="4.71223">
        <ele>388</ele>
        <time>2009-03-29T07:51:46Z</time>
      </trkpt>
      <trkpt lat="44.78539" lon="4.71206">
        <ele>389</ele>
        <time>2009-03-29T07:51:55Z</time>
      </trkpt>
      <trkpt lat="44.78544" lon="4.71181">
        <ele>392</ele>
        <time>2009-03-29T07:52:06Z</time>
      </trkpt>
      <trkpt lat="44.78547" lon="4.71161">
        <ele>393</ele>
        <time>2009-03-29T07:52:15Z</time>
      </trkpt>
      <trkpt lat="44.78549" lon="4.71147">
        <ele>394</ele>
        <time>2009-03-29T07:52:23Z</time>
      </trkpt>
      <trkpt lat="44.7855" lon="4.71132">
        <ele>395</ele>
        <time>2009-03-29T07:52:30Z</time>
      </trkpt>
      <trkpt lat="44.7855" lon="4.71113">
        <ele>397</ele>
        <time>2009-03-29T07:52:38Z</time>
      </trkpt>
      <trkpt lat="44.7855" lon="4.71092">
        <ele>399</ele>
        <time>2009-03-29T07:52:47Z</time>
      </trkpt>
      <trkpt lat="44.78551" lon="4.7108">
        <ele>400</ele>
        <time>2009-03-29T07:52:52Z</time>
      </trkpt>
      <trkpt lat="44.7855" lon="4.71067">
        <ele>402</ele>
        <time>2009-03-29T07:52:58Z</time>
      </trkpt>
      <trkpt lat="44.78548" lon="4.71057">
        <ele>405</ele>
        <time>2009-03-29T07:53:03Z</time>
      </trkpt>
      <trkpt lat="44.78553" lon="4.71044">
        <ele>405</ele>
        <time>2009-03-29T07:53:09Z</time>
      </trkpt>
      <trkpt lat="44.78558" lon="4.71031">
        <ele>404</ele>
        <time>2009-03-29T07:53:16Z</time>
      </trkpt>
      <trkpt lat="44.78562" lon="4.71016">
        <ele>405</ele>
        <time>2009-03-29T07:53:22Z</time>
      </trkpt>
      <trkpt lat="44.78566" lon="4.70996">
        <ele>406</ele>
        <time>2009-03-29T07:53:30Z</time>
      </trkpt>
      <trkpt lat="44.78566" lon="4.70991">
        <ele>407</ele>
        <time>2009-03-29T07:53:33Z</time>
      </trkpt>
      <trkpt lat="44.78573" lon="4.70983">
        <ele>406</ele>
        <time>2009-03-29T07:53:39Z</time>
      </trkpt>
      <trkpt lat="44.78583" lon="4.70974">
        <ele>405</ele>
        <time>2009-03-29T07:53:46Z</time>
      </trkpt>
      <trkpt lat="44.78585" lon="4.7097">
        <ele>405</ele>
        <time>2009-03-29T07:53:48Z</time>
      </trkpt>
      <trkpt lat="44.78591" lon="4.70955">
        <ele>408</ele>
        <time>2009-03-29T07:53:55Z</time>
      </trkpt>
      <trkpt lat="44.78596" lon="4.70937">
        <ele>411</ele>
        <time>2009-03-29T07:54:03Z</time>
      </trkpt>
      <trkpt lat="44.78598" lon="4.70924">
        <ele>413</ele>
        <time>2009-03-29T07:54:09Z</time>
      </trkpt>
      <trkpt lat="44.786" lon="4.7092">
        <ele>414</ele>
        <time>2009-03-29T07:54:11Z</time>
      </trkpt>
      <trkpt lat="44.78606" lon="4.70912">
        <ele>414</ele>
        <time>2009-03-29T07:54:18Z</time>
      </trkpt>
      <trkpt lat="44.78613" lon="4.70906">
        <ele>414</ele>
        <time>2009-03-29T07:54:23Z</time>
      </trkpt>
      <trkpt lat="44.78624" lon="4.70892">
        <ele>414</ele>
        <time>2009-03-29T07:54:31Z</time>
      </trkpt>
      <trkpt lat="44.78635" lon="4.70881">
        <ele>414</ele>
        <time>2009-03-29T07:54:38Z</time>
      </trkpt>
      <trkpt lat="44.7864" lon="4.70868">
        <ele>416</ele>
        <time>2009-03-29T07:54:44Z</time>
      </trkpt>
      <trkpt lat="44.78644" lon="4.7086">
        <ele>417</ele>
        <time>2009-03-29T07:54:49Z</time>
      </trkpt>
      <trkpt lat="44.78653" lon="4.7085">
        <ele>417</ele>
        <time>2009-03-29T07:54:56Z</time>
      </trkpt>
      <trkpt lat="44.78659" lon="4.70841">
        <ele>417</ele>
        <time>2009-03-29T07:55:02Z</time>
      </trkpt>
      <trkpt lat="44.78665" lon="4.70838">
        <ele>416</ele>
        <time>2009-03-29T07:55:06Z</time>
      </trkpt>
      <trkpt lat="44.78673" lon="4.7083">
        <ele>417</ele>
        <time>2009-03-29T07:55:11Z</time>
      </trkpt>
      <trkpt lat="44.78683" lon="4.70822">
        <ele>418</ele>
        <time>2009-03-29T07:55:17Z</time>
      </trkpt>
      <trkpt lat="44.78688" lon="4.70814">
        <ele>419</ele>
        <time>2009-03-29T07:55:22Z</time>
      </trkpt>
      <trkpt lat="44.78697" lon="4.70802">
        <ele>420</ele>
        <time>2009-03-29T07:55:29Z</time>
      </trkpt>
      <trkpt lat="44.78704" lon="4.70791">
        <ele>420</ele>
        <time>2009-03-29T07:55:34Z</time>
      </trkpt>
      <trkpt lat="44.78706" lon="4.7078">
        <ele>422</ele>
        <time>2009-03-29T07:55:38Z</time>
      </trkpt>
      <trkpt lat="44.78712" lon="4.70763">
        <ele>423</ele>
        <time>2009-03-29T07:55:46Z</time>
      </trkpt>
      <trkpt lat="44.78713" lon="4.70762">
        <ele>423</ele>
        <time>2009-03-29T07:55:47Z</time>
      </trkpt>
      <trkpt lat="44.78721" lon="4.70744">
        <ele>423</ele>
        <time>2009-03-29T07:55:55Z</time>
      </trkpt>
      <trkpt lat="44.78724" lon="4.70733">
        <ele>424</ele>
        <time>2009-03-29T07:56:01Z</time>
      </trkpt>
      <trkpt lat="44.78724" lon="4.70716">
        <ele>425</ele>
        <time>2009-03-29T07:56:07Z</time>
      </trkpt>
      <trkpt lat="44.78726" lon="4.70705">
        <ele>426</ele>
        <time>2009-03-29T07:56:11Z</time>
      </trkpt>
      <trkpt lat="44.7873" lon="4.70686">
        <ele>427</ele>
        <time>2009-03-29T07:56:19Z</time>
      </trkpt>
      <trkpt lat="44.7873" lon="4.70673">
        <ele>428</ele>
        <time>2009-03-29T07:56:25Z</time>
      </trkpt>
      <trkpt lat="44.78732" lon="4.70658">
        <ele>429</ele>
        <time>2009-03-29T07:56:31Z</time>
      </trkpt>
      <trkpt lat="44.78733" lon="4.70649">
        <ele>429</ele>
        <time>2009-03-29T07:56:36Z</time>
      </trkpt>
      <trkpt lat="44.78733" lon="4.70645">
        <ele>430</ele>
        <time>2009-03-29T07:56:38Z</time>
      </trkpt>
      <trkpt lat="44.78733" lon="4.70635">
        <ele>431</ele>
        <time>2009-03-29T07:56:43Z</time>
      </trkpt>
      <trkpt lat="44.78738" lon="4.70619">
        <ele>431</ele>
        <time>2009-03-29T07:56:50Z</time>
      </trkpt>
      <trkpt lat="44.78738" lon="4.70617">
        <ele>430</ele>
        <time>2009-03-29T07:56:51Z</time>
      </trkpt>
      <trkpt lat="44.78741" lon="4.7061">
        <ele>430</ele>
        <time>2009-03-29T07:56:55Z</time>
      </trkpt>
      <trkpt lat="44.78747" lon="4.70589">
        <ele>430</ele>
        <time>2009-03-29T07:57:04Z</time>
      </trkpt>
      <trkpt lat="44.78748" lon="4.70586">
        <ele>430</ele>
        <time>2009-03-29T07:57:05Z</time>
      </trkpt>
      <trkpt lat="44.78755" lon="4.70573">
        <ele>429</ele>
        <time>2009-03-29T07:57:11Z</time>
      </trkpt>
      <trkpt lat="44.78761" lon="4.70556">
        <ele>428</ele>
        <time>2009-03-29T07:57:19Z</time>
      </trkpt>
      <trkpt lat="44.78765" lon="4.70541">
        <ele>428</ele>
        <time>2009-03-29T07:57:25Z</time>
      </trkpt>
      <trkpt lat="44.78764" lon="4.70535">
        <ele>428</ele>
        <time>2009-03-29T07:57:28Z</time>
      </trkpt>
      <trkpt lat="44.78758" lon="4.70522">
        <ele>429</ele>
        <time>2009-03-29T07:57:35Z</time>
      </trkpt>
      <trkpt lat="44.78755" lon="4.7051">
        <ele>430</ele>
        <time>2009-03-29T07:57:41Z</time>
      </trkpt>
      <trkpt lat="44.78747" lon="4.70499">
        <ele>432</ele>
        <time>2009-03-29T07:57:48Z</time>
      </trkpt>
      <trkpt lat="44.7874" lon="4.70491">
        <ele>435</ele>
        <time>2009-03-29T07:57:53Z</time>
      </trkpt>
      <trkpt lat="44.7874" lon="4.70487">
        <ele>436</ele>
        <time>2009-03-29T07:57:56Z</time>
      </trkpt>
      <trkpt lat="44.78738" lon="4.70476">
        <ele>437</ele>
        <time>2009-03-29T07:58:01Z</time>
      </trkpt>
      <trkpt lat="44.78739" lon="4.70464">
        <ele>438</ele>
        <time>2009-03-29T07:58:06Z</time>
      </trkpt>
      <trkpt lat="44.7874" lon="4.70444">
        <ele>439</ele>
        <time>2009-03-29T07:58:14Z</time>
      </trkpt>
      <trkpt lat="44.78745" lon="4.70429">
        <ele>439</ele>
        <time>2009-03-29T07:58:20Z</time>
      </trkpt>
      <trkpt lat="44.78751" lon="4.70419">
        <ele>439</ele>
        <time>2009-03-29T07:58:26Z</time>
      </trkpt>
      <trkpt lat="44.78755" lon="4.70409">
        <ele>439</ele>
        <time>2009-03-29T07:58:32Z</time>
      </trkpt>
      <trkpt lat="44.78762" lon="4.70395">
        <ele>440</ele>
        <time>2009-03-29T07:58:38Z</time>
      </trkpt>
      <trkpt lat="44.78764" lon="4.7038">
        <ele>441</ele>
        <time>2009-03-29T07:58:44Z</time>
      </trkpt>
      <trkpt lat="44.78766" lon="4.70362">
        <ele>444</ele>
        <time>2009-03-29T07:58:52Z</time>
      </trkpt>
      <trkpt lat="44.78766" lon="4.70345">
        <ele>446</ele>
        <time>2009-03-29T07:58:59Z</time>
      </trkpt>
      <trkpt lat="44.78764" lon="4.70328">
        <ele>448</ele>
        <time>2009-03-29T07:59:07Z</time>
      </trkpt>
      <trkpt lat="44.78764" lon="4.70316">
        <ele>449</ele>
        <time>2009-03-29T07:59:13Z</time>
      </trkpt>
      <trkpt lat="44.78763" lon="4.70303">
        <ele>451</ele>
        <time>2009-03-29T07:59:19Z</time>
      </trkpt>
      <trkpt lat="44.78762" lon="4.70292">
        <ele>452</ele>
        <time>2009-03-29T07:59:23Z</time>
      </trkpt>
      <trkpt lat="44.78768" lon="4.70273">
        <ele>453</ele>
        <time>2009-03-29T07:59:31Z</time>
      </trkpt>
      <trkpt lat="44.78774" lon="4.70259">
        <ele>454</ele>
        <time>2009-03-29T07:59:37Z</time>
      </trkpt>
      <trkpt lat="44.78781" lon="4.70256">
        <ele>454</ele>
        <time>2009-03-29T07:59:42Z</time>
      </trkpt>
      <trkpt lat="44.78788" lon="4.70268">
        <ele>453</ele>
        <time>2009-03-29T07:59:49Z</time>
      </trkpt>
      <trkpt lat="44.7879" lon="4.70271">
        <ele>452</ele>
        <time>2009-03-29T07:59:50Z</time>
      </trkpt>
      <trkpt lat="44.78803" lon="4.70288">
        <ele>450</ele>
        <time>2009-03-29T07:59:59Z</time>
      </trkpt>
      <trkpt lat="44.78815" lon="4.70302">
        <ele>447</ele>
        <time>2009-03-29T08:00:07Z</time>
      </trkpt>
      <trkpt lat="44.78817" lon="4.70303">
        <ele>447</ele>
        <time>2009-03-29T08:00:08Z</time>
      </trkpt>
      <trkpt lat="44.78824" lon="4.70305">
        <ele>446</ele>
        <time>2009-03-29T08:00:12Z</time>
      </trkpt>
      <trkpt lat="44.78835" lon="4.70297">
        <ele>447</ele>
        <time>2009-03-29T08:00:19Z</time>
      </trkpt>
      <trkpt lat="44.78841" lon="4.70283">
        <ele>448</ele>
        <time>2009-03-29T08:00:26Z</time>
      </trkpt>
      <trkpt lat="44.78844" lon="4.70267">
        <ele>450</ele>
        <time>2009-03-29T08:00:33Z</time>
      </trkpt>
      <trkpt lat="44.78844" lon="4.70263">
        <ele>451</ele>
        <time>2009-03-29T08:00:35Z</time>
      </trkpt>
      <trkpt lat="44.78842" lon="4.70248">
        <ele>453</ele>
        <time>2009-03-29T08:00:43Z</time>
      </trkpt>
      <trkpt lat="44.78841" lon="4.7024">
        <ele>454</ele>
        <time>2009-03-29T08:00:47Z</time>
      </trkpt>
      <trkpt lat="44.78845" lon="4.70227">
        <ele>456</ele>
        <time>2009-03-29T08:00:53Z</time>
      </trkpt>
      <trkpt lat="44.78851" lon="4.70214">
        <ele>458</ele>
        <time>2009-03-29T08:01:00Z</time>
      </trkpt>
      <trkpt lat="44.78852" lon="4.7021">
        <ele>459</ele>
        <time>2009-03-29T08:01:05Z</time>
      </trkpt>
      <trkpt lat="44.78854" lon="4.70206">
        <ele>459</ele>
        <time>2009-03-29T08:01:14Z</time>
      </trkpt>
      <trkpt lat="44.78855" lon="4.70204">
        <ele>460</ele>
        <time>2009-03-29T08:01:22Z</time>
      </trkpt>
      <trkpt lat="44.78856" lon="4.70202">
        <ele>460</ele>
        <time>2009-03-29T08:01:27Z</time>
      </trkpt>
      <trkpt lat="44.78859" lon="4.70191">
        <ele>461</ele>
        <time>2009-03-29T08:01:33Z</time>
      </trkpt>
      <trkpt lat="44.78861" lon="4.70173">
        <ele>464</ele>
        <time>2009-03-29T08:01:40Z</time>
      </trkpt>
      <trkpt lat="44.78864" lon="4.70157">
        <ele>466</ele>
        <time>2009-03-29T08:01:46Z</time>
      </trkpt>
      <trkpt lat="44.78872" lon="4.70142">
        <ele>467</ele>
        <time>2009-03-29T08:01:51Z</time>
      </trkpt>
      <trkpt lat="44.78887" lon="4.70134">
        <ele>467</ele>
        <time>2009-03-29T08:01:56Z</time>
      </trkpt>
      <trkpt lat="44.78889" lon="4.70133">
        <ele>467</ele>
        <time>2009-03-29T08:02:04Z</time>
      </trkpt>
      <trkpt lat="44.78895" lon="4.70128">
        <ele>467</ele>
        <time>2009-03-29T08:02:26Z</time>
      </trkpt>
      <trkpt lat="44.78901" lon="4.70125">
        <ele>467</ele>
        <time>2009-03-29T08:02:32Z</time>
      </trkpt>
      <trkpt lat="44.7891" lon="4.70121">
        <ele>467</ele>
        <time>2009-03-29T08:02:38Z</time>
      </trkpt>
      <trkpt lat="44.7892" lon="4.7012">
        <ele>467</ele>
        <time>2009-03-29T08:02:44Z</time>
      </trkpt>
      <trkpt lat="44.78936" lon="4.70117">
        <ele>469</ele>
        <time>2009-03-29T08:02:52Z</time>
      </trkpt>
      <trkpt lat="44.78948" lon="4.70112">
        <ele>470</ele>
        <time>2009-03-29T08:02:58Z</time>
      </trkpt>
      <trkpt lat="44.78961" lon="4.7011">
        <ele>472</ele>
        <time>2009-03-29T08:03:05Z</time>
      </trkpt>
      <trkpt lat="44.78972" lon="4.70108">
        <ele>472</ele>
        <time>2009-03-29T08:03:12Z</time>
      </trkpt>
      <trkpt lat="44.78986" lon="4.70105">
        <ele>473</ele>
        <time>2009-03-29T08:03:21Z</time>
      </trkpt>
      <trkpt lat="44.78992" lon="4.701">
        <ele>474</ele>
        <time>2009-03-29T08:03:26Z</time>
      </trkpt>
      <trkpt lat="44.79002" lon="4.70087">
        <ele>473</ele>
        <time>2009-03-29T08:03:33Z</time>
      </trkpt>
      <trkpt lat="44.79015" lon="4.70081">
        <ele>475</ele>
        <time>2009-03-29T08:03:40Z</time>
      </trkpt>
      <trkpt lat="44.79024" lon="4.70085">
        <ele>476</ele>
        <time>2009-03-29T08:03:47Z</time>
      </trkpt>
      <trkpt lat="44.79025" lon="4.70088">
        <ele>476</ele>
        <time>2009-03-29T08:03:49Z</time>
      </trkpt>
      <trkpt lat="44.79026" lon="4.70093">
        <ele>477</ele>
        <time>2009-03-29T08:03:53Z</time>
      </trkpt>
      <trkpt lat="44.79022" lon="4.70105">
        <ele>477</ele>
        <time>2009-03-29T08:04:01Z</time>
      </trkpt>
      <trkpt lat="44.79019" lon="4.70113">
        <ele>477</ele>
        <time>2009-03-29T08:04:05Z</time>
      </trkpt>
      <trkpt lat="44.79012" lon="4.70127">
        <ele>477</ele>
        <time>2009-03-29T08:04:13Z</time>
      </trkpt>
      <trkpt lat="44.79007" lon="4.70139">
        <ele>477</ele>
        <time>2009-03-29T08:04:19Z</time>
      </trkpt>
      <trkpt lat="44.79001" lon="4.7015">
        <ele>477</ele>
        <time>2009-03-29T08:04:26Z</time>
      </trkpt>
      <trkpt lat="44.78999" lon="4.70153">
        <ele>477</ele>
        <time>2009-03-29T08:04:28Z</time>
      </trkpt>
      <trkpt lat="44.78992" lon="4.70162">
        <ele>476</ele>
        <time>2009-03-29T08:04:35Z</time>
      </trkpt>
      <trkpt lat="44.78989" lon="4.70166">
        <ele>476</ele>
        <time>2009-03-29T08:04:38Z</time>
      </trkpt>
      <trkpt lat="44.78988" lon="4.70174">
        <ele>475</ele>
        <time>2009-03-29T08:04:42Z</time>
      </trkpt>
      <trkpt lat="44.78991" lon="4.70185">
        <ele>475</ele>
        <time>2009-03-29T08:04:48Z</time>
      </trkpt>
      <trkpt lat="44.78996" lon="4.70194">
        <ele>475</ele>
        <time>2009-03-29T08:04:54Z</time>
      </trkpt>
      <trkpt lat="44.79003" lon="4.70198">
        <ele>476</ele>
        <time>2009-03-29T08:05:00Z</time>
      </trkpt>
      <trkpt lat="44.79013" lon="4.70201">
        <ele>478</ele>
        <time>2009-03-29T08:05:08Z</time>
      </trkpt>
      <trkpt lat="44.79023" lon="4.70203">
        <ele>479</ele>
        <time>2009-03-29T08:05:14Z</time>
      </trkpt>
      <trkpt lat="44.79033" lon="4.70203">
        <ele>481</ele>
        <time>2009-03-29T08:05:21Z</time>
      </trkpt>
      <trkpt lat="44.79044" lon="4.70198">
        <ele>482</ele>
        <time>2009-03-29T08:05:29Z</time>
      </trkpt>
      <trkpt lat="44.79052" lon="4.70197">
        <ele>484</ele>
        <time>2009-03-29T08:05:35Z</time>
      </trkpt>
      <trkpt lat="44.79064" lon="4.70195">
        <ele>485</ele>
        <time>2009-03-29T08:05:43Z</time>
      </trkpt>
      <trkpt lat="44.79074" lon="4.70195">
        <ele>487</ele>
        <time>2009-03-29T08:05:51Z</time>
      </trkpt>
      <trkpt lat="44.79084" lon="4.70192">
        <ele>488</ele>
        <time>2009-03-29T08:05:58Z</time>
      </trkpt>
      <trkpt lat="44.79097" lon="4.70192">
        <ele>489</ele>
        <time>2009-03-29T08:06:06Z</time>
      </trkpt>
      <trkpt lat="44.79107" lon="4.70195">
        <ele>489</ele>
        <time>2009-03-29T08:06:12Z</time>
      </trkpt>
      <trkpt lat="44.79118" lon="4.7019">
        <ele>490</ele>
        <time>2009-03-29T08:06:19Z</time>
      </trkpt>
      <trkpt lat="44.79134" lon="4.70189">
        <ele>491</ele>
        <time>2009-03-29T08:06:28Z</time>
      </trkpt>
      <trkpt lat="44.79148" lon="4.70184">
        <ele>493</ele>
        <time>2009-03-29T08:06:37Z</time>
      </trkpt>
      <trkpt lat="44.7916" lon="4.7018">
        <ele>494</ele>
        <time>2009-03-29T08:06:45Z</time>
      </trkpt>
      <trkpt lat="44.79171" lon="4.70178">
        <ele>494</ele>
        <time>2009-03-29T08:06:52Z</time>
      </trkpt>
      <trkpt lat="44.79182" lon="4.70175">
        <ele>495</ele>
        <time>2009-03-29T08:07:00Z</time>
      </trkpt>
      <trkpt lat="44.79195" lon="4.70169">
        <ele>496</ele>
        <time>2009-03-29T08:07:09Z</time>
      </trkpt>
      <trkpt lat="44.79204" lon="4.70163">
        <ele>497</ele>
        <time>2009-03-29T08:07:16Z</time>
      </trkpt>
      <trkpt lat="44.79215" lon="4.70156">
        <ele>498</ele>
        <time>2009-03-29T08:07:24Z</time>
      </trkpt>
      <trkpt lat="44.79226" lon="4.70148">
        <ele>500</ele>
        <time>2009-03-29T08:07:32Z</time>
      </trkpt>
      <trkpt lat="44.79233" lon="4.70139">
        <ele>502</ele>
        <time>2009-03-29T08:07:39Z</time>
      </trkpt>
      <trkpt lat="44.79245" lon="4.70125">
        <ele>505</ele>
        <time>2009-03-29T08:07:49Z</time>
      </trkpt>
      <trkpt lat="44.79255" lon="4.70111">
        <ele>507</ele>
        <time>2009-03-29T08:07:58Z</time>
      </trkpt>
      <trkpt lat="44.79259" lon="4.701">
        <ele>509</ele>
        <time>2009-03-29T08:08:05Z</time>
      </trkpt>
      <trkpt lat="44.79261" lon="4.70092">
        <ele>510</ele>
        <time>2009-03-29T08:08:11Z</time>
      </trkpt>
      <trkpt lat="44.79253" lon="4.70095">
        <ele>509</ele>
        <time>2009-03-29T10:03:23Z</time>
      </trkpt>
      <trkpt lat="44.79244" lon="4.70093">
        <ele>509</ele>
        <time>2009-03-29T10:03:26Z</time>
      </trkpt>
      <trkpt lat="44.79242" lon="4.70095">
        <ele>508</ele>
        <time>2009-03-29T10:03:30Z</time>
      </trkpt>
      <trkpt lat="44.79242" lon="4.70095">
        <ele>508</ele>
        <time>2009-03-29T10:03:38Z</time>
      </trkpt>
      <trkpt lat="44.79242" lon="4.70096">
        <ele>508</ele>
        <time>2009-03-29T10:03:52Z</time>
      </trkpt>
      <trkpt lat="44.79241" lon="4.70089">
        <ele>509</ele>
        <time>2009-03-29T10:13:25Z</time>
      </trkpt>
      <trkpt lat="44.79243" lon="4.70087">
        <ele>510</ele>
        <time>2009-03-29T10:13:31Z</time>
      </trkpt>
      <trkpt lat="44.79244" lon="4.70087">
        <ele>510</ele>
        <time>2009-03-29T10:13:35Z</time>
      </trkpt>
      <trkpt lat="44.79254" lon="4.70092">
        <ele>510</ele>
        <time>2009-03-29T10:13:42Z</time>
      </trkpt>
      <trkpt lat="44.79262" lon="4.70095">
        <ele>510</ele>
        <time>2009-03-29T10:13:47Z</time>
      </trkpt>
      <trkpt lat="44.79274" lon="4.70099">
        <ele>510</ele>
        <time>2009-03-29T10:13:52Z</time>
      </trkpt>
      <trkpt lat="44.79295" lon="4.70102">
        <ele>510</ele>
        <time>2009-03-29T10:13:59Z</time>
      </trkpt>
      <trkpt lat="44.79323" lon="4.70103">
        <ele>511</ele>
        <time>2009-03-29T10:14:07Z</time>
      </trkpt>
      <trkpt lat="44.79348" lon="4.70101">
        <ele>513</ele>
        <time>2009-03-29T10:14:14Z</time>
      </trkpt>
      <trkpt lat="44.7938" lon="4.70093">
        <ele>515</ele>
        <time>2009-03-29T10:14:23Z</time>
      </trkpt>
      <trkpt lat="44.79409" lon="4.70079">
        <ele>517</ele>
        <time>2009-03-29T10:14:32Z</time>
      </trkpt>
      <trkpt lat="44.79436" lon="4.70066">
        <ele>517</ele>
        <time>2009-03-29T10:14:41Z</time>
      </trkpt>
      <trkpt lat="44.79461" lon="4.70056">
        <ele>517</ele>
        <time>2009-03-29T10:14:49Z</time>
      </trkpt>
      <trkpt lat="44.79466" lon="4.7007">
        <ele>517</ele>
        <time>2009-03-29T10:14:53Z</time>
      </trkpt>
      <trkpt lat="44.79469" lon="4.70103">
        <ele>517</ele>
        <time>2009-03-29T10:15:00Z</time>
      </trkpt>
      <trkpt lat="44.79476" lon="4.70139">
        <ele>518</ele>
        <time>2009-03-29T10:15:08Z</time>
      </trkpt>
      <trkpt lat="44.79489" lon="4.7019">
        <ele>518</ele>
        <time>2009-03-29T10:15:19Z</time>
      </trkpt>
      <trkpt lat="44.79495" lon="4.70217">
        <ele>517</ele>
        <time>2009-03-29T10:15:25Z</time>
      </trkpt>
      <trkpt lat="44.79502" lon="4.70235">
        <ele>517</ele>
        <time>2009-03-29T10:15:29Z</time>
      </trkpt>
      <trkpt lat="44.79527" lon="4.70253">
        <ele>520</ele>
        <time>2009-03-29T10:15:35Z</time>
      </trkpt>
      <trkpt lat="44.79531" lon="4.70255">
        <ele>520</ele>
        <time>2009-03-29T10:15:36Z</time>
      </trkpt>
      <trkpt lat="44.79553" lon="4.70281">
        <ele>522</ele>
        <time>2009-03-29T10:15:42Z</time>
      </trkpt>
      <trkpt lat="44.79558" lon="4.70309">
        <ele>521</ele>
        <time>2009-03-29T10:15:46Z</time>
      </trkpt>
      <trkpt lat="44.79555" lon="4.70336">
        <ele>518</ele>
        <time>2009-03-29T10:15:50Z</time>
      </trkpt>
      <trkpt lat="44.7956" lon="4.70361">
        <ele>517</ele>
        <time>2009-03-29T10:15:54Z</time>
      </trkpt>
      <trkpt lat="44.79569" lon="4.70374">
        <ele>517</ele>
        <time>2009-03-29T10:15:57Z</time>
      </trkpt>
      <trkpt lat="44.79588" lon="4.70404">
        <ele>518</ele>
        <time>2009-03-29T10:16:03Z</time>
      </trkpt>
      <trkpt lat="44.79591" lon="4.70429">
        <ele>518</ele>
        <time>2009-03-29T10:16:07Z</time>
      </trkpt>
      <trkpt lat="44.79589" lon="4.70448">
        <ele>518</ele>
        <time>2009-03-29T10:16:10Z</time>
      </trkpt>
      <trkpt lat="44.79586" lon="4.7046">
        <ele>518</ele>
        <time>2009-03-29T10:16:12Z</time>
      </trkpt>
      <trkpt lat="44.79581" lon="4.70496">
        <ele>518</ele>
        <time>2009-03-29T10:16:19Z</time>
      </trkpt>
      <trkpt lat="44.79586" lon="4.70525">
        <ele>519</ele>
        <time>2009-03-29T10:16:25Z</time>
      </trkpt>
      <trkpt lat="44.79598" lon="4.70553">
        <ele>520</ele>
        <time>2009-03-29T10:16:32Z</time>
      </trkpt>
      <trkpt lat="44.79618" lon="4.70587">
        <ele>522</ele>
        <time>2009-03-29T10:16:41Z</time>
      </trkpt>
      <trkpt lat="44.79633" lon="4.70614">
        <ele>521</ele>
        <time>2009-03-29T10:16:46Z</time>
      </trkpt>
      <trkpt lat="44.79637" lon="4.7062">
        <ele>521</ele>
        <time>2009-03-29T10:16:47Z</time>
      </trkpt>
      <trkpt lat="44.79649" lon="4.70651">
        <ele>519</ele>
        <time>2009-03-29T10:16:51Z</time>
      </trkpt>
      <trkpt lat="44.79657" lon="4.70708">
        <ele>519</ele>
        <time>2009-03-29T10:16:58Z</time>
      </trkpt>
      <trkpt lat="44.79655" lon="4.70764">
        <ele>517</ele>
        <time>2009-03-29T10:17:06Z</time>
      </trkpt>
      <trkpt lat="44.7966" lon="4.70814">
        <ele>514</ele>
        <time>2009-03-29T10:17:12Z</time>
      </trkpt>
      <trkpt lat="44.79668" lon="4.70857">
        <ele>511</ele>
        <time>2009-03-29T10:17:17Z</time>
      </trkpt>
      <trkpt lat="44.79683" lon="4.70884">
        <ele>509</ele>
        <time>2009-03-29T10:17:21Z</time>
      </trkpt>
      <trkpt lat="44.79715" lon="4.70917">
        <ele>508</ele>
        <time>2009-03-29T10:17:28Z</time>
      </trkpt>
      <trkpt lat="44.79742" lon="4.70938">
        <ele>507</ele>
        <time>2009-03-29T10:17:35Z</time>
      </trkpt>
      <trkpt lat="44.79759" lon="4.70951">
        <ele>506</ele>
        <time>2009-03-29T10:17:39Z</time>
      </trkpt>
      <trkpt lat="44.79806" lon="4.70968">
        <ele>507</ele>
        <time>2009-03-29T10:17:48Z</time>
      </trkpt>
      <trkpt lat="44.79811" lon="4.7097">
        <ele>507</ele>
        <time>2009-03-29T10:17:49Z</time>
      </trkpt>
      <trkpt lat="44.79829" lon="4.70993">
        <ele>506</ele>
        <time>2009-03-29T10:17:54Z</time>
      </trkpt>
      <trkpt lat="44.79831" lon="4.71022">
        <ele>505</ele>
        <time>2009-03-29T10:17:58Z</time>
      </trkpt>
      <trkpt lat="44.79825" lon="4.71048">
        <ele>504</ele>
        <time>2009-03-29T10:18:01Z</time>
      </trkpt>
      <trkpt lat="44.79804" lon="4.71111">
        <ele>500</ele>
        <time>2009-03-29T10:18:08Z</time>
      </trkpt>
      <trkpt lat="44.79788" lon="4.71151">
        <ele>499</ele>
        <time>2009-03-29T10:18:13Z</time>
      </trkpt>
      <trkpt lat="44.79762" lon="4.71189">
        <ele>498</ele>
        <time>2009-03-29T10:18:19Z</time>
      </trkpt>
      <trkpt lat="44.7972" lon="4.71243">
        <ele>497</ele>
        <time>2009-03-29T10:18:28Z</time>
      </trkpt>
      <trkpt lat="44.79692" lon="4.7128">
        <ele>496</ele>
        <time>2009-03-29T10:18:34Z</time>
      </trkpt>
      <trkpt lat="44.79676" lon="4.71318">
        <ele>495</ele>
        <time>2009-03-29T10:18:39Z</time>
      </trkpt>
      <trkpt lat="44.79674" lon="4.71327">
        <ele>495</ele>
        <time>2009-03-29T10:18:40Z</time>
      </trkpt>
      <trkpt lat="44.79671" lon="4.71374">
        <ele>495</ele>
        <time>2009-03-29T10:18:47Z</time>
      </trkpt>
      <trkpt lat="44.79672" lon="4.71418">
        <ele>496</ele>
        <time>2009-03-29T10:18:54Z</time>
      </trkpt>
      <trkpt lat="44.79675" lon="4.71468">
        <ele>496</ele>
        <time>2009-03-29T10:19:01Z</time>
      </trkpt>
      <trkpt lat="44.79678" lon="4.71543">
        <ele>496</ele>
        <time>2009-03-29T10:19:11Z</time>
      </trkpt>
      <trkpt lat="44.7968" lon="4.71568">
        <ele>496</ele>
        <time>2009-03-29T10:19:15Z</time>
      </trkpt>
      <trkpt lat="44.79685" lon="4.71594">
        <ele>496</ele>
        <time>2009-03-29T10:19:19Z</time>
      </trkpt>
      <trkpt lat="44.79708" lon="4.71653">
        <ele>496</ele>
        <time>2009-03-29T10:19:30Z</time>
      </trkpt>
      <trkpt lat="44.79724" lon="4.71691">
        <ele>496</ele>
        <time>2009-03-29T10:19:37Z</time>
      </trkpt>
      <trkpt lat="44.79733" lon="4.71705">
        <ele>496</ele>
        <time>2009-03-29T10:19:40Z</time>
      </trkpt>
      <trkpt lat="44.7974" lon="4.7173">
        <ele>496</ele>
        <time>2009-03-29T10:19:45Z</time>
      </trkpt>
      <trkpt lat="44.79736" lon="4.71739">
        <ele>496</ele>
        <time>2009-03-29T10:19:47Z</time>
      </trkpt>
      <trkpt lat="44.79718" lon="4.7177">
        <ele>493</ele>
        <time>2009-03-29T10:19:55Z</time>
      </trkpt>
      <trkpt lat="44.79701" lon="4.71783">
        <ele>492</ele>
        <time>2009-03-29T10:19:59Z</time>
      </trkpt>
      <trkpt lat="44.7968" lon="4.71782">
        <ele>491</ele>
        <time>2009-03-29T10:20:03Z</time>
      </trkpt>
      <trkpt lat="44.79676" lon="4.71779">
        <ele>491</ele>
        <time>2009-03-29T10:20:04Z</time>
      </trkpt>
      <trkpt lat="44.79651" lon="4.71764">
        <ele>492</ele>
        <time>2009-03-29T10:20:10Z</time>
      </trkpt>
      <trkpt lat="44.79634" lon="4.7176">
        <ele>491</ele>
        <time>2009-03-29T10:20:14Z</time>
      </trkpt>
      <trkpt lat="44.79626" lon="4.7176">
        <ele>490</ele>
        <time>2009-03-29T10:20:16Z</time>
      </trkpt>
      <trkpt lat="44.79617" lon="4.71768">
        <ele>489</ele>
        <time>2009-03-29T10:20:19Z</time>
      </trkpt>
      <trkpt lat="44.79603" lon="4.71782">
        <ele>487</ele>
        <time>2009-03-29T10:20:24Z</time>
      </trkpt>
      <trkpt lat="44.79602" lon="4.71783">
        <ele>487</ele>
        <time>2009-03-29T10:20:25Z</time>
      </trkpt>
      <trkpt lat="44.79599" lon="4.71798">
        <ele>485</ele>
        <time>2009-03-29T10:20:30Z</time>
      </trkpt>
      <trkpt lat="44.79598" lon="4.71802">
        <ele>485</ele>
        <time>2009-03-29T10:20:31Z</time>
      </trkpt>
      <trkpt lat="44.79596" lon="4.71819">
        <ele>484</ele>
        <time>2009-03-29T10:20:35Z</time>
      </trkpt>
      <trkpt lat="44.79586" lon="4.71835">
        <ele>482</ele>
        <time>2009-03-29T10:20:39Z</time>
      </trkpt>
      <trkpt lat="44.79575" lon="4.71849">
        <ele>478</ele>
        <time>2009-03-29T10:20:42Z</time>
      </trkpt>
      <trkpt lat="44.79561" lon="4.71869">
        <ele>473</ele>
        <time>2009-03-29T10:20:47Z</time>
      </trkpt>
      <trkpt lat="44.79553" lon="4.71874">
        <ele>472</ele>
        <time>2009-03-29T10:20:50Z</time>
      </trkpt>
      <trkpt lat="44.79538" lon="4.7187">
        <ele>470</ele>
        <time>2009-03-29T10:20:54Z</time>
      </trkpt>
      <trkpt lat="44.79534" lon="4.71867">
        <ele>470</ele>
        <time>2009-03-29T10:20:55Z</time>
      </trkpt>
      <trkpt lat="44.79513" lon="4.7184">
        <ele>470</ele>
        <time>2009-03-29T10:21:01Z</time>
      </trkpt>
      <trkpt lat="44.79511" lon="4.71823">
        <ele>472</ele>
        <time>2009-03-29T10:21:06Z</time>
      </trkpt>
      <trkpt lat="44.79506" lon="4.7181">
        <ele>472</ele>
        <time>2009-03-29T10:21:11Z</time>
      </trkpt>
      <trkpt lat="44.79504" lon="4.71806">
        <ele>472</ele>
        <time>2009-03-29T10:21:13Z</time>
      </trkpt>
      <trkpt lat="44.79494" lon="4.71805">
        <ele>470</ele>
        <time>2009-03-29T10:21:17Z</time>
      </trkpt>
      <trkpt lat="44.79491" lon="4.71817">
        <ele>469</ele>
        <time>2009-03-29T10:21:20Z</time>
      </trkpt>
      <trkpt lat="44.79486" lon="4.71841">
        <ele>466</ele>
        <time>2009-03-29T10:21:26Z</time>
      </trkpt>
      <trkpt lat="44.79475" lon="4.71843">
        <ele>464</ele>
        <time>2009-03-29T10:21:30Z</time>
      </trkpt>
      <trkpt lat="44.7946" lon="4.71839">
        <ele>462</ele>
        <time>2009-03-29T10:21:34Z</time>
      </trkpt>
      <trkpt lat="44.79457" lon="4.71837">
        <ele>461</ele>
        <time>2009-03-29T10:21:35Z</time>
      </trkpt>
      <trkpt lat="44.7945" lon="4.71832">
        <ele>461</ele>
        <time>2009-03-29T10:21:37Z</time>
      </trkpt>
      <trkpt lat="44.79435" lon="4.71816">
        <ele>460</ele>
        <time>2009-03-29T10:21:41Z</time>
      </trkpt>
      <trkpt lat="44.79423" lon="4.71803">
        <ele>459</ele>
        <time>2009-03-29T10:21:45Z</time>
      </trkpt>
      <trkpt lat="44.79421" lon="4.71801">
        <ele>459</ele>
        <time>2009-03-29T10:21:46Z</time>
      </trkpt>
      <trkpt lat="44.79412" lon="4.71806">
        <ele>457</ele>
        <time>2009-03-29T10:21:50Z</time>
      </trkpt>
      <trkpt lat="44.79407" lon="4.71808">
        <ele>457</ele>
        <time>2009-03-29T10:21:53Z</time>
      </trkpt>
      <trkpt lat="44.794" lon="4.71799">
        <ele>457</ele>
        <time>2009-03-29T10:21:57Z</time>
      </trkpt>
      <trkpt lat="44.79393" lon="4.71791">
        <ele>458</ele>
        <time>2009-03-29T10:22:00Z</time>
      </trkpt>
      <trkpt lat="44.79381" lon="4.71789">
        <ele>457</ele>
        <time>2009-03-29T10:22:05Z</time>
      </trkpt>
      <trkpt lat="44.79368" lon="4.71786">
        <ele>457</ele>
        <time>2009-03-29T10:22:12Z</time>
      </trkpt>
      <trkpt lat="44.79361" lon="4.71783">
        <ele>457</ele>
        <time>2009-03-29T10:22:17Z</time>
      </trkpt>
      <trkpt lat="44.79355" lon="4.71772">
        <ele>458</ele>
        <time>2009-03-29T10:22:22Z</time>
      </trkpt>
      <trkpt lat="44.79353" lon="4.71763">
        <ele>459</ele>
        <time>2009-03-29T10:22:26Z</time>
      </trkpt>
      <trkpt lat="44.79353" lon="4.71759">
        <ele>459</ele>
        <time>2009-03-29T10:22:28Z</time>
      </trkpt>
      <trkpt lat="44.79348" lon="4.71753">
        <ele>459</ele>
        <time>2009-03-29T10:22:33Z</time>
      </trkpt>
      <trkpt lat="44.7934" lon="4.7175">
        <ele>459</ele>
        <time>2009-03-29T10:22:37Z</time>
      </trkpt>
      <trkpt lat="44.79336" lon="4.71744">
        <ele>459</ele>
        <time>2009-03-29T10:22:40Z</time>
      </trkpt>
      <trkpt lat="44.79333" lon="4.7174">
        <ele>459</ele>
        <time>2009-03-29T10:22:42Z</time>
      </trkpt>
      <trkpt lat="44.79332" lon="4.71731">
        <ele>460</ele>
        <time>2009-03-29T10:22:46Z</time>
      </trkpt>
      <trkpt lat="44.79332" lon="4.71729">
        <ele>460</ele>
        <time>2009-03-29T10:22:47Z</time>
      </trkpt>
      <trkpt lat="44.79318" lon="4.71717">
        <ele>460</ele>
        <time>2009-03-29T10:22:53Z</time>
      </trkpt>
      <trkpt lat="44.79305" lon="4.71718">
        <ele>459</ele>
        <time>2009-03-29T10:22:56Z</time>
      </trkpt>
      <trkpt lat="44.79297" lon="4.7172">
        <ele>458</ele>
        <time>2009-03-29T10:22:58Z</time>
      </trkpt>
      <trkpt lat="44.7928" lon="4.71716">
        <ele>457</ele>
        <time>2009-03-29T10:23:03Z</time>
      </trkpt>
      <trkpt lat="44.79264" lon="4.7172">
        <ele>456</ele>
        <time>2009-03-29T10:23:08Z</time>
      </trkpt>
      <trkpt lat="44.79257" lon="4.71732">
        <ele>454</ele>
        <time>2009-03-29T10:23:10Z</time>
      </trkpt>
      <trkpt lat="44.7924" lon="4.71746">
        <ele>452</ele>
        <time>2009-03-29T10:23:14Z</time>
      </trkpt>
      <trkpt lat="44.7923" lon="4.71734">
        <ele>452</ele>
        <time>2009-03-29T10:23:17Z</time>
      </trkpt>
      <trkpt lat="44.79225" lon="4.71731">
        <ele>452</ele>
        <time>2009-03-29T10:23:19Z</time>
      </trkpt>
      <trkpt lat="44.79214" lon="4.71734">
        <ele>451</ele>
        <time>2009-03-29T10:23:24Z</time>
      </trkpt>
      <trkpt lat="44.79204" lon="4.71739">
        <ele>450</ele>
        <time>2009-03-29T10:23:28Z</time>
      </trkpt>
      <trkpt lat="44.79198" lon="4.7174">
        <ele>449</ele>
        <time>2009-03-29T10:23:33Z</time>
      </trkpt>
      <trkpt lat="44.79193" lon="4.71734">
        <ele>449</ele>
        <time>2009-03-29T10:24:01Z</time>
      </trkpt>
      <trkpt lat="44.79192" lon="4.7174">
        <ele>449</ele>
        <time>2009-03-29T10:24:05Z</time>
      </trkpt>
      <trkpt lat="44.79202" lon="4.7176">
        <ele>448</ele>
        <time>2009-03-29T10:24:11Z</time>
      </trkpt>
      <trkpt lat="44.79208" lon="4.71777">
        <ele>447</ele>
        <time>2009-03-29T10:24:16Z</time>
      </trkpt>
      <trkpt lat="44.79223" lon="4.7179">
        <ele>447</ele>
        <time>2009-03-29T10:24:21Z</time>
      </trkpt>
      <trkpt lat="44.79244" lon="4.71808">
        <ele>448</ele>
        <time>2009-03-29T10:24:27Z</time>
      </trkpt>
      <trkpt lat="44.79266" lon="4.71819">
        <ele>448</ele>
        <time>2009-03-29T10:24:32Z</time>
      </trkpt>
      <trkpt lat="44.79292" lon="4.71833">
        <ele>448</ele>
        <time>2009-03-29T10:24:39Z</time>
      </trkpt>
      <trkpt lat="44.79314" lon="4.71837">
        <ele>448</ele>
        <time>2009-03-29T10:24:45Z</time>
      </trkpt>
      <trkpt lat="44.79337" lon="4.71836">
        <ele>449</ele>
        <time>2009-03-29T10:24:50Z</time>
      </trkpt>
      <trkpt lat="44.79367" lon="4.71839">
        <ele>451</ele>
        <time>2009-03-29T10:24:55Z</time>
      </trkpt>
      <trkpt lat="44.79385" lon="4.71853">
        <ele>450</ele>
        <time>2009-03-29T10:24:58Z</time>
      </trkpt>
      <trkpt lat="44.7939" lon="4.71868">
        <ele>449</ele>
        <time>2009-03-29T10:25:00Z</time>
      </trkpt>
      <trkpt lat="44.79406" lon="4.71899">
        <ele>447</ele>
        <time>2009-03-29T10:25:05Z</time>
      </trkpt>
      <trkpt lat="44.79427" lon="4.71918">
        <ele>449</ele>
        <time>2009-03-29T10:25:11Z</time>
      </trkpt>
      <trkpt lat="44.79443" lon="4.71941">
        <ele>449</ele>
        <time>2009-03-29T10:25:17Z</time>
      </trkpt>
      <trkpt lat="44.79457" lon="4.71971">
        <ele>448</ele>
        <time>2009-03-29T10:25:24Z</time>
      </trkpt>
      <trkpt lat="44.79483" lon="4.72003">
        <ele>449</ele>
        <time>2009-03-29T10:25:33Z</time>
      </trkpt>
      <trkpt lat="44.79501" lon="4.72029">
        <ele>450</ele>
        <time>2009-03-29T10:25:40Z</time>
      </trkpt>
      <trkpt lat="44.79507" lon="4.72042">
        <ele>450</ele>
        <time>2009-03-29T10:25:44Z</time>
      </trkpt>
      <trkpt lat="44.79514" lon="4.72056">
        <ele>449</ele>
        <time>2009-03-29T10:25:50Z</time>
      </trkpt>
      <trkpt lat="44.79526" lon="4.72071">
        <ele>449</ele>
        <time>2009-03-29T10:25:58Z</time>
      </trkpt>
      <trkpt lat="44.79543" lon="4.72083">
        <ele>450</ele>
        <time>2009-03-29T10:26:06Z</time>
      </trkpt>
      <trkpt lat="44.7956" lon="4.72093">
        <ele>450</ele>
        <time>2009-03-29T10:26:14Z</time>
      </trkpt>
      <trkpt lat="44.79578" lon="4.72103">
        <ele>451</ele>
        <time>2009-03-29T10:26:20Z</time>
      </trkpt>
      <trkpt lat="44.79602" lon="4.72116">
        <ele>449</ele>
        <time>2009-03-29T10:26:27Z</time>
      </trkpt>
      <trkpt lat="44.79628" lon="4.72123">
        <ele>448</ele>
        <time>2009-03-29T10:26:33Z</time>
      </trkpt>
      <trkpt lat="44.79654" lon="4.72114">
        <ele>448</ele>
        <time>2009-03-29T10:26:37Z</time>
      </trkpt>
      <trkpt lat="44.79684" lon="4.72111">
        <ele>449</ele>
        <time>2009-03-29T10:26:41Z</time>
      </trkpt>
      <trkpt lat="44.79707" lon="4.72108">
        <ele>450</ele>
        <time>2009-03-29T10:26:44Z</time>
      </trkpt>
      <trkpt lat="44.79723" lon="4.7211">
        <ele>451</ele>
        <time>2009-03-29T10:26:48Z</time>
      </trkpt>
      <trkpt lat="44.79735" lon="4.72115">
        <ele>451</ele>
        <time>2009-03-29T10:26:54Z</time>
      </trkpt>
      <trkpt lat="44.79745" lon="4.7212">
        <ele>451</ele>
        <time>2009-03-29T10:27:00Z</time>
      </trkpt>
      <trkpt lat="44.79755" lon="4.72126">
        <ele>451</ele>
        <time>2009-03-29T10:27:07Z</time>
      </trkpt>
      <trkpt lat="44.79769" lon="4.72136">
        <ele>451</ele>
        <time>2009-03-29T10:27:15Z</time>
      </trkpt>
      <trkpt lat="44.79783" lon="4.72149">
        <ele>451</ele>
        <time>2009-03-29T10:27:23Z</time>
      </trkpt>
      <trkpt lat="44.798" lon="4.72155">
        <ele>451</ele>
        <time>2009-03-29T10:27:32Z</time>
      </trkpt>
      <trkpt lat="44.79817" lon="4.72154">
        <ele>452</ele>
        <time>2009-03-29T10:27:41Z</time>
      </trkpt>
      <trkpt lat="44.79834" lon="4.72149">
        <ele>454</ele>
        <time>2009-03-29T10:27:49Z</time>
      </trkpt>
      <trkpt lat="44.79848" lon="4.7214">
        <ele>455</ele>
        <time>2009-03-29T10:27:56Z</time>
      </trkpt>
      <trkpt lat="44.79856" lon="4.72135">
        <ele>456</ele>
        <time>2009-03-29T10:28:01Z</time>
      </trkpt>
      <trkpt lat="44.79873" lon="4.7212">
        <ele>458</ele>
        <time>2009-03-29T10:28:10Z</time>
      </trkpt>
      <trkpt lat="44.79889" lon="4.72112">
        <ele>459</ele>
        <time>2009-03-29T10:28:18Z</time>
      </trkpt>
      <trkpt lat="44.79897" lon="4.72105">
        <ele>460</ele>
        <time>2009-03-29T10:28:24Z</time>
      </trkpt>
      <trkpt lat="44.79908" lon="4.72096">
        <ele>462</ele>
        <time>2009-03-29T10:28:31Z</time>
      </trkpt>
      <trkpt lat="44.79923" lon="4.72085">
        <ele>464</ele>
        <time>2009-03-29T10:28:40Z</time>
      </trkpt>
      <trkpt lat="44.79935" lon="4.72074">
        <ele>464</ele>
        <time>2009-03-29T10:28:49Z</time>
      </trkpt>
      <trkpt lat="44.79945" lon="4.72062">
        <ele>465</ele>
        <time>2009-03-29T10:28:57Z</time>
      </trkpt>
      <trkpt lat="44.79957" lon="4.72047">
        <ele>465</ele>
        <time>2009-03-29T10:29:06Z</time>
      </trkpt>
      <trkpt lat="44.79965" lon="4.72032">
        <ele>465</ele>
        <time>2009-03-29T10:29:13Z</time>
      </trkpt>
      <trkpt lat="44.79966" lon="4.72018">
        <ele>466</ele>
        <time>2009-03-29T10:29:18Z</time>
      </trkpt>
      <trkpt lat="44.79967" lon="4.72015">
        <ele>466</ele>
        <time>2009-03-29T10:29:19Z</time>
      </trkpt>
      <trkpt lat="44.7998" lon="4.72003">
        <ele>466</ele>
        <time>2009-03-29T10:29:26Z</time>
      </trkpt>
      <trkpt lat="44.7999" lon="4.71986">
        <ele>466</ele>
        <time>2009-03-29T10:29:32Z</time>
      </trkpt>
      <trkpt lat="44.80005" lon="4.71966">
        <ele>467</ele>
        <time>2009-03-29T10:29:38Z</time>
      </trkpt>
      <trkpt lat="44.8002" lon="4.71942">
        <ele>467</ele>
        <time>2009-03-29T10:29:45Z</time>
      </trkpt>
      <trkpt lat="44.80031" lon="4.7193">
        <ele>466</ele>
        <time>2009-03-29T10:29:49Z</time>
      </trkpt>
      <trkpt lat="44.8005" lon="4.71909">
        <ele>465</ele>
        <time>2009-03-29T10:29:56Z</time>
      </trkpt>
      <trkpt lat="44.80067" lon="4.719">
        <ele>464</ele>
        <time>2009-03-29T10:30:01Z</time>
      </trkpt>
      <trkpt lat="44.80082" lon="4.71885">
        <ele>463</ele>
        <time>2009-03-29T10:30:07Z</time>
      </trkpt>
      <trkpt lat="44.80097" lon="4.71871">
        <ele>461</ele>
        <time>2009-03-29T10:30:12Z</time>
      </trkpt>
      <trkpt lat="44.80114" lon="4.71871">
        <ele>458</ele>
        <time>2009-03-29T10:30:17Z</time>
      </trkpt>
      <trkpt lat="44.80118" lon="4.71871">
        <ele>458</ele>
        <time>2009-03-29T10:30:18Z</time>
      </trkpt>
      <trkpt lat="44.80132" lon="4.71855">
        <ele>457</ele>
        <time>2009-03-29T10:30:22Z</time>
      </trkpt>
      <trkpt lat="44.80144" lon="4.7185">
        <ele>455</ele>
        <time>2009-03-29T10:30:24Z</time>
      </trkpt>
      <trkpt lat="44.80162" lon="4.71841">
        <ele>453</ele>
        <time>2009-03-29T10:30:27Z</time>
      </trkpt>
      <trkpt lat="44.80181" lon="4.71832">
        <ele>451</ele>
        <time>2009-03-29T10:30:31Z</time>
      </trkpt>
      <trkpt lat="44.80186" lon="4.71832">
        <ele>451</ele>
        <time>2009-03-29T10:30:32Z</time>
      </trkpt>
      <trkpt lat="44.80213" lon="4.71824">
        <ele>447</ele>
        <time>2009-03-29T10:30:38Z</time>
      </trkpt>
      <trkpt lat="44.80233" lon="4.71819">
        <ele>443</ele>
        <time>2009-03-29T10:30:42Z</time>
      </trkpt>
      <trkpt lat="44.80257" lon="4.71819">
        <ele>440</ele>
        <time>2009-03-29T10:30:46Z</time>
      </trkpt>
      <trkpt lat="44.80294" lon="4.7182">
        <ele>432</ele>
        <time>2009-03-29T10:30:51Z</time>
      </trkpt>
      <trkpt lat="44.80309" lon="4.71825">
        <ele>430</ele>
        <time>2009-03-29T10:30:54Z</time>
      </trkpt>
      <trkpt lat="44.80335" lon="4.71824">
        <ele>424</ele>
        <time>2009-03-29T10:30:59Z</time>
      </trkpt>
      <trkpt lat="44.80341" lon="4.71823">
        <ele>423</ele>
        <time>2009-03-29T10:31:00Z</time>
      </trkpt>
      <trkpt lat="44.80369" lon="4.71814">
        <ele>415</ele>
        <time>2009-03-29T10:31:05Z</time>
      </trkpt>
      <trkpt lat="44.80377" lon="4.71802">
        <ele>412</ele>
        <time>2009-03-29T10:31:07Z</time>
      </trkpt>
      <trkpt lat="44.80385" lon="4.71792">
        <ele>410</ele>
        <time>2009-03-29T10:31:09Z</time>
      </trkpt>
      <trkpt lat="44.80405" lon="4.71786">
        <ele>405</ele>
        <time>2009-03-29T10:31:13Z</time>
      </trkpt>
      <trkpt lat="44.80411" lon="4.71785">
        <ele>404</ele>
        <time>2009-03-29T10:31:14Z</time>
      </trkpt>
      <trkpt lat="44.80428" lon="4.71785">
        <ele>400</ele>
        <time>2009-03-29T10:31:17Z</time>
      </trkpt>
      <trkpt lat="44.80437" lon="4.71764">
        <ele>398</ele>
        <time>2009-03-29T10:31:21Z</time>
      </trkpt>
      <trkpt lat="44.80441" lon="4.7176">
        <ele>397</ele>
        <time>2009-03-29T10:31:23Z</time>
      </trkpt>
      <trkpt lat="44.80444" lon="4.71762">
        <ele>396</ele>
        <time>2009-03-29T10:31:24Z</time>
      </trkpt>
      <trkpt lat="44.8046" lon="4.71777">
        <ele>392</ele>
        <time>2009-03-29T10:31:28Z</time>
      </trkpt>
      <trkpt lat="44.80478" lon="4.71777">
        <ele>387</ele>
        <time>2009-03-29T10:31:32Z</time>
      </trkpt>
      <trkpt lat="44.80488" lon="4.71757">
        <ele>386</ele>
        <time>2009-03-29T10:31:35Z</time>
      </trkpt>
      <trkpt lat="44.80486" lon="4.71739">
        <ele>386</ele>
        <time>2009-03-29T10:31:38Z</time>
      </trkpt>
      <trkpt lat="44.80474" lon="4.71727">
        <ele>386</ele>
        <time>2009-03-29T10:31:41Z</time>
      </trkpt>
      <trkpt lat="44.80463" lon="4.71708">
        <ele>384</ele>
        <time>2009-03-29T10:31:44Z</time>
      </trkpt>
      <trkpt lat="44.80462" lon="4.7169">
        <ele>382</ele>
        <time>2009-03-29T10:31:46Z</time>
      </trkpt>
      <trkpt lat="44.8046" lon="4.71658">
        <ele>375</ele>
        <time>2009-03-29T10:31:51Z</time>
      </trkpt>
      <trkpt lat="44.80464" lon="4.71644">
        <ele>371</ele>
        <time>2009-03-29T10:31:55Z</time>
      </trkpt>
      <trkpt lat="44.80471" lon="4.71647">
        <ele>372</ele>
        <time>2009-03-29T10:31:59Z</time>
      </trkpt>
      <trkpt lat="44.80478" lon="4.71648">
        <ele>372</ele>
        <time>2009-03-29T10:32:02Z</time>
      </trkpt>
      <trkpt lat="44.80491" lon="4.71644">
        <ele>371</ele>
        <time>2009-03-29T10:32:05Z</time>
      </trkpt>
      <trkpt lat="44.80513" lon="4.71626">
        <ele>363</ele>
        <time>2009-03-29T10:32:10Z</time>
      </trkpt>
      <trkpt lat="44.80519" lon="4.71617">
        <ele>360</ele>
        <time>2009-03-29T10:32:13Z</time>
      </trkpt>
      <trkpt lat="44.80522" lon="4.71619">
        <ele>359</ele>
        <time>2009-03-29T10:32:15Z</time>
      </trkpt>
      <trkpt lat="44.80524" lon="4.71636">
        <ele>361</ele>
        <time>2009-03-29T10:32:19Z</time>
      </trkpt>
      <trkpt lat="44.80525" lon="4.71642">
        <ele>362</ele>
        <time>2009-03-29T10:32:20Z</time>
      </trkpt>
      <trkpt lat="44.80539" lon="4.71661">
        <ele>360</ele>
        <time>2009-03-29T10:32:24Z</time>
      </trkpt>
      <trkpt lat="44.80551" lon="4.7168">
        <ele>357</ele>
        <time>2009-03-29T10:32:27Z</time>
      </trkpt>
      <trkpt lat="44.80556" lon="4.71697">
        <ele>355</ele>
        <time>2009-03-29T10:32:29Z</time>
      </trkpt>
      <trkpt lat="44.80559" lon="4.71714">
        <ele>354</ele>
        <time>2009-03-29T10:32:31Z</time>
      </trkpt>
      <trkpt lat="44.80562" lon="4.71734">
        <ele>354</ele>
        <time>2009-03-29T10:32:35Z</time>
      </trkpt>
      <trkpt lat="44.80565" lon="4.71749">
        <ele>353</ele>
        <time>2009-03-29T10:32:41Z</time>
      </trkpt>
      <trkpt lat="44.80566" lon="4.71752">
        <ele>352</ele>
        <time>2009-03-29T10:32:45Z</time>
      </trkpt>
      <trkpt lat="44.80567" lon="4.71759">
        <ele>351</ele>
        <time>2009-03-29T10:32:51Z</time>
      </trkpt>
      <trkpt lat="44.80567" lon="4.71762">
        <ele>350</ele>
        <time>2009-03-29T10:32:52Z</time>
      </trkpt>
      <trkpt lat="44.80568" lon="4.71785">
        <ele>347</ele>
        <time>2009-03-29T10:32:59Z</time>
      </trkpt>
      <trkpt lat="44.80568" lon="4.71789">
        <ele>347</ele>
        <time>2009-03-29T10:33:00Z</time>
      </trkpt>
      <trkpt lat="44.80564" lon="4.71816">
        <ele>346</ele>
        <time>2009-03-29T10:33:06Z</time>
      </trkpt>
      <trkpt lat="44.80558" lon="4.7183">
        <ele>347</ele>
        <time>2009-03-29T10:33:10Z</time>
      </trkpt>
      <trkpt lat="44.80551" lon="4.71843">
        <ele>348</ele>
        <time>2009-03-29T10:33:12Z</time>
      </trkpt>
      <trkpt lat="44.80544" lon="4.71875">
        <ele>343</ele>
        <time>2009-03-29T10:33:17Z</time>
      </trkpt>
      <trkpt lat="44.80544" lon="4.71884">
        <ele>341</ele>
        <time>2009-03-29T10:33:19Z</time>
      </trkpt>
      <trkpt lat="44.80543" lon="4.719">
        <ele>337</ele>
        <time>2009-03-29T10:33:22Z</time>
      </trkpt>
      <trkpt lat="44.8054" lon="4.71924">
        <ele>333</ele>
        <time>2009-03-29T10:33:26Z</time>
      </trkpt>
      <trkpt lat="44.80526" lon="4.71939">
        <ele>337</ele>
        <time>2009-03-29T10:33:31Z</time>
      </trkpt>
      <trkpt lat="44.80511" lon="4.71949">
        <ele>340</ele>
        <time>2009-03-29T10:33:35Z</time>
      </trkpt>
      <trkpt lat="44.805" lon="4.71958">
        <ele>342</ele>
        <time>2009-03-29T10:33:39Z</time>
      </trkpt>
      <trkpt lat="44.8049" lon="4.71961">
        <ele>345</ele>
        <time>2009-03-29T10:33:44Z</time>
      </trkpt>
      <trkpt lat="44.80487" lon="4.71963">
        <ele>345</ele>
        <time>2009-03-29T10:33:51Z</time>
      </trkpt>
      <trkpt lat="44.80485" lon="4.71969">
        <ele>345</ele>
        <time>2009-03-29T10:33:57Z</time>
      </trkpt>
      <trkpt lat="44.80484" lon="4.71972">
        <ele>344</ele>
        <time>2009-03-29T10:34:01Z</time>
      </trkpt>
      <trkpt lat="44.80483" lon="4.71978">
        <ele>344</ele>
        <time>2009-03-29T10:34:10Z</time>
      </trkpt>
      <trkpt lat="44.80476" lon="4.71983">
        <ele>344</ele>
        <time>2009-03-29T10:34:18Z</time>
      </trkpt>
      <trkpt lat="44.80474" lon="4.71984">
        <ele>345</ele>
        <time>2009-03-29T10:34:25Z</time>
      </trkpt>
      <trkpt lat="44.80468" lon="4.71992">
        <ele>345</ele>
        <time>2009-03-29T10:34:30Z</time>
      </trkpt>
      <trkpt lat="44.80467" lon="4.71995">
        <ele>344</ele>
        <time>2009-03-29T10:34:34Z</time>
      </trkpt>
      <trkpt lat="44.80467" lon="4.71997">
        <ele>344</ele>
        <time>2009-03-29T10:34:41Z</time>
      </trkpt>
      <trkpt lat="44.80468" lon="4.72001">
        <ele>343</ele>
        <time>2009-03-29T10:34:50Z</time>
      </trkpt>
      <trkpt lat="44.80468" lon="4.72004">
        <ele>344</ele>
        <time>2009-03-29T10:34:55Z</time>
      </trkpt>
      <trkpt lat="44.80467" lon="4.72008">
        <ele>345</ele>
        <time>2009-03-29T10:35:00Z</time>
      </trkpt>
      <trkpt lat="44.80469" lon="4.72012">
        <ele>345</ele>
        <time>2009-03-29T10:35:05Z</time>
      </trkpt>
      <trkpt lat="44.8047" lon="4.72018">
        <ele>346</ele>
        <time>2009-03-29T10:35:12Z</time>
      </trkpt>
      <trkpt lat="44.80473" lon="4.72024">
        <ele>347</ele>
        <time>2009-03-29T10:35:19Z</time>
      </trkpt>
      <trkpt lat="44.80476" lon="4.72028">
        <ele>347</ele>
        <time>2009-03-29T10:35:25Z</time>
      </trkpt>
      <trkpt lat="44.80486" lon="4.7203">
        <ele>345</ele>
        <time>2009-03-29T10:35:35Z</time>
      </trkpt>
      <trkpt lat="44.80492" lon="4.72033">
        <ele>344</ele>
        <time>2009-03-29T10:35:42Z</time>
      </trkpt>
      <trkpt lat="44.80494" lon="4.72034">
        <ele>344</ele>
        <time>2009-03-29T10:35:48Z</time>
      </trkpt>
      <trkpt lat="44.80495" lon="4.72034">
        <ele>344</ele>
        <time>2009-03-29T10:35:49Z</time>
      </trkpt>
      <trkpt lat="44.80505" lon="4.72038">
        <ele>343</ele>
        <time>2009-03-29T10:35:54Z</time>
      </trkpt>
      <trkpt lat="44.80508" lon="4.72053">
        <ele>346</ele>
        <time>2009-03-29T10:35:59Z</time>
      </trkpt>
      <trkpt lat="44.8051" lon="4.72055">
        <ele>346</ele>
        <time>2009-03-29T10:36:00Z</time>
      </trkpt>
      <trkpt lat="44.80513" lon="4.72055">
        <ele>346</ele>
        <time>2009-03-29T10:36:06Z</time>
      </trkpt>
      <trkpt lat="44.80515" lon="4.72055">
        <ele>345</ele>
        <time>2009-03-29T10:36:11Z</time>
      </trkpt>
      <trkpt lat="44.80516" lon="4.72055">
        <ele>345</ele>
        <time>2009-03-29T10:36:15Z</time>
      </trkpt>
      <trkpt lat="44.80525" lon="4.72052">
        <ele>343</ele>
        <time>2009-03-29T10:36:21Z</time>
      </trkpt>
      <trkpt lat="44.80536" lon="4.72049">
        <ele>340</ele>
        <time>2009-03-29T10:36:27Z</time>
      </trkpt>
      <trkpt lat="44.80542" lon="4.72051">
        <ele>340</ele>
        <time>2009-03-29T10:36:32Z</time>
      </trkpt>
      <trkpt lat="44.80546" lon="4.7205">
        <ele>339</ele>
        <time>2009-03-29T10:36:44Z</time>
      </trkpt>
      <trkpt lat="44.80547" lon="4.72051">
        <ele>339</ele>
        <time>2009-03-29T10:36:45Z</time>
      </trkpt>
      <trkpt lat="44.80552" lon="4.72055">
        <ele>339</ele>
        <time>2009-03-29T10:36:48Z</time>
      </trkpt>
      <trkpt lat="44.80557" lon="4.7206">
        <ele>340</ele>
        <time>2009-03-29T10:36:54Z</time>
      </trkpt>
      <trkpt lat="44.8056" lon="4.72062">
        <ele>340</ele>
        <time>2009-03-29T10:37:00Z</time>
      </trkpt>
      <trkpt lat="44.80561" lon="4.72062">
        <ele>339</ele>
        <time>2009-03-29T10:37:05Z</time>
      </trkpt>
      <trkpt lat="44.80571" lon="4.72057">
        <ele>337</ele>
        <time>2009-03-29T10:37:11Z</time>
      </trkpt>
      <trkpt lat="44.80582" lon="4.7205">
        <ele>333</ele>
        <time>2009-03-29T10:37:15Z</time>
      </trkpt>
      <trkpt lat="44.80599" lon="4.72046">
        <ele>332</ele>
        <time>2009-03-29T10:37:21Z</time>
      </trkpt>
      <trkpt lat="44.80604" lon="4.72045">
        <ele>331</ele>
        <time>2009-03-29T10:37:23Z</time>
      </trkpt>
      <trkpt lat="44.80619" lon="4.72037">
        <ele>329</ele>
        <time>2009-03-29T10:37:28Z</time>
      </trkpt>
      <trkpt lat="44.80628" lon="4.72034">
        <ele>328</ele>
        <time>2009-03-29T10:37:31Z</time>
      </trkpt>
      <trkpt lat="44.80638" lon="4.72029">
        <ele>327</ele>
        <time>2009-03-29T10:37:36Z</time>
      </trkpt>
      <trkpt lat="44.80644" lon="4.72028">
        <ele>326</ele>
        <time>2009-03-29T10:37:39Z</time>
      </trkpt>
      <trkpt lat="44.80656" lon="4.72023">
        <ele>325</ele>
        <time>2009-03-29T10:37:45Z</time>
      </trkpt>
      <trkpt lat="44.80668" lon="4.72016">
        <ele>323</ele>
        <time>2009-03-29T10:37:50Z</time>
      </trkpt>
      <trkpt lat="44.8067" lon="4.72016">
        <ele>323</ele>
        <time>2009-03-29T10:37:51Z</time>
      </trkpt>
      <trkpt lat="44.80679" lon="4.72005">
        <ele>320</ele>
        <time>2009-03-29T10:37:56Z</time>
      </trkpt>
      <trkpt lat="44.80683" lon="4.71998">
        <ele>318</ele>
        <time>2009-03-29T10:37:58Z</time>
      </trkpt>
      <trkpt lat="44.80694" lon="4.71992">
        <ele>317</ele>
        <time>2009-03-29T10:38:05Z</time>
      </trkpt>
      <trkpt lat="44.80695" lon="4.71991">
        <ele>317</ele>
        <time>2009-03-29T10:38:06Z</time>
      </trkpt>
      <trkpt lat="44.80698" lon="4.71992">
        <ele>318</ele>
        <time>2009-03-29T10:38:08Z</time>
      </trkpt>
      <trkpt lat="44.80706" lon="4.71989">
        <ele>318</ele>
        <time>2009-03-29T10:38:13Z</time>
      </trkpt>
      <trkpt lat="44.80715" lon="4.71993">
        <ele>320</ele>
        <time>2009-03-29T10:38:20Z</time>
      </trkpt>
      <trkpt lat="44.80724" lon="4.71996">
        <ele>322</ele>
        <time>2009-03-29T10:38:26Z</time>
      </trkpt>
      <trkpt lat="44.80729" lon="4.72004">
        <ele>324</ele>
        <time>2009-03-29T10:38:31Z</time>
      </trkpt>
      <trkpt lat="44.80733" lon="4.72004">
        <ele>325</ele>
        <time>2009-03-29T10:38:34Z</time>
      </trkpt>
      <trkpt lat="44.80743" lon="4.72004">
        <ele>326</ele>
        <time>2009-03-29T10:38:41Z</time>
      </trkpt>
      <trkpt lat="44.80746" lon="4.72002">
        <ele>326</ele>
        <time>2009-03-29T10:38:44Z</time>
      </trkpt>
      <trkpt lat="44.80754" lon="4.71993">
        <ele>323</ele>
        <time>2009-03-29T10:38:49Z</time>
      </trkpt>
      <trkpt lat="44.80765" lon="4.71981">
        <ele>318</ele>
        <time>2009-03-29T10:38:53Z</time>
      </trkpt>
      <trkpt lat="44.80772" lon="4.71966">
        <ele>313</ele>
        <time>2009-03-29T10:38:57Z</time>
      </trkpt>
      <trkpt lat="44.80788" lon="4.71944">
        <ele>307</ele>
        <time>2009-03-29T10:39:04Z</time>
      </trkpt>
      <trkpt lat="44.80793" lon="4.71937">
        <ele>305</ele>
        <time>2009-03-29T10:39:06Z</time>
      </trkpt>
      <trkpt lat="44.80803" lon="4.71911">
        <ele>301</ele>
        <time>2009-03-29T10:39:10Z</time>
      </trkpt>
      <trkpt lat="44.8082" lon="4.71881">
        <ele>294</ele>
        <time>2009-03-29T10:39:15Z</time>
      </trkpt>
      <trkpt lat="44.80825" lon="4.71866">
        <ele>291</ele>
        <time>2009-03-29T10:39:18Z</time>
      </trkpt>
      <trkpt lat="44.80826" lon="4.71861">
        <ele>289</ele>
        <time>2009-03-29T10:39:19Z</time>
      </trkpt>
      <trkpt lat="44.80835" lon="4.71833">
        <ele>283</ele>
        <time>2009-03-29T10:39:24Z</time>
      </trkpt>
      <trkpt lat="44.80841" lon="4.71823">
        <ele>278</ele>
        <time>2009-03-29T10:39:26Z</time>
      </trkpt>
      <trkpt lat="44.80854" lon="4.71797">
        <ele>269</ele>
        <time>2009-03-29T10:39:31Z</time>
      </trkpt>
      <trkpt lat="44.8086" lon="4.7179">
        <ele>266</ele>
        <time>2009-03-29T10:39:33Z</time>
      </trkpt>
      <trkpt lat="44.80868" lon="4.71781">
        <ele>263</ele>
        <time>2009-03-29T10:39:37Z</time>
      </trkpt>
      <trkpt lat="44.80874" lon="4.71774">
        <ele>260</ele>
        <time>2009-03-29T10:39:40Z</time>
      </trkpt>
      <trkpt lat="44.80885" lon="4.71751">
        <ele>253</ele>
        <time>2009-03-29T10:39:45Z</time>
      </trkpt>
      <trkpt lat="44.80895" lon="4.71759">
        <ele>253</ele>
        <time>2009-03-29T10:39:49Z</time>
      </trkpt>
      <trkpt lat="44.80904" lon="4.71784">
        <ele>258</ele>
        <time>2009-03-29T10:39:53Z</time>
      </trkpt>
      <trkpt lat="44.80905" lon="4.71793">
        <ele>260</ele>
        <time>2009-03-29T10:39:54Z</time>
      </trkpt>
      <trkpt lat="44.8091" lon="4.71817">
        <ele>265</ele>
        <time>2009-03-29T10:39:57Z</time>
      </trkpt>
      <trkpt lat="44.80923" lon="4.71828">
        <ele>265</ele>
        <time>2009-03-29T10:40:01Z</time>
      </trkpt>
      <trkpt lat="44.8094" lon="4.71831">
        <ele>262</ele>
        <time>2009-03-29T10:40:05Z</time>
      </trkpt>
      <trkpt lat="44.80952" lon="4.71835">
        <ele>260</ele>
        <time>2009-03-29T10:40:07Z</time>
      </trkpt>
      <trkpt lat="44.80978" lon="4.71843">
        <ele>256</ele>
        <time>2009-03-29T10:40:11Z</time>
      </trkpt>
      <trkpt lat="44.80996" lon="4.71844">
        <ele>253</ele>
        <time>2009-03-29T10:40:16Z</time>
      </trkpt>
      <trkpt lat="44.81001" lon="4.71842">
        <ele>251</ele>
        <time>2009-03-29T10:40:17Z</time>
      </trkpt>
      <trkpt lat="44.81018" lon="4.71821">
        <ele>242</ele>
        <time>2009-03-29T10:40:22Z</time>
      </trkpt>
      <trkpt lat="44.8103" lon="4.71823">
        <ele>239</ele>
        <time>2009-03-29T10:40:25Z</time>
      </trkpt>
      <trkpt lat="44.81044" lon="4.7183">
        <ele>236</ele>
        <time>2009-03-29T10:40:30Z</time>
      </trkpt>
      <trkpt lat="44.81045" lon="4.71831">
        <ele>236</ele>
        <time>2009-03-29T10:40:36Z</time>
      </trkpt>
      <trkpt lat="44.81047" lon="4.71833">
        <ele>236</ele>
        <time>2009-03-29T10:40:48Z</time>
      </trkpt>
      <trkpt lat="44.81044" lon="4.71824">
        <ele>235</ele>
        <time>2009-03-29T10:41:03Z</time>
      </trkpt>
      <trkpt lat="44.81052" lon="4.71829">
        <ele>234</ele>
        <time>2009-03-29T10:41:19Z</time>
      </trkpt>
      <trkpt lat="44.81052" lon="4.71829">
        <ele>234</ele>
        <time>2009-03-29T10:41:20Z</time>
      </trkpt>
      <trkpt lat="44.81059" lon="4.71842">
        <ele>234</ele>
        <time>2009-03-29T10:41:25Z</time>
      </trkpt>
      <trkpt lat="44.81072" lon="4.71861">
        <ele>233</ele>
        <time>2009-03-29T10:41:29Z</time>
      </trkpt>
      <trkpt lat="44.81081" lon="4.71871">
        <ele>232</ele>
        <time>2009-03-29T10:41:34Z</time>
      </trkpt>
      <trkpt lat="44.8109" lon="4.71883">
        <ele>231</ele>
        <time>2009-03-29T10:41:38Z</time>
      </trkpt>
      <trkpt lat="44.81094" lon="4.71886">
        <ele>230</ele>
        <time>2009-03-29T10:41:39Z</time>
      </trkpt>
      <trkpt lat="44.81113" lon="4.71886">
        <ele>225</ele>
        <time>2009-03-29T10:41:44Z</time>
      </trkpt>
      <trkpt lat="44.81135" lon="4.71877">
        <ele>219</ele>
        <time>2009-03-29T10:41:50Z</time>
      </trkpt>
      <trkpt lat="44.81157" lon="4.71885">
        <ele>214</ele>
        <time>2009-03-29T10:41:55Z</time>
      </trkpt>
      <trkpt lat="44.81166" lon="4.71905">
        <ele>214</ele>
        <time>2009-03-29T10:41:59Z</time>
      </trkpt>
      <trkpt lat="44.81179" lon="4.71931">
        <ele>212</ele>
        <time>2009-03-29T10:42:04Z</time>
      </trkpt>
      <trkpt lat="44.81198" lon="4.71926">
        <ele>209</ele>
        <time>2009-03-29T10:42:08Z</time>
      </trkpt>
      <trkpt lat="44.81224" lon="4.7192">
        <ele>206</ele>
        <time>2009-03-29T10:42:13Z</time>
      </trkpt>
      <trkpt lat="44.81246" lon="4.71924">
        <ele>202</ele>
        <time>2009-03-29T10:42:18Z</time>
      </trkpt>
      <trkpt lat="44.81265" lon="4.71912">
        <ele>200</ele>
        <time>2009-03-29T10:42:22Z</time>
      </trkpt>
      <trkpt lat="44.8128" lon="4.71914">
        <ele>198</ele>
        <time>2009-03-29T10:42:24Z</time>
      </trkpt>
      <trkpt lat="44.81308" lon="4.71918">
        <ele>195</ele>
        <time>2009-03-29T10:42:29Z</time>
      </trkpt>
      <trkpt lat="44.81335" lon="4.71899">
        <ele>189</ele>
        <time>2009-03-29T10:42:34Z</time>
      </trkpt>
      <trkpt lat="44.8134" lon="4.71897">
        <ele>188</ele>
        <time>2009-03-29T10:42:35Z</time>
      </trkpt>
      <trkpt lat="44.81353" lon="4.71898">
        <ele>186</ele>
        <time>2009-03-29T10:42:40Z</time>
      </trkpt>
      <trkpt lat="44.81357" lon="4.719">
        <ele>186</ele>
        <time>2009-03-29T10:42:57Z</time>
      </trkpt>
      <trkpt lat="44.81362" lon="4.71902">
        <ele>186</ele>
        <time>2009-03-29T10:43:00Z</time>
      </trkpt>
      <trkpt lat="44.81367" lon="4.71904">
        <ele>186</ele>
        <time>2009-03-29T10:43:01Z</time>
      </trkpt>
      <trkpt lat="44.81392" lon="4.71916">
        <ele>185</ele>
        <time>2009-03-29T10:43:05Z</time>
      </trkpt>
      <trkpt lat="44.81403" lon="4.71916">
        <ele>184</ele>
        <time>2009-03-29T10:43:07Z</time>
      </trkpt>
      <trkpt lat="44.81422" lon="4.71906">
        <ele>179</ele>
        <time>2009-03-29T10:43:11Z</time>
      </trkpt>
      <trkpt lat="44.8143" lon="4.71894">
        <ele>175</ele>
        <time>2009-03-29T10:43:13Z</time>
      </trkpt>
      <trkpt lat="44.81457" lon="4.71874">
        <ele>168</ele>
        <time>2009-03-29T10:43:18Z</time>
      </trkpt>
      <trkpt lat="44.81469" lon="4.71866">
        <ele>165</ele>
        <time>2009-03-29T10:43:21Z</time>
      </trkpt>
      <trkpt lat="44.81483" lon="4.71872">
        <ele>163</ele>
        <time>2009-03-29T10:43:24Z</time>
      </trkpt>
      <trkpt lat="44.81498" lon="4.71891">
        <ele>161</ele>
        <time>2009-03-29T10:43:28Z</time>
      </trkpt>
      <trkpt lat="44.815" lon="4.71914">
        <ele>162</ele>
        <time>2009-03-29T10:43:31Z</time>
      </trkpt>
      <trkpt lat="44.81498" lon="4.71932">
        <ele>162</ele>
        <time>2009-03-29T10:43:33Z</time>
      </trkpt>
      <trkpt lat="44.81499" lon="4.71945">
        <ele>161</ele>
        <time>2009-03-29T10:43:36Z</time>
      </trkpt>
      <trkpt lat="44.81506" lon="4.7193">
        <ele>160</ele>
        <time>2009-03-29T10:43:39Z</time>
      </trkpt>
      <trkpt lat="44.81528" lon="4.71887">
        <ele>156</ele>
        <time>2009-03-29T10:43:45Z</time>
      </trkpt>
      <trkpt lat="44.81539" lon="4.71869">
        <ele>154</ele>
        <time>2009-03-29T10:43:47Z</time>
      </trkpt>
      <trkpt lat="44.81546" lon="4.71826">
        <ele>152</ele>
        <time>2009-03-29T10:43:51Z</time>
      </trkpt>
      <trkpt lat="44.81552" lon="4.718">
        <ele>151</ele>
        <time>2009-03-29T10:43:54Z</time>
      </trkpt>
      <trkpt lat="44.81566" lon="4.71796">
        <ele>149</ele>
        <time>2009-03-29T10:43:56Z</time>
      </trkpt>
      <trkpt lat="44.81584" lon="4.71796">
        <ele>147</ele>
        <time>2009-03-29T10:43:58Z</time>
      </trkpt>
      <trkpt lat="44.81631" lon="4.71793">
        <ele>143</ele>
        <time>2009-03-29T10:44:03Z</time>
      </trkpt>
      <trkpt lat="44.81649" lon="4.71793">
        <ele>141</ele>
        <time>2009-03-29T10:44:06Z</time>
      </trkpt>
      <trkpt lat="44.81644" lon="4.71807">
        <ele>142</ele>
        <time>2009-03-29T10:44:10Z</time>
      </trkpt>
      <trkpt lat="44.81639" lon="4.71811">
        <ele>142</ele>
        <time>2009-03-29T10:44:11Z</time>
      </trkpt>
      <trkpt lat="44.81625" lon="4.71845">
        <ele>143</ele>
        <time>2009-03-29T10:44:16Z</time>
      </trkpt>
      <trkpt lat="44.81617" lon="4.71876">
        <ele>141</ele>
        <time>2009-03-29T10:44:21Z</time>
      </trkpt>
      <trkpt lat="44.8161" lon="4.71924">
        <ele>139</ele>
        <time>2009-03-29T10:44:28Z</time>
      </trkpt>
      <trkpt lat="44.81604" lon="4.7197">
        <ele>139</ele>
        <time>2009-03-29T10:44:34Z</time>
      </trkpt>
      <trkpt lat="44.81597" lon="4.72009">
        <ele>139</ele>
        <time>2009-03-29T10:44:39Z</time>
      </trkpt>
      <trkpt lat="44.81589" lon="4.7205">
        <ele>141</ele>
        <time>2009-03-29T10:44:45Z</time>
      </trkpt>
      <trkpt lat="44.81583" lon="4.72088">
        <ele>142</ele>
        <time>2009-03-29T10:44:51Z</time>
      </trkpt>
      <trkpt lat="44.8158" lon="4.72121">
        <ele>142</ele>
        <time>2009-03-29T10:44:56Z</time>
      </trkpt>
      <trkpt lat="44.81577" lon="4.72151">
        <ele>142</ele>
        <time>2009-03-29T10:45:00Z</time>
      </trkpt>
      <trkpt lat="44.81574" lon="4.72164">
        <ele>142</ele>
        <time>2009-03-29T10:45:02Z</time>
      </trkpt>
      <trkpt lat="44.81572" lon="4.72214">
        <ele>143</ele>
        <time>2009-03-29T10:45:09Z</time>
      </trkpt>
      <trkpt lat="44.81577" lon="4.72256">
        <ele>142</ele>
        <time>2009-03-29T10:45:15Z</time>
      </trkpt>
      <trkpt lat="44.81583" lon="4.72304">
        <ele>137</ele>
        <time>2009-03-29T10:45:22Z</time>
      </trkpt>
      <trkpt lat="44.8159" lon="4.72353">
        <ele>135</ele>
        <time>2009-03-29T10:45:29Z</time>
      </trkpt>
      <trkpt lat="44.81597" lon="4.72403">
        <ele>137</ele>
        <time>2009-03-29T10:45:36Z</time>
      </trkpt>
      <trkpt lat="44.81599" lon="4.72422">
        <ele>138</ele>
        <time>2009-03-29T10:45:39Z</time>
      </trkpt>
      <trkpt lat="44.81605" lon="4.72464">
        <ele>140</ele>
        <time>2009-03-29T10:45:45Z</time>
      </trkpt>
      <trkpt lat="44.81609" lon="4.72499">
        <ele>142</ele>
        <time>2009-03-29T10:45:50Z</time>
      </trkpt>
      <trkpt lat="44.81613" lon="4.72555">
        <ele>144</ele>
        <time>2009-03-29T10:45:58Z</time>
      </trkpt>
      <trkpt lat="44.81613" lon="4.72561">
        <ele>144</ele>
        <time>2009-03-29T10:45:59Z</time>
      </trkpt>
      <trkpt lat="44.81618" lon="4.72604">
        <ele>144</ele>
        <time>2009-03-29T10:46:05Z</time>
      </trkpt>
      <trkpt lat="44.81623" lon="4.72625">
        <ele>143</ele>
        <time>2009-03-29T10:46:08Z</time>
      </trkpt>
      <trkpt lat="44.81643" lon="4.72669">
        <ele>139</ele>
        <time>2009-03-29T10:46:15Z</time>
      </trkpt>
      <trkpt lat="44.81646" lon="4.72674">
        <ele>139</ele>
        <time>2009-03-29T10:46:16Z</time>
      </trkpt>
      <trkpt lat="44.81679" lon="4.72705">
        <ele>137</ele>
        <time>2009-03-29T10:46:23Z</time>
      </trkpt>
      <trkpt lat="44.81718" lon="4.72743">
        <ele>134</ele>
        <time>2009-03-29T10:46:31Z</time>
      </trkpt>
      <trkpt lat="44.81727" lon="4.72754">
        <ele>133</ele>
        <time>2009-03-29T10:46:33Z</time>
      </trkpt>
      <trkpt lat="44.81747" lon="4.72795">
        <ele>133</ele>
        <time>2009-03-29T10:46:39Z</time>
      </trkpt>
      <trkpt lat="44.81761" lon="4.7284">
        <ele>136</ele>
        <time>2009-03-29T10:46:45Z</time>
      </trkpt>
      <trkpt lat="44.81771" lon="4.72885">
        <ele>138</ele>
        <time>2009-03-29T10:46:51Z</time>
      </trkpt>
      <trkpt lat="44.81775" lon="4.72933">
        <ele>140</ele>
        <time>2009-03-29T10:46:57Z</time>
      </trkpt>
      <trkpt lat="44.81777" lon="4.72973">
        <ele>142</ele>
        <time>2009-03-29T10:47:02Z</time>
      </trkpt>
      <trkpt lat="44.81781" lon="4.73014">
        <ele>143</ele>
        <time>2009-03-29T10:47:07Z</time>
      </trkpt>
      <trkpt lat="44.81781" lon="4.73022">
        <ele>143</ele>
        <time>2009-03-29T10:47:08Z</time>
      </trkpt>
      <trkpt lat="44.81779" lon="4.73062">
        <ele>146</ele>
        <time>2009-03-29T10:47:14Z</time>
      </trkpt>
      <trkpt lat="44.81778" lon="4.73075">
        <ele>147</ele>
        <time>2009-03-29T10:47:16Z</time>
      </trkpt>
      <trkpt lat="44.81781" lon="4.73107">
        <ele>146</ele>
        <time>2009-03-29T10:47:20Z</time>
      </trkpt>
      <trkpt lat="44.81783" lon="4.73132">
        <ele>145</ele>
        <time>2009-03-29T10:47:23Z</time>
      </trkpt>
      <trkpt lat="44.81787" lon="4.73176">
        <ele>143</ele>
        <time>2009-03-29T10:47:28Z</time>
      </trkpt>
      <trkpt lat="44.81791" lon="4.73225">
        <ele>138</ele>
        <time>2009-03-29T10:47:34Z</time>
      </trkpt>
      <trkpt lat="44.81796" lon="4.73276">
        <ele>134</ele>
        <time>2009-03-29T10:47:41Z</time>
      </trkpt>
      <trkpt lat="44.81797" lon="4.73308">
        <ele>133</ele>
        <time>2009-03-29T10:47:46Z</time>
      </trkpt>
      <trkpt lat="44.818" lon="4.73353">
        <ele>131</ele>
        <time>2009-03-29T10:47:53Z</time>
      </trkpt>
      <trkpt lat="44.81804" lon="4.73399">
        <ele>128</ele>
        <time>2009-03-29T10:48:01Z</time>
      </trkpt>
      <trkpt lat="44.81807" lon="4.7344">
        <ele>127</ele>
        <time>2009-03-29T10:48:07Z</time>
      </trkpt>
      <trkpt lat="44.81804" lon="4.73495">
        <ele>127</ele>
        <time>2009-03-29T10:48:15Z</time>
      </trkpt>
      <trkpt lat="44.81799" lon="4.73524">
        <ele>128</ele>
        <time>2009-03-29T10:48:19Z</time>
      </trkpt>
      <trkpt lat="44.81783" lon="4.73578">
        <ele>130</ele>
        <time>2009-03-29T10:48:27Z</time>
      </trkpt>
      <trkpt lat="44.81771" lon="4.73627">
        <ele>133</ele>
        <time>2009-03-29T10:48:34Z</time>
      </trkpt>
      <trkpt lat="44.81765" lon="4.73648">
        <ele>134</ele>
        <time>2009-03-29T10:48:37Z</time>
      </trkpt>
      <trkpt lat="44.8176" lon="4.73696">
        <ele>133</ele>
        <time>2009-03-29T10:48:44Z</time>
      </trkpt>
      <trkpt lat="44.8176" lon="4.73704">
        <ele>133</ele>
        <time>2009-03-29T10:48:45Z</time>
      </trkpt>
      <trkpt lat="44.81766" lon="4.73757">
        <ele>129</ele>
        <time>2009-03-29T10:48:52Z</time>
      </trkpt>
      <trkpt lat="44.81778" lon="4.73817">
        <ele>128</ele>
        <time>2009-03-29T10:49:00Z</time>
      </trkpt>
      <trkpt lat="44.81781" lon="4.73832">
        <ele>128</ele>
        <time>2009-03-29T10:49:02Z</time>
      </trkpt>
      <trkpt lat="44.81783" lon="4.73875">
        <ele>128</ele>
        <time>2009-03-29T10:49:08Z</time>
      </trkpt>
      <trkpt lat="44.81777" lon="4.73901">
        <ele>129</ele>
        <time>2009-03-29T10:49:12Z</time>
      </trkpt>
      <trkpt lat="44.81764" lon="4.73928">
        <ele>130</ele>
        <time>2009-03-29T10:49:17Z</time>
      </trkpt>
      <trkpt lat="44.81739" lon="4.73961">
        <ele>131</ele>
        <time>2009-03-29T10:49:24Z</time>
      </trkpt>
      <trkpt lat="44.81725" lon="4.73979">
        <ele>134</ele>
        <time>2009-03-29T10:49:28Z</time>
      </trkpt>
      <trkpt lat="44.81715" lon="4.73993">
        <ele>135</ele>
        <time>2009-03-29T10:49:31Z</time>
      </trkpt>
      <trkpt lat="44.81699" lon="4.74007">
        <ele>139</ele>
        <time>2009-03-29T10:49:36Z</time>
      </trkpt>
      <trkpt lat="44.81697" lon="4.74011">
        <ele>139</ele>
        <time>2009-03-29T10:49:37Z</time>
      </trkpt>
      <trkpt lat="44.81686" lon="4.74037">
        <ele>139</ele>
        <time>2009-03-29T10:49:43Z</time>
      </trkpt>
      <trkpt lat="44.81679" lon="4.74054">
        <ele>138</ele>
        <time>2009-03-29T10:49:47Z</time>
      </trkpt>
      <trkpt lat="44.81668" lon="4.74085">
        <ele>135</ele>
        <time>2009-03-29T10:49:53Z</time>
      </trkpt>
      <trkpt lat="44.81654" lon="4.74133">
        <ele>138</ele>
        <time>2009-03-29T10:50:02Z</time>
      </trkpt>
      <trkpt lat="44.81647" lon="4.74172">
        <ele>139</ele>
        <time>2009-03-29T10:50:09Z</time>
      </trkpt>
      <trkpt lat="44.81644" lon="4.74201">
        <ele>141</ele>
        <time>2009-03-29T10:50:14Z</time>
      </trkpt>
      <trkpt lat="44.81643" lon="4.74225">
        <ele>142</ele>
        <time>2009-03-29T10:50:18Z</time>
      </trkpt>
      <trkpt lat="44.81646" lon="4.74275">
        <ele>140</ele>
        <time>2009-03-29T10:50:25Z</time>
      </trkpt>
      <trkpt lat="44.81647" lon="4.74281">
        <ele>139</ele>
        <time>2009-03-29T10:50:26Z</time>
      </trkpt>
      <trkpt lat="44.81649" lon="4.74296">
        <ele>138</ele>
        <time>2009-03-29T10:50:28Z</time>
      </trkpt>
      <trkpt lat="44.8165" lon="4.74343">
        <ele>136</ele>
        <time>2009-03-29T10:50:35Z</time>
      </trkpt>
      <trkpt lat="44.8165" lon="4.74384">
        <ele>135</ele>
        <time>2009-03-29T10:50:41Z</time>
      </trkpt>
      <trkpt lat="44.81644" lon="4.74428">
        <ele>137</ele>
        <time>2009-03-29T10:50:48Z</time>
      </trkpt>
      <trkpt lat="44.81636" lon="4.74473">
        <ele>137</ele>
        <time>2009-03-29T10:50:55Z</time>
      </trkpt>
      <trkpt lat="44.81626" lon="4.7453">
        <ele>137</ele>
        <time>2009-03-29T10:51:04Z</time>
      </trkpt>
      <trkpt lat="44.81618" lon="4.74575">
        <ele>136</ele>
        <time>2009-03-29T10:51:11Z</time>
      </trkpt>
      <trkpt lat="44.81614" lon="4.74602">
        <ele>137</ele>
        <time>2009-03-29T10:51:15Z</time>
      </trkpt>
      <trkpt lat="44.81613" lon="4.74644">
        <ele>137</ele>
        <time>2009-03-29T10:51:21Z</time>
      </trkpt>
      <trkpt lat="44.81615" lon="4.74658">
        <ele>137</ele>
        <time>2009-03-29T10:51:23Z</time>
      </trkpt>
      <trkpt lat="44.81625" lon="4.74721">
        <ele>130</ele>
        <time>2009-03-29T10:51:32Z</time>
      </trkpt>
      <trkpt lat="44.81638" lon="4.7477">
        <ele>127</ele>
        <time>2009-03-29T10:51:39Z</time>
      </trkpt>
      <trkpt lat="44.81653" lon="4.74828">
        <ele>129</ele>
        <time>2009-03-29T10:51:48Z</time>
      </trkpt>
      <trkpt lat="44.81658" lon="4.74863">
        <ele>130</ele>
        <time>2009-03-29T10:51:53Z</time>
      </trkpt>
      <trkpt lat="44.81662" lon="4.74912">
        <ele>132</ele>
        <time>2009-03-29T10:52:00Z</time>
      </trkpt>
      <trkpt lat="44.81665" lon="4.74956">
        <ele>132</ele>
        <time>2009-03-29T10:52:06Z</time>
      </trkpt>
      <trkpt lat="44.81672" lon="4.75">
        <ele>133</ele>
        <time>2009-03-29T10:52:12Z</time>
      </trkpt>
      <trkpt lat="44.81677" lon="4.75021">
        <ele>136</ele>
        <time>2009-03-29T10:52:15Z</time>
      </trkpt>
      <trkpt lat="44.81692" lon="4.7506">
        <ele>139</ele>
        <time>2009-03-29T10:52:21Z</time>
      </trkpt>
      <trkpt lat="44.81702" lon="4.75077">
        <ele>138</ele>
        <time>2009-03-29T10:52:24Z</time>
      </trkpt>
      <trkpt lat="44.81717" lon="4.75097">
        <ele>135</ele>
        <time>2009-03-29T10:52:28Z</time>
      </trkpt>
      <trkpt lat="44.8175" lon="4.75149">
        <ele>128</ele>
        <time>2009-03-29T10:52:37Z</time>
      </trkpt>
      <trkpt lat="44.81776" lon="4.75207">
        <ele>133</ele>
        <time>2009-03-29T10:52:46Z</time>
      </trkpt>
      <trkpt lat="44.81793" lon="4.75244">
        <ele>133</ele>
        <time>2009-03-29T10:52:52Z</time>
      </trkpt>
      <trkpt lat="44.81816" lon="4.75295">
        <ele>129</ele>
        <time>2009-03-29T10:53:00Z</time>
      </trkpt>
      <trkpt lat="44.81845" lon="4.75361">
        <ele>127</ele>
        <time>2009-03-29T10:53:10Z</time>
      </trkpt>
      <trkpt lat="44.81868" lon="4.7541">
        <ele>126</ele>
        <time>2009-03-29T10:53:18Z</time>
      </trkpt>
      <trkpt lat="44.81886" lon="4.75461">
        <ele>124</ele>
        <time>2009-03-29T10:53:26Z</time>
      </trkpt>
      <trkpt lat="44.81897" lon="4.75512">
        <ele>126</ele>
        <time>2009-03-29T10:53:33Z</time>
      </trkpt>
      <trkpt lat="44.8191" lon="4.7557">
        <ele>128</ele>
        <time>2009-03-29T10:53:41Z</time>
      </trkpt>
      <trkpt lat="44.81922" lon="4.75627">
        <ele>129</ele>
        <time>2009-03-29T10:53:49Z</time>
      </trkpt>
      <trkpt lat="44.81928" lon="4.75663">
        <ele>130</ele>
        <time>2009-03-29T10:53:54Z</time>
      </trkpt>
      <trkpt lat="44.8193" lon="4.75678">
        <ele>130</ele>
        <time>2009-03-29T10:53:56Z</time>
      </trkpt>
      <trkpt lat="44.81929" lon="4.75729">
        <ele>131</ele>
        <time>2009-03-29T10:54:03Z</time>
      </trkpt>
      <trkpt lat="44.81928" lon="4.75774">
        <ele>132</ele>
        <time>2009-03-29T10:54:09Z</time>
      </trkpt>
      <trkpt lat="44.8193" lon="4.75831">
        <ele>133</ele>
        <time>2009-03-29T10:54:17Z</time>
      </trkpt>
      <trkpt lat="44.81942" lon="4.75875">
        <ele>132</ele>
        <time>2009-03-29T10:54:24Z</time>
      </trkpt>
      <trkpt lat="44.81956" lon="4.75926">
        <ele>129</ele>
        <time>2009-03-29T10:54:32Z</time>
      </trkpt>
      <trkpt lat="44.81963" lon="4.75975">
        <ele>127</ele>
        <time>2009-03-29T10:54:39Z</time>
      </trkpt>
      <trkpt lat="44.81964" lon="4.76034">
        <ele>125</ele>
        <time>2009-03-29T10:54:47Z</time>
      </trkpt>
      <trkpt lat="44.81965" lon="4.76099">
        <ele>125</ele>
        <time>2009-03-29T10:54:56Z</time>
      </trkpt>
      <trkpt lat="44.81972" lon="4.76153">
        <ele>127</ele>
        <time>2009-03-29T10:55:04Z</time>
      </trkpt>
      <trkpt lat="44.81977" lon="4.76172">
        <ele>127</ele>
        <time>2009-03-29T10:55:07Z</time>
      </trkpt>
      <trkpt lat="44.81983" lon="4.76205">
        <ele>128</ele>
        <time>2009-03-29T10:55:12Z</time>
      </trkpt>
      <trkpt lat="44.81994" lon="4.76249">
        <ele>127</ele>
        <time>2009-03-29T10:55:19Z</time>
      </trkpt>
      <trkpt lat="44.81999" lon="4.76267">
        <ele>126</ele>
        <time>2009-03-29T10:55:22Z</time>
      </trkpt>
      <trkpt lat="44.8201" lon="4.76327">
        <ele>127</ele>
        <time>2009-03-29T10:55:31Z</time>
      </trkpt>
      <trkpt lat="44.82011" lon="4.76347">
        <ele>128</ele>
        <time>2009-03-29T10:55:34Z</time>
      </trkpt>
      <trkpt lat="44.82016" lon="4.76389">
        <ele>129</ele>
        <time>2009-03-29T10:55:40Z</time>
      </trkpt>
      <trkpt lat="44.82016" lon="4.76442">
        <ele>130</ele>
        <time>2009-03-29T10:55:48Z</time>
      </trkpt>
      <trkpt lat="44.82017" lon="4.76497">
        <ele>130</ele>
        <time>2009-03-29T10:55:56Z</time>
      </trkpt>
      <trkpt lat="44.82017" lon="4.76504">
        <ele>130</ele>
        <time>2009-03-29T10:55:57Z</time>
      </trkpt>
      <trkpt lat="44.82023" lon="4.7656">
        <ele>132</ele>
        <time>2009-03-29T10:56:05Z</time>
      </trkpt>
      <trkpt lat="44.82023" lon="4.76567">
        <ele>132</ele>
        <time>2009-03-29T10:56:06Z</time>
      </trkpt>
      <trkpt lat="44.82035" lon="4.76628">
        <ele>133</ele>
        <time>2009-03-29T10:56:15Z</time>
      </trkpt>
      <trkpt lat="44.82038" lon="4.76641">
        <ele>132</ele>
        <time>2009-03-29T10:56:17Z</time>
      </trkpt>
      <trkpt lat="44.82048" lon="4.76671">
        <ele>130</ele>
        <time>2009-03-29T10:56:22Z</time>
      </trkpt>
      <trkpt lat="44.82059" lon="4.76708">
        <ele>126</ele>
        <time>2009-03-29T10:56:29Z</time>
      </trkpt>
      <trkpt lat="44.82062" lon="4.76739">
        <ele>126</ele>
        <time>2009-03-29T10:56:34Z</time>
      </trkpt>
      <trkpt lat="44.82063" lon="4.76746">
        <ele>126</ele>
        <time>2009-03-29T10:56:35Z</time>
      </trkpt>
      <trkpt lat="44.82064" lon="4.76796">
        <ele>129</ele>
        <time>2009-03-29T10:56:42Z</time>
      </trkpt>
      <trkpt lat="44.82064" lon="4.76809">
        <ele>129</ele>
        <time>2009-03-29T10:56:44Z</time>
      </trkpt>
      <trkpt lat="44.82066" lon="4.76828">
        <ele>130</ele>
        <time>2009-03-29T10:56:47Z</time>
      </trkpt>
      <trkpt lat="44.82074" lon="4.76864">
        <ele>129</ele>
        <time>2009-03-29T10:56:52Z</time>
      </trkpt>
      <trkpt lat="44.82087" lon="4.76914">
        <ele>129</ele>
        <time>2009-03-29T10:56:59Z</time>
      </trkpt>
      <trkpt lat="44.821" lon="4.76961">
        <ele>126</ele>
        <time>2009-03-29T10:57:06Z</time>
      </trkpt>
      <trkpt lat="44.82113" lon="4.77012">
        <ele>123</ele>
        <time>2009-03-29T10:57:13Z</time>
      </trkpt>
      <trkpt lat="44.82127" lon="4.7707">
        <ele>123</ele>
        <time>2009-03-29T10:57:21Z</time>
      </trkpt>
      <trkpt lat="44.82143" lon="4.77132">
        <ele>123</ele>
        <time>2009-03-29T10:57:29Z</time>
      </trkpt>
      <trkpt lat="44.82151" lon="4.77177">
        <ele>124</ele>
        <time>2009-03-29T10:57:35Z</time>
      </trkpt>
      <trkpt lat="44.82157" lon="4.77224">
        <ele>125</ele>
        <time>2009-03-29T10:57:41Z</time>
      </trkpt>
      <trkpt lat="44.82158" lon="4.77232">
        <ele>125</ele>
        <time>2009-03-29T10:57:42Z</time>
      </trkpt>
      <trkpt lat="44.82159" lon="4.77256">
        <ele>126</ele>
        <time>2009-03-29T10:57:45Z</time>
      </trkpt>
      <trkpt lat="44.8216" lon="4.77304">
        <ele>127</ele>
        <time>2009-03-29T10:57:52Z</time>
      </trkpt>
      <trkpt lat="44.82162" lon="4.77333">
        <ele>127</ele>
        <time>2009-03-29T10:57:56Z</time>
      </trkpt>
      <trkpt lat="44.82168" lon="4.7739">
        <ele>125</ele>
        <time>2009-03-29T10:58:04Z</time>
      </trkpt>
      <trkpt lat="44.82169" lon="4.77405">
        <ele>124</ele>
        <time>2009-03-29T10:58:06Z</time>
      </trkpt>
      <trkpt lat="44.82169" lon="4.77428">
        <ele>125</ele>
        <time>2009-03-29T10:58:09Z</time>
      </trkpt>
      <trkpt lat="44.82164" lon="4.77457">
        <ele>128</ele>
        <time>2009-03-29T10:58:14Z</time>
      </trkpt>
      <trkpt lat="44.82163" lon="4.77477">
        <ele>130</ele>
        <time>2009-03-29T10:58:18Z</time>
      </trkpt>
      <trkpt lat="44.82163" lon="4.77482">
        <ele>130</ele>
        <time>2009-03-29T10:58:20Z</time>
      </trkpt>
      <trkpt lat="44.82166" lon="4.77501">
        <ele>129</ele>
        <time>2009-03-29T10:58:25Z</time>
      </trkpt>
      <trkpt lat="44.82174" lon="4.77543">
        <ele>130</ele>
        <time>2009-03-29T10:58:31Z</time>
      </trkpt>
      <trkpt lat="44.82176" lon="4.77558">
        <ele>130</ele>
        <time>2009-03-29T10:58:33Z</time>
      </trkpt>
      <trkpt lat="44.8218" lon="4.77581">
        <ele>130</ele>
        <time>2009-03-29T10:58:36Z</time>
      </trkpt>
      <trkpt lat="44.82183" lon="4.77621">
        <ele>128</ele>
        <time>2009-03-29T10:58:41Z</time>
      </trkpt>
      <trkpt lat="44.82185" lon="4.77657">
        <ele>128</ele>
        <time>2009-03-29T10:58:46Z</time>
      </trkpt>
      <trkpt lat="44.82191" lon="4.77695">
        <ele>127</ele>
        <time>2009-03-29T10:58:51Z</time>
      </trkpt>
      <trkpt lat="44.82206" lon="4.77746">
        <ele>126</ele>
        <time>2009-03-29T10:58:58Z</time>
      </trkpt>
      <trkpt lat="44.82215" lon="4.77794">
        <ele>124</ele>
        <time>2009-03-29T10:59:05Z</time>
      </trkpt>
      <trkpt lat="44.82219" lon="4.77846">
        <ele>124</ele>
        <time>2009-03-29T10:59:12Z</time>
      </trkpt>
      <trkpt lat="44.82224" lon="4.77912">
        <ele>123</ele>
        <time>2009-03-29T10:59:20Z</time>
      </trkpt>
      <trkpt lat="44.82226" lon="4.77967">
        <ele>121</ele>
        <time>2009-03-29T10:59:27Z</time>
      </trkpt>
      <trkpt lat="44.82225" lon="4.78025">
        <ele>120</ele>
        <time>2009-03-29T10:59:35Z</time>
      </trkpt>
      <trkpt lat="44.82219" lon="4.7806">
        <ele>121</ele>
        <time>2009-03-29T10:59:40Z</time>
      </trkpt>
      <trkpt lat="44.82211" lon="4.78098">
        <ele>121</ele>
        <time>2009-03-29T10:59:45Z</time>
      </trkpt>
      <trkpt lat="44.82202" lon="4.78137">
        <ele>120</ele>
        <time>2009-03-29T10:59:50Z</time>
      </trkpt>
      <trkpt lat="44.82191" lon="4.78175">
        <ele>119</ele>
        <time>2009-03-29T10:59:55Z</time>
      </trkpt>
      <trkpt lat="44.82173" lon="4.78217">
        <ele>118</ele>
        <time>2009-03-29T11:00:01Z</time>
      </trkpt>
      <trkpt lat="44.82158" lon="4.78243">
        <ele>117</ele>
        <time>2009-03-29T11:00:05Z</time>
      </trkpt>
      <trkpt lat="44.82132" lon="4.78274">
        <ele>119</ele>
        <time>2009-03-29T11:00:11Z</time>
      </trkpt>
      <trkpt lat="44.821" lon="4.783">
        <ele>120</ele>
        <time>2009-03-29T11:00:17Z</time>
      </trkpt>
      <trkpt lat="44.82079" lon="4.78311">
        <ele>121</ele>
        <time>2009-03-29T11:00:21Z</time>
      </trkpt>
      <trkpt lat="44.82074" lon="4.78314">
        <ele>120</ele>
        <time>2009-03-29T11:00:22Z</time>
      </trkpt>
      <trkpt lat="44.82059" lon="4.78325">
        <ele>119</ele>
        <time>2009-03-29T11:00:25Z</time>
      </trkpt>
      <trkpt lat="44.82035" lon="4.78349">
        <ele>118</ele>
        <time>2009-03-29T11:00:31Z</time>
      </trkpt>
      <trkpt lat="44.82016" lon="4.78368">
        <ele>118</ele>
        <time>2009-03-29T11:00:35Z</time>
      </trkpt>
      <trkpt lat="44.82008" lon="4.78379">
        <ele>117</ele>
        <time>2009-03-29T11:00:37Z</time>
      </trkpt>
      <trkpt lat="44.81973" lon="4.7842">
        <ele>115</ele>
        <time>2009-03-29T11:00:45Z</time>
      </trkpt>
      <trkpt lat="44.81955" lon="4.7844">
        <ele>114</ele>
        <time>2009-03-29T11:00:49Z</time>
      </trkpt>
      <trkpt lat="44.81929" lon="4.7847">
        <ele>114</ele>
        <time>2009-03-29T11:00:55Z</time>
      </trkpt>
      <trkpt lat="44.81917" lon="4.78486">
        <ele>114</ele>
        <time>2009-03-29T11:00:58Z</time>
      </trkpt>
      <trkpt lat="44.81871" lon="4.7854">
        <ele>111</ele>
        <time>2009-03-29T11:01:08Z</time>
      </trkpt>
      <trkpt lat="44.81837" lon="4.78583">
        <ele>111</ele>
        <time>2009-03-29T11:01:16Z</time>
      </trkpt>
      <trkpt lat="44.81812" lon="4.78615">
        <ele>112</ele>
        <time>2009-03-29T11:01:22Z</time>
      </trkpt>
      <trkpt lat="44.81782" lon="4.78649">
        <ele>112</ele>
        <time>2009-03-29T11:01:29Z</time>
      </trkpt>
      <trkpt lat="44.8175" lon="4.78677">
        <ele>113</ele>
        <time>2009-03-29T11:01:36Z</time>
      </trkpt>
      <trkpt lat="44.81737" lon="4.78687">
        <ele>113</ele>
        <time>2009-03-29T11:01:39Z</time>
      </trkpt>
      <trkpt lat="44.8172" lon="4.78698">
        <ele>113</ele>
        <time>2009-03-29T11:01:44Z</time>
      </trkpt>
      <trkpt lat="44.81709" lon="4.78707">
        <ele>113</ele>
        <time>2009-03-29T11:01:48Z</time>
      </trkpt>
      <trkpt lat="44.81702" lon="4.78713">
        <ele>113</ele>
        <time>2009-03-29T11:01:50Z</time>
      </trkpt>
      <trkpt lat="44.81673" lon="4.78749">
        <ele>112</ele>
        <time>2009-03-29T11:01:58Z</time>
      </trkpt>
      <trkpt lat="44.81653" lon="4.7879">
        <ele>112</ele>
        <time>2009-03-29T11:02:05Z</time>
      </trkpt>
      <trkpt lat="44.81635" lon="4.78835">
        <ele>113</ele>
        <time>2009-03-29T11:02:12Z</time>
      </trkpt>
      <trkpt lat="44.81617" lon="4.7888">
        <ele>114</ele>
        <time>2009-03-29T11:02:19Z</time>
      </trkpt>
      <trkpt lat="44.8159" lon="4.78943">
        <ele>115</ele>
        <time>2009-03-29T11:02:29Z</time>
      </trkpt>
      <trkpt lat="44.81573" lon="4.78988">
        <ele>114</ele>
        <time>2009-03-29T11:02:37Z</time>
      </trkpt>
      <trkpt lat="44.81561" lon="4.79019">
        <ele>114</ele>
        <time>2009-03-29T11:02:42Z</time>
      </trkpt>
      <trkpt lat="44.81553" lon="4.79038">
        <ele>114</ele>
        <time>2009-03-29T11:02:45Z</time>
      </trkpt>
      <trkpt lat="44.8153" lon="4.79076">
        <ele>114</ele>
        <time>2009-03-29T11:02:52Z</time>
      </trkpt>
      <trkpt lat="44.81524" lon="4.79085">
        <ele>115</ele>
        <time>2009-03-29T11:02:54Z</time>
      </trkpt>
      <trkpt lat="44.81521" lon="4.79108">
        <ele>114</ele>
        <time>2009-03-29T11:02:59Z</time>
      </trkpt>
      <trkpt lat="44.81514" lon="4.79148">
        <ele>113</ele>
        <time>2009-03-29T11:03:05Z</time>
      </trkpt>
      <trkpt lat="44.81513" lon="4.79155">
        <ele>113</ele>
        <time>2009-03-29T11:03:06Z</time>
      </trkpt>
      <trkpt lat="44.81506" lon="4.79179">
        <ele>113</ele>
        <time>2009-03-29T11:03:10Z</time>
      </trkpt>
      <trkpt lat="44.81485" lon="4.79203">
        <ele>115</ele>
        <time>2009-03-29T11:03:16Z</time>
      </trkpt>
      <trkpt lat="44.81469" lon="4.79199">
        <ele>116</ele>
        <time>2009-03-29T11:03:20Z</time>
      </trkpt>
      <trkpt lat="44.81423" lon="4.79183">
        <ele>120</ele>
        <time>2009-03-29T11:03:31Z</time>
      </trkpt>
      <trkpt lat="44.8139" lon="4.79167">
        <ele>118</ele>
        <time>2009-03-29T11:03:39Z</time>
      </trkpt>
      <trkpt lat="44.81362" lon="4.79146">
        <ele>117</ele>
        <time>2009-03-29T11:03:46Z</time>
      </trkpt>
      <trkpt lat="44.81335" lon="4.7911">
        <ele>116</ele>
        <time>2009-03-29T11:03:54Z</time>
      </trkpt>
      <trkpt lat="44.81316" lon="4.79074">
        <ele>115</ele>
        <time>2009-03-29T11:04:00Z</time>
      </trkpt>
      <trkpt lat="44.81284" lon="4.79021">
        <ele>112</ele>
        <time>2009-03-29T11:04:08Z</time>
      </trkpt>
      <trkpt lat="44.81237" lon="4.78957">
        <ele>109</ele>
        <time>2009-03-29T11:04:17Z</time>
      </trkpt>
      <trkpt lat="44.81202" lon="4.78905">
        <ele>108</ele>
        <time>2009-03-29T11:04:24Z</time>
      </trkpt>
      <trkpt lat="44.81167" lon="4.7886">
        <ele>106</ele>
        <time>2009-03-29T11:04:30Z</time>
      </trkpt>
      <trkpt lat="44.81131" lon="4.78815">
        <ele>105</ele>
        <time>2009-03-29T11:04:36Z</time>
      </trkpt>
      <trkpt lat="44.8108" lon="4.78745">
        <ele>104</ele>
        <time>2009-03-29T11:04:45Z</time>
      </trkpt>
      <trkpt lat="44.81075" lon="4.78738">
        <ele>104</ele>
        <time>2009-03-29T11:04:46Z</time>
      </trkpt>
      <trkpt lat="44.81022" lon="4.78699">
        <ele>103</ele>
        <time>2009-03-29T11:04:54Z</time>
      </trkpt>
      <trkpt lat="44.80981" lon="4.7867">
        <ele>101</ele>
        <time>2009-03-29T11:05:00Z</time>
      </trkpt>
      <trkpt lat="44.80932" lon="4.78643">
        <ele>98</ele>
        <time>2009-03-29T11:05:07Z</time>
      </trkpt>
      <trkpt lat="44.80919" lon="4.78634">
        <ele>98</ele>
        <time>2009-03-29T11:05:09Z</time>
      </trkpt>
      <trkpt lat="44.80891" lon="4.78616">
        <ele>97</ele>
        <time>2009-03-29T11:05:13Z</time>
      </trkpt>
      <trkpt lat="44.80885" lon="4.78612">
        <ele>97</ele>
        <time>2009-03-29T11:05:14Z</time>
      </trkpt>
      <trkpt lat="44.80847" lon="4.78587">
        <ele>95</ele>
        <time>2009-03-29T11:05:20Z</time>
      </trkpt>
      <trkpt lat="44.80817" lon="4.78554">
        <ele>95</ele>
        <time>2009-03-29T11:05:26Z</time>
      </trkpt>
      <trkpt lat="44.80782" lon="4.78505">
        <ele>95</ele>
        <time>2009-03-29T11:05:34Z</time>
      </trkpt>
      <trkpt lat="44.8075" lon="4.78464">
        <ele>94</ele>
        <time>2009-03-29T11:05:40Z</time>
      </trkpt>
      <trkpt lat="44.80717" lon="4.78423">
        <ele>94</ele>
        <time>2009-03-29T11:05:46Z</time>
      </trkpt>
      <trkpt lat="44.80676" lon="4.78369">
        <ele>94</ele>
        <time>2009-03-29T11:05:54Z</time>
      </trkpt>
      <trkpt lat="44.8064" lon="4.78328">
        <ele>94</ele>
        <time>2009-03-29T11:06:01Z</time>
      </trkpt>
      <trkpt lat="44.80592" lon="4.78299">
        <ele>95</ele>
        <time>2009-03-29T11:06:09Z</time>
      </trkpt>
      <trkpt lat="44.80575" lon="4.78292">
        <ele>95</ele>
        <time>2009-03-29T11:06:12Z</time>
      </trkpt>
      <trkpt lat="44.80554" lon="4.78293">
        <ele>95</ele>
        <time>2009-03-29T11:06:16Z</time>
      </trkpt>
      <trkpt lat="44.80513" lon="4.78296">
        <ele>95</ele>
        <time>2009-03-29T11:06:23Z</time>
      </trkpt>
      <trkpt lat="44.80462" lon="4.78297">
        <ele>94</ele>
        <time>2009-03-29T11:06:31Z</time>
      </trkpt>
      <trkpt lat="44.80456" lon="4.78297">
        <ele>94</ele>
        <time>2009-03-29T11:06:32Z</time>
      </trkpt>
      <trkpt lat="44.80421" lon="4.78284">
        <ele>94</ele>
        <time>2009-03-29T11:06:38Z</time>
      </trkpt>
      <trkpt lat="44.8036" lon="4.7824">
        <ele>95</ele>
        <time>2009-03-29T11:06:49Z</time>
      </trkpt>
      <trkpt lat="44.80326" lon="4.78216">
        <ele>95</ele>
        <time>2009-03-29T11:06:55Z</time>
      </trkpt>
      <trkpt lat="44.80314" lon="4.78207">
        <ele>95</ele>
        <time>2009-03-29T11:06:57Z</time>
      </trkpt>
      <trkpt lat="44.80298" lon="4.78193">
        <ele>96</ele>
        <time>2009-03-29T11:07:00Z</time>
      </trkpt>
      <trkpt lat="44.80261" lon="4.78165">
        <ele>97</ele>
        <time>2009-03-29T11:07:07Z</time>
      </trkpt>
      <trkpt lat="44.80221" lon="4.78143">
        <ele>96</ele>
        <time>2009-03-29T11:07:14Z</time>
      </trkpt>
      <trkpt lat="44.80215" lon="4.78141">
        <ele>96</ele>
        <time>2009-03-29T11:07:15Z</time>
      </trkpt>
      <trkpt lat="44.80186" lon="4.78139">
        <ele>96</ele>
        <time>2009-03-29T11:07:20Z</time>
      </trkpt>
      <trkpt lat="44.80165" lon="4.78134">
        <ele>96</ele>
        <time>2009-03-29T11:07:24Z</time>
      </trkpt>
      <trkpt lat="44.80141" lon="4.78139">
        <ele>97</ele>
        <time>2009-03-29T11:07:29Z</time>
      </trkpt>
      <trkpt lat="44.80119" lon="4.78162">
        <ele>96</ele>
        <time>2009-03-29T11:07:36Z</time>
      </trkpt>
      <trkpt lat="44.80102" lon="4.78171">
        <ele>96</ele>
        <time>2009-03-29T11:07:41Z</time>
      </trkpt>
      <trkpt lat="44.80084" lon="4.78175">
        <ele>96</ele>
        <time>2009-03-29T11:07:47Z</time>
      </trkpt>
      <trkpt lat="44.80074" lon="4.78174">
        <ele>96</ele>
        <time>2009-03-29T11:07:51Z</time>
      </trkpt>
      <trkpt lat="44.8007" lon="4.78177">
        <ele>96</ele>
        <time>2009-03-29T11:07:56Z</time>
      </trkpt>
      <trkpt lat="44.8007" lon="4.78177">
        <ele>96</ele>
        <time>2009-03-29T11:07:58Z</time>
      </trkpt>
    </trkseg>
  </trk>
</gpx>